<?xml version="1.0" encoding="UTF-8" standalone="no" ?>
<gpx xmlns="http://www.topografix.com/GPX/1/1" xmlns:xsi="http://www.w3.org/2001/XMLSchema-instance" xsi:schemaLocation="http://www.topografix.com/GPX/1/1 http://www.topografix.com/GPX/1/1/gpx.xsd" version="1.1" creator="VisuGPX - https://www.visugpx.com">
  <metadata>
    <name>15 janvier 2012</name>
    <desc><![CDATA[entre notre dame d%u2019étang et Mont Afrique]]></desc>
  </metadata>
  <trk>
    <name><![CDATA[15-01-2012 07-56-32]]></name>
    <trkseg>
      <trkpt lat="47.29028" lon="5.06738">
        <ele>227</ele>
        <time>2012-01-15T07:56:36Z</time>
      </trkpt>
      <trkpt lat="47.29013" lon="5.0674">
        <ele>240</ele>
        <time>2012-01-15T07:59:30Z</time>
      </trkpt>
      <trkpt lat="47.29013" lon="5.06738">
        <ele>238</ele>
        <time>2012-01-15T07:59:35Z</time>
      </trkpt>
      <trkpt lat="47.29003" lon="5.0672">
        <ele>236</ele>
        <time>2012-01-15T08:00:06Z</time>
      </trkpt>
      <trkpt lat="47.2899" lon="5.06703">
        <ele>238</ele>
        <time>2012-01-15T08:00:12Z</time>
      </trkpt>
      <trkpt lat="47.28972" lon="5.06687">
        <ele>240</ele>
        <time>2012-01-15T08:00:18Z</time>
      </trkpt>
      <trkpt lat="47.28947" lon="5.06663">
        <ele>242</ele>
        <time>2012-01-15T08:00:27Z</time>
      </trkpt>
      <trkpt lat="47.28925" lon="5.0664">
        <ele>245</ele>
        <time>2012-01-15T08:00:33Z</time>
      </trkpt>
      <trkpt lat="47.28913" lon="5.0663">
        <ele>246</ele>
        <time>2012-01-15T08:00:37Z</time>
      </trkpt>
      <trkpt lat="47.28893" lon="5.06605">
        <ele>244</ele>
        <time>2012-01-15T08:00:56Z</time>
      </trkpt>
      <trkpt lat="47.28903" lon="5.06577">
        <ele>241</ele>
        <time>2012-01-15T08:01:02Z</time>
      </trkpt>
      <trkpt lat="47.28903" lon="5.0655">
        <ele>243</ele>
        <time>2012-01-15T08:01:09Z</time>
      </trkpt>
      <trkpt lat="47.28892" lon="5.06537">
        <ele>244</ele>
        <time>2012-01-15T08:01:13Z</time>
      </trkpt>
      <trkpt lat="47.28873" lon="5.06523">
        <ele>246</ele>
        <time>2012-01-15T08:01:17Z</time>
      </trkpt>
      <trkpt lat="47.2886" lon="5.06512">
        <ele>249</ele>
        <time>2012-01-15T08:01:21Z</time>
      </trkpt>
      <trkpt lat="47.28845" lon="5.06498">
        <ele>251</ele>
        <time>2012-01-15T08:01:25Z</time>
      </trkpt>
      <trkpt lat="47.28822" lon="5.06473">
        <ele>250</ele>
        <time>2012-01-15T08:01:31Z</time>
      </trkpt>
      <trkpt lat="47.28807" lon="5.06458">
        <ele>253</ele>
        <time>2012-01-15T08:01:36Z</time>
      </trkpt>
      <trkpt lat="47.28785" lon="5.06437">
        <ele>253</ele>
        <time>2012-01-15T08:01:40Z</time>
      </trkpt>
      <trkpt lat="47.28713" lon="5.0636">
        <ele>244</ele>
        <time>2012-01-15T08:01:59Z</time>
      </trkpt>
      <trkpt lat="47.28703" lon="5.06347">
        <ele>247</ele>
        <time>2012-01-15T08:02:01Z</time>
      </trkpt>
      <trkpt lat="47.28692" lon="5.06325">
        <ele>248</ele>
        <time>2012-01-15T08:02:05Z</time>
      </trkpt>
      <trkpt lat="47.28677" lon="5.06322">
        <ele>250</ele>
        <time>2012-01-15T08:02:09Z</time>
      </trkpt>
      <trkpt lat="47.28667" lon="5.06338">
        <ele>250</ele>
        <time>2012-01-15T08:02:13Z</time>
      </trkpt>
      <trkpt lat="47.2865" lon="5.0634">
        <ele>250</ele>
        <time>2012-01-15T08:02:18Z</time>
      </trkpt>
      <trkpt lat="47.28627" lon="5.06337">
        <ele>247</ele>
        <time>2012-01-15T08:02:22Z</time>
      </trkpt>
      <trkpt lat="47.28607" lon="5.06335">
        <ele>245</ele>
        <time>2012-01-15T08:02:26Z</time>
      </trkpt>
      <trkpt lat="47.28587" lon="5.0633">
        <ele>245</ele>
        <time>2012-01-15T08:02:30Z</time>
      </trkpt>
      <trkpt lat="47.28573" lon="5.06318">
        <ele>244</ele>
        <time>2012-01-15T08:02:34Z</time>
      </trkpt>
      <trkpt lat="47.28577" lon="5.06295">
        <ele>241</ele>
        <time>2012-01-15T08:02:38Z</time>
      </trkpt>
      <trkpt lat="47.28573" lon="5.06273">
        <ele>241</ele>
        <time>2012-01-15T08:02:43Z</time>
      </trkpt>
      <trkpt lat="47.28553" lon="5.06257">
        <ele>240</ele>
        <time>2012-01-15T08:02:47Z</time>
      </trkpt>
      <trkpt lat="47.28558" lon="5.06232">
        <ele>239</ele>
        <time>2012-01-15T08:02:51Z</time>
      </trkpt>
      <trkpt lat="47.2857" lon="5.06207">
        <ele>236</ele>
        <time>2012-01-15T08:02:55Z</time>
      </trkpt>
      <trkpt lat="47.28593" lon="5.06158">
        <ele>234</ele>
        <time>2012-01-15T08:03:04Z</time>
      </trkpt>
      <trkpt lat="47.28605" lon="5.06143">
        <ele>233</ele>
        <time>2012-01-15T08:03:06Z</time>
      </trkpt>
      <trkpt lat="47.28617" lon="5.0612">
        <ele>233</ele>
        <time>2012-01-15T08:03:10Z</time>
      </trkpt>
      <trkpt lat="47.2864" lon="5.06073">
        <ele>236</ele>
        <time>2012-01-15T08:03:18Z</time>
      </trkpt>
      <trkpt lat="47.28658" lon="5.0604">
        <ele>237</ele>
        <time>2012-01-15T08:03:25Z</time>
      </trkpt>
      <trkpt lat="47.28668" lon="5.06008">
        <ele>238</ele>
        <time>2012-01-15T08:03:29Z</time>
      </trkpt>
      <trkpt lat="47.28682" lon="5.05975">
        <ele>236</ele>
        <time>2012-01-15T08:03:35Z</time>
      </trkpt>
      <trkpt lat="47.28692" lon="5.05955">
        <ele>235</ele>
        <time>2012-01-15T08:03:39Z</time>
      </trkpt>
      <trkpt lat="47.28708" lon="5.0592">
        <ele>232</ele>
        <time>2012-01-15T08:03:46Z</time>
      </trkpt>
      <trkpt lat="47.28793" lon="5.05745">
        <ele>230</ele>
        <time>2012-01-15T08:04:17Z</time>
      </trkpt>
      <trkpt lat="47.28818" lon="5.05692">
        <ele>230</ele>
        <time>2012-01-15T08:04:28Z</time>
      </trkpt>
      <trkpt lat="47.2882" lon="5.05663">
        <ele>227</ele>
        <time>2012-01-15T08:04:32Z</time>
      </trkpt>
      <trkpt lat="47.28833" lon="5.05638">
        <ele>226</ele>
        <time>2012-01-15T08:04:36Z</time>
      </trkpt>
      <trkpt lat="47.28843" lon="5.0562">
        <ele>226</ele>
        <time>2012-01-15T08:04:40Z</time>
      </trkpt>
      <trkpt lat="47.2886" lon="5.05593">
        <ele>229</ele>
        <time>2012-01-15T08:04:46Z</time>
      </trkpt>
      <trkpt lat="47.28885" lon="5.0555">
        <ele>234</ele>
        <time>2012-01-15T08:04:55Z</time>
      </trkpt>
      <trkpt lat="47.28897" lon="5.05533">
        <ele>234</ele>
        <time>2012-01-15T08:04:59Z</time>
      </trkpt>
      <trkpt lat="47.28898" lon="5.0551">
        <ele>235</ele>
        <time>2012-01-15T08:05:05Z</time>
      </trkpt>
      <trkpt lat="47.28885" lon="5.05493">
        <ele>236</ele>
        <time>2012-01-15T08:05:12Z</time>
      </trkpt>
      <trkpt lat="47.28883" lon="5.05473">
        <ele>235</ele>
        <time>2012-01-15T08:05:16Z</time>
      </trkpt>
      <trkpt lat="47.28897" lon="5.05455">
        <ele>234</ele>
        <time>2012-01-15T08:05:20Z</time>
      </trkpt>
      <trkpt lat="47.28908" lon="5.05437">
        <ele>234</ele>
        <time>2012-01-15T08:05:24Z</time>
      </trkpt>
      <trkpt lat="47.28948" lon="5.05375">
        <ele>234</ele>
        <time>2012-01-15T08:05:37Z</time>
      </trkpt>
      <trkpt lat="47.2896" lon="5.05355">
        <ele>233</ele>
        <time>2012-01-15T08:05:41Z</time>
      </trkpt>
      <trkpt lat="47.28972" lon="5.05335">
        <ele>234</ele>
        <time>2012-01-15T08:05:45Z</time>
      </trkpt>
      <trkpt lat="47.28983" lon="5.05317">
        <ele>235</ele>
        <time>2012-01-15T08:05:50Z</time>
      </trkpt>
      <trkpt lat="47.28993" lon="5.05298">
        <ele>236</ele>
        <time>2012-01-15T08:05:54Z</time>
      </trkpt>
      <trkpt lat="47.2898" lon="5.05288">
        <ele>241</ele>
        <time>2012-01-15T08:06:02Z</time>
      </trkpt>
      <trkpt lat="47.28963" lon="5.05278">
        <ele>242</ele>
        <time>2012-01-15T08:06:09Z</time>
      </trkpt>
      <trkpt lat="47.28977" lon="5.05253">
        <ele>239</ele>
        <time>2012-01-15T08:06:15Z</time>
      </trkpt>
      <trkpt lat="47.28995" lon="5.05238">
        <ele>238</ele>
        <time>2012-01-15T08:06:19Z</time>
      </trkpt>
      <trkpt lat="47.29008" lon="5.05218">
        <ele>237</ele>
        <time>2012-01-15T08:06:23Z</time>
      </trkpt>
      <trkpt lat="47.29027" lon="5.05187">
        <ele>236</ele>
        <time>2012-01-15T08:06:30Z</time>
      </trkpt>
      <trkpt lat="47.2904" lon="5.05163">
        <ele>235</ele>
        <time>2012-01-15T08:06:34Z</time>
      </trkpt>
      <trkpt lat="47.29055" lon="5.05135">
        <ele>234</ele>
        <time>2012-01-15T08:06:38Z</time>
      </trkpt>
      <trkpt lat="47.29075" lon="5.05102">
        <ele>234</ele>
        <time>2012-01-15T08:06:44Z</time>
      </trkpt>
      <trkpt lat="47.29093" lon="5.0507">
        <ele>234</ele>
        <time>2012-01-15T08:06:50Z</time>
      </trkpt>
      <trkpt lat="47.29105" lon="5.05045">
        <ele>234</ele>
        <time>2012-01-15T08:06:55Z</time>
      </trkpt>
      <trkpt lat="47.29128" lon="5.04993">
        <ele>235</ele>
        <time>2012-01-15T08:07:03Z</time>
      </trkpt>
      <trkpt lat="47.29143" lon="5.04958">
        <ele>235</ele>
        <time>2012-01-15T08:07:09Z</time>
      </trkpt>
      <trkpt lat="47.29152" lon="5.04935">
        <ele>235</ele>
        <time>2012-01-15T08:07:14Z</time>
      </trkpt>
      <trkpt lat="47.29158" lon="5.0491">
        <ele>235</ele>
        <time>2012-01-15T08:07:18Z</time>
      </trkpt>
      <trkpt lat="47.29163" lon="5.04877">
        <ele>235</ele>
        <time>2012-01-15T08:07:22Z</time>
      </trkpt>
      <trkpt lat="47.29167" lon="5.0485">
        <ele>236</ele>
        <time>2012-01-15T08:07:26Z</time>
      </trkpt>
      <trkpt lat="47.2917" lon="5.04825">
        <ele>239</ele>
        <time>2012-01-15T08:07:30Z</time>
      </trkpt>
      <trkpt lat="47.29172" lon="5.048">
        <ele>241</ele>
        <time>2012-01-15T08:07:35Z</time>
      </trkpt>
      <trkpt lat="47.29173" lon="5.0474">
        <ele>242</ele>
        <time>2012-01-15T08:07:43Z</time>
      </trkpt>
      <trkpt lat="47.29177" lon="5.047">
        <ele>242</ele>
        <time>2012-01-15T08:07:49Z</time>
      </trkpt>
      <trkpt lat="47.29178" lon="5.04673">
        <ele>241</ele>
        <time>2012-01-15T08:07:53Z</time>
      </trkpt>
      <trkpt lat="47.29182" lon="5.04648">
        <ele>242</ele>
        <time>2012-01-15T08:07:58Z</time>
      </trkpt>
      <trkpt lat="47.29185" lon="5.04622">
        <ele>243</ele>
        <time>2012-01-15T08:08:02Z</time>
      </trkpt>
      <trkpt lat="47.29188" lon="5.04575">
        <ele>246</ele>
        <time>2012-01-15T08:08:08Z</time>
      </trkpt>
      <trkpt lat="47.29195" lon="5.04535">
        <ele>242</ele>
        <time>2012-01-15T08:08:14Z</time>
      </trkpt>
      <trkpt lat="47.29203" lon="5.04512">
        <ele>240</ele>
        <time>2012-01-15T08:08:18Z</time>
      </trkpt>
      <trkpt lat="47.29217" lon="5.04492">
        <ele>239</ele>
        <time>2012-01-15T08:08:22Z</time>
      </trkpt>
      <trkpt lat="47.29227" lon="5.04473">
        <ele>238</ele>
        <time>2012-01-15T08:08:27Z</time>
      </trkpt>
      <trkpt lat="47.29227" lon="5.0445">
        <ele>238</ele>
        <time>2012-01-15T08:08:31Z</time>
      </trkpt>
      <trkpt lat="47.29228" lon="5.0442">
        <ele>237</ele>
        <time>2012-01-15T08:08:35Z</time>
      </trkpt>
      <trkpt lat="47.29232" lon="5.04382">
        <ele>237</ele>
        <time>2012-01-15T08:08:39Z</time>
      </trkpt>
      <trkpt lat="47.29233" lon="5.04353">
        <ele>237</ele>
        <time>2012-01-15T08:08:43Z</time>
      </trkpt>
      <trkpt lat="47.29237" lon="5.04313">
        <ele>237</ele>
        <time>2012-01-15T08:08:49Z</time>
      </trkpt>
      <trkpt lat="47.29238" lon="5.0429">
        <ele>238</ele>
        <time>2012-01-15T08:08:53Z</time>
      </trkpt>
      <trkpt lat="47.29245" lon="5.04263">
        <ele>239</ele>
        <time>2012-01-15T08:09:00Z</time>
      </trkpt>
      <trkpt lat="47.2926" lon="5.04245">
        <ele>238</ele>
        <time>2012-01-15T08:09:04Z</time>
      </trkpt>
      <trkpt lat="47.29293" lon="5.04203">
        <ele>238</ele>
        <time>2012-01-15T08:09:14Z</time>
      </trkpt>
      <trkpt lat="47.29322" lon="5.0417">
        <ele>238</ele>
        <time>2012-01-15T08:09:22Z</time>
      </trkpt>
      <trkpt lat="47.29337" lon="5.04152">
        <ele>238</ele>
        <time>2012-01-15T08:09:27Z</time>
      </trkpt>
      <trkpt lat="47.29383" lon="5.0409">
        <ele>238</ele>
        <time>2012-01-15T08:09:39Z</time>
      </trkpt>
      <trkpt lat="47.294" lon="5.04063">
        <ele>238</ele>
        <time>2012-01-15T08:09:45Z</time>
      </trkpt>
      <trkpt lat="47.29412" lon="5.04042">
        <ele>237</ele>
        <time>2012-01-15T08:09:52Z</time>
      </trkpt>
      <trkpt lat="47.2943" lon="5.0403">
        <ele>238</ele>
        <time>2012-01-15T08:09:56Z</time>
      </trkpt>
      <trkpt lat="47.29443" lon="5.04012">
        <ele>238</ele>
        <time>2012-01-15T08:10:00Z</time>
      </trkpt>
      <trkpt lat="47.29458" lon="5.03995">
        <ele>238</ele>
        <time>2012-01-15T08:10:04Z</time>
      </trkpt>
      <trkpt lat="47.29473" lon="5.03977">
        <ele>237</ele>
        <time>2012-01-15T08:10:08Z</time>
      </trkpt>
      <trkpt lat="47.29488" lon="5.03955">
        <ele>237</ele>
        <time>2012-01-15T08:10:12Z</time>
      </trkpt>
      <trkpt lat="47.29503" lon="5.03938">
        <ele>238</ele>
        <time>2012-01-15T08:10:17Z</time>
      </trkpt>
      <trkpt lat="47.29518" lon="5.03922">
        <ele>237</ele>
        <time>2012-01-15T08:10:21Z</time>
      </trkpt>
      <trkpt lat="47.29537" lon="5.03898">
        <ele>237</ele>
        <time>2012-01-15T08:10:25Z</time>
      </trkpt>
      <trkpt lat="47.29698" lon="5.037">
        <ele>240</ele>
        <time>2012-01-15T08:11:09Z</time>
      </trkpt>
      <trkpt lat="47.2979" lon="5.03593">
        <ele>239</ele>
        <time>2012-01-15T08:11:34Z</time>
      </trkpt>
      <trkpt lat="47.29807" lon="5.0358">
        <ele>239</ele>
        <time>2012-01-15T08:11:38Z</time>
      </trkpt>
      <trkpt lat="47.2983" lon="5.03563">
        <ele>240</ele>
        <time>2012-01-15T08:11:44Z</time>
      </trkpt>
      <trkpt lat="47.29872" lon="5.03537">
        <ele>242</ele>
        <time>2012-01-15T08:11:53Z</time>
      </trkpt>
      <trkpt lat="47.299" lon="5.0352">
        <ele>245</ele>
        <time>2012-01-15T08:11:59Z</time>
      </trkpt>
      <trkpt lat="47.29945" lon="5.03497">
        <ele>248</ele>
        <time>2012-01-15T08:12:10Z</time>
      </trkpt>
      <trkpt lat="47.30028" lon="5.03447">
        <ele>245</ele>
        <time>2012-01-15T08:12:28Z</time>
      </trkpt>
      <trkpt lat="47.30063" lon="5.03425">
        <ele>246</ele>
        <time>2012-01-15T08:12:37Z</time>
      </trkpt>
      <trkpt lat="47.30157" lon="5.0337">
        <ele>247</ele>
        <time>2012-01-15T08:12:58Z</time>
      </trkpt>
      <trkpt lat="47.30417" lon="5.03217">
        <ele>239</ele>
        <time>2012-01-15T08:13:54Z</time>
      </trkpt>
      <trkpt lat="47.30527" lon="5.03152">
        <ele>238</ele>
        <time>2012-01-15T08:14:20Z</time>
      </trkpt>
      <trkpt lat="47.30557" lon="5.03133">
        <ele>237</ele>
        <time>2012-01-15T08:14:26Z</time>
      </trkpt>
      <trkpt lat="47.30583" lon="5.03117">
        <ele>237</ele>
        <time>2012-01-15T08:14:32Z</time>
      </trkpt>
      <trkpt lat="47.306" lon="5.03103">
        <ele>238</ele>
        <time>2012-01-15T08:14:36Z</time>
      </trkpt>
      <trkpt lat="47.30622" lon="5.03088">
        <ele>240</ele>
        <time>2012-01-15T08:14:43Z</time>
      </trkpt>
      <trkpt lat="47.30653" lon="5.03067">
        <ele>233</ele>
        <time>2012-01-15T08:14:51Z</time>
      </trkpt>
      <trkpt lat="47.30682" lon="5.03052">
        <ele>239</ele>
        <time>2012-01-15T08:14:55Z</time>
      </trkpt>
      <trkpt lat="47.30702" lon="5.03045">
        <ele>243</ele>
        <time>2012-01-15T08:14:59Z</time>
      </trkpt>
      <trkpt lat="47.30717" lon="5.03045">
        <ele>240</ele>
        <time>2012-01-15T08:15:04Z</time>
      </trkpt>
      <trkpt lat="47.30737" lon="5.03032">
        <ele>238</ele>
        <time>2012-01-15T08:15:08Z</time>
      </trkpt>
      <trkpt lat="47.30762" lon="5.03017">
        <ele>238</ele>
        <time>2012-01-15T08:15:12Z</time>
      </trkpt>
      <trkpt lat="47.3078" lon="5.03005">
        <ele>237</ele>
        <time>2012-01-15T08:15:16Z</time>
      </trkpt>
      <trkpt lat="47.30825" lon="5.02977">
        <ele>238</ele>
        <time>2012-01-15T08:15:27Z</time>
      </trkpt>
      <trkpt lat="47.31088" lon="5.02822">
        <ele>239</ele>
        <time>2012-01-15T08:16:17Z</time>
      </trkpt>
      <trkpt lat="47.3118" lon="5.02773">
        <ele>239</ele>
        <time>2012-01-15T08:16:36Z</time>
      </trkpt>
      <trkpt lat="47.31213" lon="5.02758">
        <ele>240</ele>
        <time>2012-01-15T08:16:44Z</time>
      </trkpt>
      <trkpt lat="47.31227" lon="5.0275">
        <ele>241</ele>
        <time>2012-01-15T08:16:51Z</time>
      </trkpt>
      <trkpt lat="47.31215" lon="5.02738">
        <ele>244</ele>
        <time>2012-01-15T08:16:57Z</time>
      </trkpt>
      <trkpt lat="47.31213" lon="5.02717">
        <ele>244</ele>
        <time>2012-01-15T08:17:07Z</time>
      </trkpt>
      <trkpt lat="47.31227" lon="5.02708">
        <ele>245</ele>
        <time>2012-01-15T08:17:14Z</time>
      </trkpt>
      <trkpt lat="47.31242" lon="5.02698">
        <ele>245</ele>
        <time>2012-01-15T08:17:18Z</time>
      </trkpt>
      <trkpt lat="47.31255" lon="5.02692">
        <ele>244</ele>
        <time>2012-01-15T08:17:22Z</time>
      </trkpt>
      <trkpt lat="47.31272" lon="5.02683">
        <ele>243</ele>
        <time>2012-01-15T08:17:26Z</time>
      </trkpt>
      <trkpt lat="47.31287" lon="5.02673">
        <ele>243</ele>
        <time>2012-01-15T08:17:30Z</time>
      </trkpt>
      <trkpt lat="47.31302" lon="5.02665">
        <ele>243</ele>
        <time>2012-01-15T08:17:35Z</time>
      </trkpt>
      <trkpt lat="47.3132" lon="5.02653">
        <ele>243</ele>
        <time>2012-01-15T08:17:39Z</time>
      </trkpt>
      <trkpt lat="47.31348" lon="5.02637">
        <ele>243</ele>
        <time>2012-01-15T08:17:47Z</time>
      </trkpt>
      <trkpt lat="47.31373" lon="5.02618">
        <ele>246</ele>
        <time>2012-01-15T08:17:55Z</time>
      </trkpt>
      <trkpt lat="47.31367" lon="5.02598">
        <ele>249</ele>
        <time>2012-01-15T08:18:00Z</time>
      </trkpt>
      <trkpt lat="47.3137" lon="5.02578">
        <ele>259</ele>
        <time>2012-01-15T08:18:04Z</time>
      </trkpt>
      <trkpt lat="47.31383" lon="5.02573">
        <ele>267</ele>
        <time>2012-01-15T08:18:08Z</time>
      </trkpt>
      <trkpt lat="47.31397" lon="5.02568">
        <ele>278</ele>
        <time>2012-01-15T08:18:12Z</time>
      </trkpt>
      <trkpt lat="47.3141" lon="5.02558">
        <ele>278</ele>
        <time>2012-01-15T08:18:16Z</time>
      </trkpt>
      <trkpt lat="47.31413" lon="5.02538">
        <ele>275</ele>
        <time>2012-01-15T08:18:21Z</time>
      </trkpt>
      <trkpt lat="47.31418" lon="5.0251">
        <ele>267</ele>
        <time>2012-01-15T08:18:25Z</time>
      </trkpt>
      <trkpt lat="47.31422" lon="5.02487">
        <ele>263</ele>
        <time>2012-01-15T08:18:29Z</time>
      </trkpt>
      <trkpt lat="47.31423" lon="5.02463">
        <ele>263</ele>
        <time>2012-01-15T08:18:33Z</time>
      </trkpt>
      <trkpt lat="47.31417" lon="5.02438">
        <ele>256</ele>
        <time>2012-01-15T08:18:37Z</time>
      </trkpt>
      <trkpt lat="47.31405" lon="5.02417">
        <ele>253</ele>
        <time>2012-01-15T08:18:42Z</time>
      </trkpt>
      <trkpt lat="47.31388" lon="5.02378">
        <ele>261</ele>
        <time>2012-01-15T08:18:48Z</time>
      </trkpt>
      <trkpt lat="47.31382" lon="5.02357">
        <ele>270</ele>
        <time>2012-01-15T08:18:52Z</time>
      </trkpt>
      <trkpt lat="47.31373" lon="5.0233">
        <ele>270</ele>
        <time>2012-01-15T08:18:58Z</time>
      </trkpt>
      <trkpt lat="47.31367" lon="5.02312">
        <ele>269</ele>
        <time>2012-01-15T08:19:03Z</time>
      </trkpt>
      <trkpt lat="47.31353" lon="5.02283">
        <ele>265</ele>
        <time>2012-01-15T08:19:07Z</time>
      </trkpt>
      <trkpt lat="47.31342" lon="5.02262">
        <ele>261</ele>
        <time>2012-01-15T08:19:11Z</time>
      </trkpt>
      <trkpt lat="47.3133" lon="5.02238">
        <ele>256</ele>
        <time>2012-01-15T08:19:15Z</time>
      </trkpt>
      <trkpt lat="47.31318" lon="5.02217">
        <ele>254</ele>
        <time>2012-01-15T08:19:19Z</time>
      </trkpt>
      <trkpt lat="47.31285" lon="5.02155">
        <ele>251</ele>
        <time>2012-01-15T08:19:30Z</time>
      </trkpt>
      <trkpt lat="47.31267" lon="5.02122">
        <ele>251</ele>
        <time>2012-01-15T08:19:36Z</time>
      </trkpt>
      <trkpt lat="47.3124" lon="5.02075">
        <ele>252</ele>
        <time>2012-01-15T08:19:45Z</time>
      </trkpt>
      <trkpt lat="47.31225" lon="5.02047">
        <ele>252</ele>
        <time>2012-01-15T08:19:49Z</time>
      </trkpt>
      <trkpt lat="47.31195" lon="5.0199">
        <ele>249</ele>
        <time>2012-01-15T08:19:59Z</time>
      </trkpt>
      <trkpt lat="47.31183" lon="5.01975">
        <ele>248</ele>
        <time>2012-01-15T08:20:03Z</time>
      </trkpt>
      <trkpt lat="47.31168" lon="5.01985">
        <ele>248</ele>
        <time>2012-01-15T08:20:08Z</time>
      </trkpt>
      <trkpt lat="47.31152" lon="5.01978">
        <ele>249</ele>
        <time>2012-01-15T08:20:12Z</time>
      </trkpt>
      <trkpt lat="47.31138" lon="5.01962">
        <ele>250</ele>
        <time>2012-01-15T08:20:16Z</time>
      </trkpt>
      <trkpt lat="47.31128" lon="5.01943">
        <ele>250</ele>
        <time>2012-01-15T08:20:20Z</time>
      </trkpt>
      <trkpt lat="47.31118" lon="5.0193">
        <ele>250</ele>
        <time>2012-01-15T08:20:22Z</time>
      </trkpt>
      <trkpt lat="47.31088" lon="5.01887">
        <ele>251</ele>
        <time>2012-01-15T08:20:32Z</time>
      </trkpt>
      <trkpt lat="47.31078" lon="5.01867">
        <ele>250</ele>
        <time>2012-01-15T08:20:36Z</time>
      </trkpt>
      <trkpt lat="47.31068" lon="5.01848">
        <ele>250</ele>
        <time>2012-01-15T08:20:40Z</time>
      </trkpt>
      <trkpt lat="47.31053" lon="5.01822">
        <ele>250</ele>
        <time>2012-01-15T08:20:47Z</time>
      </trkpt>
      <trkpt lat="47.3104" lon="5.01802">
        <ele>252</ele>
        <time>2012-01-15T08:20:51Z</time>
      </trkpt>
      <trkpt lat="47.31027" lon="5.01777">
        <ele>253</ele>
        <time>2012-01-15T08:20:57Z</time>
      </trkpt>
      <trkpt lat="47.31012" lon="5.01752">
        <ele>256</ele>
        <time>2012-01-15T08:21:03Z</time>
      </trkpt>
      <trkpt lat="47.30988" lon="5.01712">
        <ele>260</ele>
        <time>2012-01-15T08:21:14Z</time>
      </trkpt>
      <trkpt lat="47.30958" lon="5.0164">
        <ele>261</ele>
        <time>2012-01-15T08:21:32Z</time>
      </trkpt>
      <trkpt lat="47.30947" lon="5.0163">
        <ele>260</ele>
        <time>2012-01-15T08:21:36Z</time>
      </trkpt>
      <trkpt lat="47.30935" lon="5.0161">
        <ele>259</ele>
        <time>2012-01-15T08:21:41Z</time>
      </trkpt>
      <trkpt lat="47.30925" lon="5.0159">
        <ele>260</ele>
        <time>2012-01-15T08:21:45Z</time>
      </trkpt>
      <trkpt lat="47.30863" lon="5.01468">
        <ele>262</ele>
        <time>2012-01-15T08:22:05Z</time>
      </trkpt>
      <trkpt lat="47.3087" lon="5.01442">
        <ele>259</ele>
        <time>2012-01-15T08:22:10Z</time>
      </trkpt>
      <trkpt lat="47.30883" lon="5.01422">
        <ele>256</ele>
        <time>2012-01-15T08:22:14Z</time>
      </trkpt>
      <trkpt lat="47.30902" lon="5.01398">
        <ele>254</ele>
        <time>2012-01-15T08:22:18Z</time>
      </trkpt>
      <trkpt lat="47.3092" lon="5.01375">
        <ele>254</ele>
        <time>2012-01-15T08:22:24Z</time>
      </trkpt>
      <trkpt lat="47.30938" lon="5.0135">
        <ele>254</ele>
        <time>2012-01-15T08:22:30Z</time>
      </trkpt>
      <trkpt lat="47.30947" lon="5.01333">
        <ele>254</ele>
        <time>2012-01-15T08:22:35Z</time>
      </trkpt>
      <trkpt lat="47.30938" lon="5.01313">
        <ele>255</ele>
        <time>2012-01-15T08:22:39Z</time>
      </trkpt>
      <trkpt lat="47.30925" lon="5.01293">
        <ele>256</ele>
        <time>2012-01-15T08:22:43Z</time>
      </trkpt>
      <trkpt lat="47.30915" lon="5.01275">
        <ele>257</ele>
        <time>2012-01-15T08:22:47Z</time>
      </trkpt>
      <trkpt lat="47.30905" lon="5.01258">
        <ele>256</ele>
        <time>2012-01-15T08:22:51Z</time>
      </trkpt>
      <trkpt lat="47.30895" lon="5.01242">
        <ele>257</ele>
        <time>2012-01-15T08:22:56Z</time>
      </trkpt>
      <trkpt lat="47.30878" lon="5.01215">
        <ele>259</ele>
        <time>2012-01-15T08:23:02Z</time>
      </trkpt>
      <trkpt lat="47.3086" lon="5.01185">
        <ele>261</ele>
        <time>2012-01-15T08:23:08Z</time>
      </trkpt>
      <trkpt lat="47.30853" lon="5.01165">
        <ele>262</ele>
        <time>2012-01-15T08:23:12Z</time>
      </trkpt>
      <trkpt lat="47.3084" lon="5.01153">
        <ele>262</ele>
        <time>2012-01-15T08:23:16Z</time>
      </trkpt>
      <trkpt lat="47.30827" lon="5.01138">
        <ele>261</ele>
        <time>2012-01-15T08:23:20Z</time>
      </trkpt>
      <trkpt lat="47.30813" lon="5.01122">
        <ele>260</ele>
        <time>2012-01-15T08:23:25Z</time>
      </trkpt>
      <trkpt lat="47.30778" lon="5.01075">
        <ele>260</ele>
        <time>2012-01-15T08:23:35Z</time>
      </trkpt>
      <trkpt lat="47.30767" lon="5.0106">
        <ele>261</ele>
        <time>2012-01-15T08:23:39Z</time>
      </trkpt>
      <trkpt lat="47.30755" lon="5.01043">
        <ele>261</ele>
        <time>2012-01-15T08:23:43Z</time>
      </trkpt>
      <trkpt lat="47.30745" lon="5.01025">
        <ele>262</ele>
        <time>2012-01-15T08:23:48Z</time>
      </trkpt>
      <trkpt lat="47.30715" lon="5.00975">
        <ele>264</ele>
        <time>2012-01-15T08:23:58Z</time>
      </trkpt>
      <trkpt lat="47.30695" lon="5.00938">
        <ele>263</ele>
        <time>2012-01-15T08:24:06Z</time>
      </trkpt>
      <trkpt lat="47.30682" lon="5.00928">
        <ele>262</ele>
        <time>2012-01-15T08:24:11Z</time>
      </trkpt>
      <trkpt lat="47.30665" lon="5.00923">
        <ele>262</ele>
        <time>2012-01-15T08:24:15Z</time>
      </trkpt>
      <trkpt lat="47.30645" lon="5.00925">
        <ele>261</ele>
        <time>2012-01-15T08:24:19Z</time>
      </trkpt>
      <trkpt lat="47.30632" lon="5.00912">
        <ele>262</ele>
        <time>2012-01-15T08:24:29Z</time>
      </trkpt>
      <trkpt lat="47.30618" lon="5.00908">
        <ele>262</ele>
        <time>2012-01-15T08:24:33Z</time>
      </trkpt>
      <trkpt lat="47.30607" lon="5.00898">
        <ele>262</ele>
        <time>2012-01-15T08:24:37Z</time>
      </trkpt>
      <trkpt lat="47.30593" lon="5.00892">
        <ele>262</ele>
        <time>2012-01-15T08:24:42Z</time>
      </trkpt>
      <trkpt lat="47.3058" lon="5.00882">
        <ele>261</ele>
        <time>2012-01-15T08:24:46Z</time>
      </trkpt>
      <trkpt lat="47.3056" lon="5.0087">
        <ele>262</ele>
        <time>2012-01-15T08:24:50Z</time>
      </trkpt>
      <trkpt lat="47.30547" lon="5.0086">
        <ele>263</ele>
        <time>2012-01-15T08:24:54Z</time>
      </trkpt>
      <trkpt lat="47.30532" lon="5.00848">
        <ele>263</ele>
        <time>2012-01-15T08:24:58Z</time>
      </trkpt>
      <trkpt lat="47.30518" lon="5.00835">
        <ele>263</ele>
        <time>2012-01-15T08:25:03Z</time>
      </trkpt>
      <trkpt lat="47.30477" lon="5.00795">
        <ele>266</ele>
        <time>2012-01-15T08:25:15Z</time>
      </trkpt>
      <trkpt lat="47.30463" lon="5.00777">
        <ele>268</ele>
        <time>2012-01-15T08:25:22Z</time>
      </trkpt>
      <trkpt lat="47.30447" lon="5.00758">
        <ele>270</ele>
        <time>2012-01-15T08:25:28Z</time>
      </trkpt>
      <trkpt lat="47.30432" lon="5.00738">
        <ele>274</ele>
        <time>2012-01-15T08:25:36Z</time>
      </trkpt>
      <trkpt lat="47.30433" lon="5.00712">
        <ele>273</ele>
        <time>2012-01-15T08:25:43Z</time>
      </trkpt>
      <trkpt lat="47.30438" lon="5.00672">
        <ele>269</ele>
        <time>2012-01-15T08:25:51Z</time>
      </trkpt>
      <trkpt lat="47.30448" lon="5.0065">
        <ele>268</ele>
        <time>2012-01-15T08:25:57Z</time>
      </trkpt>
      <trkpt lat="47.30463" lon="5.00632">
        <ele>267</ele>
        <time>2012-01-15T08:26:03Z</time>
      </trkpt>
      <trkpt lat="47.30475" lon="5.00613">
        <ele>267</ele>
        <time>2012-01-15T08:26:10Z</time>
      </trkpt>
      <trkpt lat="47.30477" lon="5.00593">
        <ele>267</ele>
        <time>2012-01-15T08:26:14Z</time>
      </trkpt>
      <trkpt lat="47.30475" lon="5.00572">
        <ele>269</ele>
        <time>2012-01-15T08:26:20Z</time>
      </trkpt>
      <trkpt lat="47.30473" lon="5.00552">
        <ele>270</ele>
        <time>2012-01-15T08:26:27Z</time>
      </trkpt>
      <trkpt lat="47.30473" lon="5.0053">
        <ele>272</ele>
        <time>2012-01-15T08:26:33Z</time>
      </trkpt>
      <trkpt lat="47.30473" lon="5.00495">
        <ele>274</ele>
        <time>2012-01-15T08:26:45Z</time>
      </trkpt>
      <trkpt lat="47.30457" lon="5.00483">
        <ele>276</ele>
        <time>2012-01-15T08:26:54Z</time>
      </trkpt>
      <trkpt lat="47.30437" lon="5.00483">
        <ele>277</ele>
        <time>2012-01-15T08:27:00Z</time>
      </trkpt>
      <trkpt lat="47.30417" lon="5.00482">
        <ele>277</ele>
        <time>2012-01-15T08:27:06Z</time>
      </trkpt>
      <trkpt lat="47.30402" lon="5.0048">
        <ele>277</ele>
        <time>2012-01-15T08:27:10Z</time>
      </trkpt>
      <trkpt lat="47.30388" lon="5.00488">
        <ele>277</ele>
        <time>2012-01-15T08:27:15Z</time>
      </trkpt>
      <trkpt lat="47.30368" lon="5.00487">
        <ele>277</ele>
        <time>2012-01-15T08:27:19Z</time>
      </trkpt>
      <trkpt lat="47.3035" lon="5.0048">
        <ele>278</ele>
        <time>2012-01-15T08:27:25Z</time>
      </trkpt>
      <trkpt lat="47.30332" lon="5.00475">
        <ele>278</ele>
        <time>2012-01-15T08:27:32Z</time>
      </trkpt>
      <trkpt lat="47.30315" lon="5.00467">
        <ele>279</ele>
        <time>2012-01-15T08:27:38Z</time>
      </trkpt>
      <trkpt lat="47.30302" lon="5.00458">
        <ele>280</ele>
        <time>2012-01-15T08:27:42Z</time>
      </trkpt>
      <trkpt lat="47.30292" lon="5.00442">
        <ele>282</ele>
        <time>2012-01-15T08:27:50Z</time>
      </trkpt>
      <trkpt lat="47.30292" lon="5.0042">
        <ele>285</ele>
        <time>2012-01-15T08:27:59Z</time>
      </trkpt>
      <trkpt lat="47.30288" lon="5.00397">
        <ele>289</ele>
        <time>2012-01-15T08:28:07Z</time>
      </trkpt>
      <trkpt lat="47.30277" lon="5.00383">
        <ele>291</ele>
        <time>2012-01-15T08:28:16Z</time>
      </trkpt>
      <trkpt lat="47.3026" lon="5.00375">
        <ele>291</ele>
        <time>2012-01-15T08:28:22Z</time>
      </trkpt>
      <trkpt lat="47.30245" lon="5.00367">
        <ele>291</ele>
        <time>2012-01-15T08:28:26Z</time>
      </trkpt>
      <trkpt lat="47.30227" lon="5.00355">
        <ele>291</ele>
        <time>2012-01-15T08:28:32Z</time>
      </trkpt>
      <trkpt lat="47.30188" lon="5.00332">
        <ele>289</ele>
        <time>2012-01-15T08:28:43Z</time>
      </trkpt>
      <trkpt lat="47.30175" lon="5.00327">
        <ele>289</ele>
        <time>2012-01-15T08:28:45Z</time>
      </trkpt>
      <trkpt lat="47.30162" lon="5.00317">
        <ele>290</ele>
        <time>2012-01-15T08:28:49Z</time>
      </trkpt>
      <trkpt lat="47.30152" lon="5.00303">
        <ele>291</ele>
        <time>2012-01-15T08:28:53Z</time>
      </trkpt>
      <trkpt lat="47.30135" lon="5.00288">
        <ele>293</ele>
        <time>2012-01-15T08:29:00Z</time>
      </trkpt>
      <trkpt lat="47.30113" lon="5.00275">
        <ele>292</ele>
        <time>2012-01-15T08:29:06Z</time>
      </trkpt>
      <trkpt lat="47.30097" lon="5.00267">
        <ele>291</ele>
        <time>2012-01-15T08:29:10Z</time>
      </trkpt>
      <trkpt lat="47.30078" lon="5.00255">
        <ele>291</ele>
        <time>2012-01-15T08:29:14Z</time>
      </trkpt>
      <trkpt lat="47.30062" lon="5.00238">
        <ele>290</ele>
        <time>2012-01-15T08:29:18Z</time>
      </trkpt>
      <trkpt lat="47.3002" lon="5.00195">
        <ele>291</ele>
        <time>2012-01-15T08:29:29Z</time>
      </trkpt>
      <trkpt lat="47.30008" lon="5.00177">
        <ele>292</ele>
        <time>2012-01-15T08:29:33Z</time>
      </trkpt>
      <trkpt lat="47.30008" lon="5.00155">
        <ele>292</ele>
        <time>2012-01-15T08:29:37Z</time>
      </trkpt>
      <trkpt lat="47.30012" lon="5.00125">
        <ele>292</ele>
        <time>2012-01-15T08:29:46Z</time>
      </trkpt>
      <trkpt lat="47.29997" lon="5.00118">
        <ele>293</ele>
        <time>2012-01-15T08:29:50Z</time>
      </trkpt>
      <trkpt lat="47.29977" lon="5.00118">
        <ele>293</ele>
        <time>2012-01-15T08:29:56Z</time>
      </trkpt>
      <trkpt lat="47.29957" lon="5.00118">
        <ele>294</ele>
        <time>2012-01-15T08:30:03Z</time>
      </trkpt>
      <trkpt lat="47.29927" lon="5.0012">
        <ele>295</ele>
        <time>2012-01-15T08:30:11Z</time>
      </trkpt>
      <trkpt lat="47.29912" lon="5.00122">
        <ele>295</ele>
        <time>2012-01-15T08:30:15Z</time>
      </trkpt>
      <trkpt lat="47.29893" lon="5.00123">
        <ele>293</ele>
        <time>2012-01-15T08:30:20Z</time>
      </trkpt>
      <trkpt lat="47.2987" lon="5.00125">
        <ele>291</ele>
        <time>2012-01-15T08:30:24Z</time>
      </trkpt>
      <trkpt lat="47.29847" lon="5.00117">
        <ele>290</ele>
        <time>2012-01-15T08:30:28Z</time>
      </trkpt>
      <trkpt lat="47.29817" lon="5.00108">
        <ele>289</ele>
        <time>2012-01-15T08:30:32Z</time>
      </trkpt>
      <trkpt lat="47.29777" lon="5.00103">
        <ele>288</ele>
        <time>2012-01-15T08:30:38Z</time>
      </trkpt>
      <trkpt lat="47.29752" lon="5.00093">
        <ele>287</ele>
        <time>2012-01-15T08:30:42Z</time>
      </trkpt>
      <trkpt lat="47.29727" lon="5.00088">
        <ele>286</ele>
        <time>2012-01-15T08:30:47Z</time>
      </trkpt>
      <trkpt lat="47.29702" lon="5.00082">
        <ele>285</ele>
        <time>2012-01-15T08:30:51Z</time>
      </trkpt>
      <trkpt lat="47.29642" lon="5.00062">
        <ele>284</ele>
        <time>2012-01-15T08:31:01Z</time>
      </trkpt>
      <trkpt lat="47.29607" lon="5.00053">
        <ele>284</ele>
        <time>2012-01-15T08:31:10Z</time>
      </trkpt>
      <trkpt lat="47.29583" lon="5.00052">
        <ele>283</ele>
        <time>2012-01-15T08:31:14Z</time>
      </trkpt>
      <trkpt lat="47.29528" lon="5.00048">
        <ele>282</ele>
        <time>2012-01-15T08:31:24Z</time>
      </trkpt>
      <trkpt lat="47.2951" lon="5.00042">
        <ele>282</ele>
        <time>2012-01-15T08:31:29Z</time>
      </trkpt>
      <trkpt lat="47.2948" lon="5.00028">
        <ele>283</ele>
        <time>2012-01-15T08:31:35Z</time>
      </trkpt>
      <trkpt lat="47.29463" lon="5.00025">
        <ele>283</ele>
        <time>2012-01-15T08:31:39Z</time>
      </trkpt>
      <trkpt lat="47.29448" lon="5.0003">
        <ele>282</ele>
        <time>2012-01-15T08:31:43Z</time>
      </trkpt>
      <trkpt lat="47.29432" lon="5.0003">
        <ele>283</ele>
        <time>2012-01-15T08:31:47Z</time>
      </trkpt>
      <trkpt lat="47.29372" lon="5.00025">
        <ele>285</ele>
        <time>2012-01-15T08:32:06Z</time>
      </trkpt>
      <trkpt lat="47.29353" lon="5.00022">
        <ele>285</ele>
        <time>2012-01-15T08:32:12Z</time>
      </trkpt>
      <trkpt lat="47.2933" lon="5.0002">
        <ele>286</ele>
        <time>2012-01-15T08:32:21Z</time>
      </trkpt>
      <trkpt lat="47.29315" lon="5.00017">
        <ele>286</ele>
        <time>2012-01-15T08:32:25Z</time>
      </trkpt>
      <trkpt lat="47.2931" lon="4.99997">
        <ele>287</ele>
        <time>2012-01-15T08:32:31Z</time>
      </trkpt>
      <trkpt lat="47.29315" lon="4.99977">
        <ele>288</ele>
        <time>2012-01-15T08:32:36Z</time>
      </trkpt>
      <trkpt lat="47.2931" lon="4.99955">
        <ele>290</ele>
        <time>2012-01-15T08:32:44Z</time>
      </trkpt>
      <trkpt lat="47.29292" lon="4.9995">
        <ele>290</ele>
        <time>2012-01-15T08:32:50Z</time>
      </trkpt>
      <trkpt lat="47.29275" lon="4.99945">
        <ele>289</ele>
        <time>2012-01-15T08:32:56Z</time>
      </trkpt>
      <trkpt lat="47.29257" lon="4.99938">
        <ele>289</ele>
        <time>2012-01-15T08:33:03Z</time>
      </trkpt>
      <trkpt lat="47.29242" lon="4.99933">
        <ele>289</ele>
        <time>2012-01-15T08:33:09Z</time>
      </trkpt>
      <trkpt lat="47.29233" lon="4.99957">
        <ele>289</ele>
        <time>2012-01-15T08:33:17Z</time>
      </trkpt>
      <trkpt lat="47.2923" lon="4.99985">
        <ele>288</ele>
        <time>2012-01-15T08:33:21Z</time>
      </trkpt>
      <trkpt lat="47.29222" lon="5.00015">
        <ele>286</ele>
        <time>2012-01-15T08:33:25Z</time>
      </trkpt>
      <trkpt lat="47.29215" lon="5.00038">
        <ele>285</ele>
        <time>2012-01-15T08:33:29Z</time>
      </trkpt>
      <trkpt lat="47.29197" lon="5.00032">
        <ele>283</ele>
        <time>2012-01-15T08:33:36Z</time>
      </trkpt>
      <trkpt lat="47.29183" lon="5.00023">
        <ele>280</ele>
        <time>2012-01-15T08:33:40Z</time>
      </trkpt>
      <trkpt lat="47.29163" lon="5.00015">
        <ele>279</ele>
        <time>2012-01-15T08:33:44Z</time>
      </trkpt>
      <trkpt lat="47.29135" lon="5.00007">
        <ele>279</ele>
        <time>2012-01-15T08:33:50Z</time>
      </trkpt>
      <trkpt lat="47.291" lon="4.99993">
        <ele>278</ele>
        <time>2012-01-15T08:33:59Z</time>
      </trkpt>
      <trkpt lat="47.29087" lon="4.99987">
        <ele>279</ele>
        <time>2012-01-15T08:34:05Z</time>
      </trkpt>
      <trkpt lat="47.29075" lon="4.99973">
        <ele>280</ele>
        <time>2012-01-15T08:34:09Z</time>
      </trkpt>
      <trkpt lat="47.29062" lon="4.99963">
        <ele>279</ele>
        <time>2012-01-15T08:34:13Z</time>
      </trkpt>
      <trkpt lat="47.29045" lon="4.99953">
        <ele>279</ele>
        <time>2012-01-15T08:34:18Z</time>
      </trkpt>
      <trkpt lat="47.29028" lon="4.99942">
        <ele>279</ele>
        <time>2012-01-15T08:34:22Z</time>
      </trkpt>
      <trkpt lat="47.29007" lon="4.99925">
        <ele>280</ele>
        <time>2012-01-15T08:34:26Z</time>
      </trkpt>
      <trkpt lat="47.2899" lon="4.99913">
        <ele>280</ele>
        <time>2012-01-15T08:34:30Z</time>
      </trkpt>
      <trkpt lat="47.28972" lon="4.99902">
        <ele>280</ele>
        <time>2012-01-15T08:34:34Z</time>
      </trkpt>
      <trkpt lat="47.28945" lon="4.99888">
        <ele>281</ele>
        <time>2012-01-15T08:34:40Z</time>
      </trkpt>
      <trkpt lat="47.28927" lon="4.99882">
        <ele>282</ele>
        <time>2012-01-15T08:34:45Z</time>
      </trkpt>
      <trkpt lat="47.28845" lon="4.9985">
        <ele>284</ele>
        <time>2012-01-15T08:35:03Z</time>
      </trkpt>
      <trkpt lat="47.2883" lon="4.99842">
        <ele>284</ele>
        <time>2012-01-15T08:35:07Z</time>
      </trkpt>
      <trkpt lat="47.28815" lon="4.99833">
        <ele>284</ele>
        <time>2012-01-15T08:35:12Z</time>
      </trkpt>
      <trkpt lat="47.28798" lon="4.99827">
        <ele>284</ele>
        <time>2012-01-15T08:35:16Z</time>
      </trkpt>
      <trkpt lat="47.28757" lon="4.99808">
        <ele>285</ele>
        <time>2012-01-15T08:35:24Z</time>
      </trkpt>
      <trkpt lat="47.28738" lon="4.99798">
        <ele>285</ele>
        <time>2012-01-15T08:35:28Z</time>
      </trkpt>
      <trkpt lat="47.28722" lon="4.99785">
        <ele>285</ele>
        <time>2012-01-15T08:35:32Z</time>
      </trkpt>
      <trkpt lat="47.28697" lon="4.99763">
        <ele>286</ele>
        <time>2012-01-15T08:35:39Z</time>
      </trkpt>
      <trkpt lat="47.28663" lon="4.99737">
        <ele>286</ele>
        <time>2012-01-15T08:35:47Z</time>
      </trkpt>
      <trkpt lat="47.2865" lon="4.9973">
        <ele>286</ele>
        <time>2012-01-15T08:35:49Z</time>
      </trkpt>
      <trkpt lat="47.2861" lon="4.99708">
        <ele>286</ele>
        <time>2012-01-15T08:35:59Z</time>
      </trkpt>
      <trkpt lat="47.28562" lon="4.99678">
        <ele>288</ele>
        <time>2012-01-15T08:36:12Z</time>
      </trkpt>
      <trkpt lat="47.2855" lon="4.99663">
        <ele>289</ele>
        <time>2012-01-15T08:36:16Z</time>
      </trkpt>
      <trkpt lat="47.28547" lon="4.99643">
        <ele>289</ele>
        <time>2012-01-15T08:36:20Z</time>
      </trkpt>
      <trkpt lat="47.28533" lon="4.99622">
        <ele>289</ele>
        <time>2012-01-15T08:36:26Z</time>
      </trkpt>
      <trkpt lat="47.28518" lon="4.99613">
        <ele>290</ele>
        <time>2012-01-15T08:36:31Z</time>
      </trkpt>
      <trkpt lat="47.285" lon="4.99598">
        <ele>290</ele>
        <time>2012-01-15T08:36:35Z</time>
      </trkpt>
      <trkpt lat="47.2849" lon="4.99583">
        <ele>290</ele>
        <time>2012-01-15T08:36:39Z</time>
      </trkpt>
      <trkpt lat="47.28482" lon="4.99565">
        <ele>291</ele>
        <time>2012-01-15T08:36:43Z</time>
      </trkpt>
      <trkpt lat="47.2847" lon="4.99538">
        <ele>291</ele>
        <time>2012-01-15T08:36:50Z</time>
      </trkpt>
      <trkpt lat="47.28458" lon="4.99517">
        <ele>292</ele>
        <time>2012-01-15T08:37:00Z</time>
      </trkpt>
      <trkpt lat="47.28448" lon="4.99502">
        <ele>292</ele>
        <time>2012-01-15T08:37:04Z</time>
      </trkpt>
      <trkpt lat="47.28432" lon="4.99478">
        <ele>292</ele>
        <time>2012-01-15T08:37:11Z</time>
      </trkpt>
      <trkpt lat="47.28418" lon="4.99463">
        <ele>293</ele>
        <time>2012-01-15T08:37:15Z</time>
      </trkpt>
      <trkpt lat="47.28378" lon="4.99413">
        <ele>292</ele>
        <time>2012-01-15T08:37:27Z</time>
      </trkpt>
      <trkpt lat="47.28365" lon="4.99398">
        <ele>292</ele>
        <time>2012-01-15T08:37:31Z</time>
      </trkpt>
      <trkpt lat="47.28352" lon="4.99382">
        <ele>292</ele>
        <time>2012-01-15T08:37:36Z</time>
      </trkpt>
      <trkpt lat="47.28337" lon="4.9936">
        <ele>292</ele>
        <time>2012-01-15T08:37:40Z</time>
      </trkpt>
      <trkpt lat="47.28313" lon="4.99327">
        <ele>292</ele>
        <time>2012-01-15T08:37:48Z</time>
      </trkpt>
      <trkpt lat="47.28302" lon="4.9931">
        <ele>292</ele>
        <time>2012-01-15T08:37:52Z</time>
      </trkpt>
      <trkpt lat="47.28287" lon="4.99293">
        <ele>291</ele>
        <time>2012-01-15T08:37:57Z</time>
      </trkpt>
      <trkpt lat="47.28253" lon="4.99255">
        <ele>291</ele>
        <time>2012-01-15T08:38:07Z</time>
      </trkpt>
      <trkpt lat="47.28247" lon="4.99235">
        <ele>292</ele>
        <time>2012-01-15T08:38:11Z</time>
      </trkpt>
      <trkpt lat="47.28235" lon="4.99213">
        <ele>291</ele>
        <time>2012-01-15T08:38:15Z</time>
      </trkpt>
      <trkpt lat="47.28205" lon="4.99152">
        <ele>291</ele>
        <time>2012-01-15T08:38:28Z</time>
      </trkpt>
      <trkpt lat="47.28192" lon="4.99128">
        <ele>292</ele>
        <time>2012-01-15T08:38:32Z</time>
      </trkpt>
      <trkpt lat="47.28147" lon="4.9905">
        <ele>291</ele>
        <time>2012-01-15T08:38:49Z</time>
      </trkpt>
      <trkpt lat="47.28125" lon="4.99013">
        <ele>291</ele>
        <time>2012-01-15T08:38:55Z</time>
      </trkpt>
      <trkpt lat="47.28107" lon="4.9898">
        <ele>291</ele>
        <time>2012-01-15T08:39:01Z</time>
      </trkpt>
      <trkpt lat="47.28093" lon="4.98958">
        <ele>291</ele>
        <time>2012-01-15T08:39:05Z</time>
      </trkpt>
      <trkpt lat="47.28067" lon="4.9892">
        <ele>291</ele>
        <time>2012-01-15T08:39:14Z</time>
      </trkpt>
      <trkpt lat="47.28052" lon="4.98895">
        <ele>291</ele>
        <time>2012-01-15T08:39:18Z</time>
      </trkpt>
      <trkpt lat="47.28033" lon="4.98865">
        <ele>291</ele>
        <time>2012-01-15T08:39:24Z</time>
      </trkpt>
      <trkpt lat="47.28025" lon="4.98845">
        <ele>292</ele>
        <time>2012-01-15T08:39:29Z</time>
      </trkpt>
      <trkpt lat="47.28015" lon="4.98827">
        <ele>292</ele>
        <time>2012-01-15T08:39:33Z</time>
      </trkpt>
      <trkpt lat="47.28007" lon="4.98805">
        <ele>292</ele>
        <time>2012-01-15T08:39:37Z</time>
      </trkpt>
      <trkpt lat="47.28017" lon="4.98785">
        <ele>293</ele>
        <time>2012-01-15T08:39:41Z</time>
      </trkpt>
      <trkpt lat="47.28028" lon="4.9877">
        <ele>292</ele>
        <time>2012-01-15T08:39:45Z</time>
      </trkpt>
      <trkpt lat="47.28045" lon="4.98747">
        <ele>292</ele>
        <time>2012-01-15T08:39:51Z</time>
      </trkpt>
      <trkpt lat="47.28055" lon="4.9873">
        <ele>292</ele>
        <time>2012-01-15T08:39:56Z</time>
      </trkpt>
      <trkpt lat="47.28083" lon="4.98683">
        <ele>292</ele>
        <time>2012-01-15T08:40:06Z</time>
      </trkpt>
      <trkpt lat="47.28093" lon="4.98665">
        <ele>293</ele>
        <time>2012-01-15T08:40:10Z</time>
      </trkpt>
      <trkpt lat="47.28122" lon="4.98617">
        <ele>293</ele>
        <time>2012-01-15T08:40:21Z</time>
      </trkpt>
      <trkpt lat="47.28133" lon="4.98605">
        <ele>294</ele>
        <time>2012-01-15T08:40:25Z</time>
      </trkpt>
      <trkpt lat="47.28148" lon="4.98605">
        <ele>294</ele>
        <time>2012-01-15T08:40:29Z</time>
      </trkpt>
      <trkpt lat="47.28163" lon="4.98615">
        <ele>295</ele>
        <time>2012-01-15T08:40:33Z</time>
      </trkpt>
      <trkpt lat="47.28177" lon="4.98622">
        <ele>296</ele>
        <time>2012-01-15T08:40:38Z</time>
      </trkpt>
      <trkpt lat="47.2819" lon="4.98613">
        <ele>294</ele>
        <time>2012-01-15T08:44:12Z</time>
      </trkpt>
      <trkpt lat="47.28202" lon="4.98597">
        <ele>295</ele>
        <time>2012-01-15T08:44:16Z</time>
      </trkpt>
      <trkpt lat="47.28215" lon="4.98577">
        <ele>296</ele>
        <time>2012-01-15T08:44:20Z</time>
      </trkpt>
      <trkpt lat="47.28228" lon="4.9856">
        <ele>297</ele>
        <time>2012-01-15T08:44:25Z</time>
      </trkpt>
      <trkpt lat="47.28242" lon="4.98542">
        <ele>298</ele>
        <time>2012-01-15T08:44:29Z</time>
      </trkpt>
      <trkpt lat="47.28263" lon="4.98505">
        <ele>299</ele>
        <time>2012-01-15T08:44:35Z</time>
      </trkpt>
      <trkpt lat="47.28275" lon="4.98482">
        <ele>300</ele>
        <time>2012-01-15T08:44:39Z</time>
      </trkpt>
      <trkpt lat="47.28282" lon="4.98455">
        <ele>300</ele>
        <time>2012-01-15T08:44:44Z</time>
      </trkpt>
      <trkpt lat="47.2829" lon="4.98423">
        <ele>300</ele>
        <time>2012-01-15T08:44:48Z</time>
      </trkpt>
      <trkpt lat="47.28303" lon="4.984">
        <ele>300</ele>
        <time>2012-01-15T08:44:52Z</time>
      </trkpt>
      <trkpt lat="47.28315" lon="4.98388">
        <ele>300</ele>
        <time>2012-01-15T08:44:54Z</time>
      </trkpt>
      <trkpt lat="47.2833" lon="4.98382">
        <ele>301</ele>
        <time>2012-01-15T08:44:58Z</time>
      </trkpt>
      <trkpt lat="47.28343" lon="4.98372">
        <ele>303</ele>
        <time>2012-01-15T08:45:02Z</time>
      </trkpt>
      <trkpt lat="47.28345" lon="4.9835">
        <ele>304</ele>
        <time>2012-01-15T08:45:09Z</time>
      </trkpt>
      <trkpt lat="47.28343" lon="4.9833">
        <ele>302</ele>
        <time>2012-01-15T08:45:13Z</time>
      </trkpt>
      <trkpt lat="47.28353" lon="4.9831">
        <ele>302</ele>
        <time>2012-01-15T08:45:17Z</time>
      </trkpt>
      <trkpt lat="47.28362" lon="4.9829">
        <ele>302</ele>
        <time>2012-01-15T08:45:23Z</time>
      </trkpt>
      <trkpt lat="47.28348" lon="4.98278">
        <ele>302</ele>
        <time>2012-01-15T08:45:29Z</time>
      </trkpt>
      <trkpt lat="47.2833" lon="4.98265">
        <ele>301</ele>
        <time>2012-01-15T08:45:36Z</time>
      </trkpt>
      <trkpt lat="47.28317" lon="4.98252">
        <ele>300</ele>
        <time>2012-01-15T08:45:40Z</time>
      </trkpt>
      <trkpt lat="47.28298" lon="4.98238">
        <ele>300</ele>
        <time>2012-01-15T08:45:46Z</time>
      </trkpt>
      <trkpt lat="47.28282" lon="4.98227">
        <ele>299</ele>
        <time>2012-01-15T08:45:53Z</time>
      </trkpt>
      <trkpt lat="47.28267" lon="4.98212">
        <ele>300</ele>
        <time>2012-01-15T08:45:59Z</time>
      </trkpt>
      <trkpt lat="47.28195" lon="4.98142">
        <ele>299</ele>
        <time>2012-01-15T08:46:20Z</time>
      </trkpt>
      <trkpt lat="47.28153" lon="4.9811">
        <ele>298</ele>
        <time>2012-01-15T08:46:30Z</time>
      </trkpt>
      <trkpt lat="47.28137" lon="4.98102">
        <ele>297</ele>
        <time>2012-01-15T08:46:34Z</time>
      </trkpt>
      <trkpt lat="47.28113" lon="4.98088">
        <ele>298</ele>
        <time>2012-01-15T08:46:41Z</time>
      </trkpt>
      <trkpt lat="47.28098" lon="4.98078">
        <ele>298</ele>
        <time>2012-01-15T08:46:45Z</time>
      </trkpt>
      <trkpt lat="47.28083" lon="4.98065">
        <ele>299</ele>
        <time>2012-01-15T08:46:49Z</time>
      </trkpt>
      <trkpt lat="47.28072" lon="4.98052">
        <ele>299</ele>
        <time>2012-01-15T08:46:53Z</time>
      </trkpt>
      <trkpt lat="47.28055" lon="4.98037">
        <ele>299</ele>
        <time>2012-01-15T08:46:59Z</time>
      </trkpt>
      <trkpt lat="47.28065" lon="4.98012">
        <ele>301</ele>
        <time>2012-01-15T08:47:06Z</time>
      </trkpt>
      <trkpt lat="47.28075" lon="4.97992">
        <ele>302</ele>
        <time>2012-01-15T08:47:10Z</time>
      </trkpt>
      <trkpt lat="47.28095" lon="4.9795">
        <ele>303</ele>
        <time>2012-01-15T08:47:20Z</time>
      </trkpt>
      <trkpt lat="47.28108" lon="4.97928">
        <ele>304</ele>
        <time>2012-01-15T08:47:27Z</time>
      </trkpt>
      <trkpt lat="47.28118" lon="4.97913">
        <ele>304</ele>
        <time>2012-01-15T08:47:31Z</time>
      </trkpt>
      <trkpt lat="47.2813" lon="4.979">
        <ele>304</ele>
        <time>2012-01-15T08:47:35Z</time>
      </trkpt>
      <trkpt lat="47.28145" lon="4.97885">
        <ele>305</ele>
        <time>2012-01-15T08:47:41Z</time>
      </trkpt>
      <trkpt lat="47.2815" lon="4.97862">
        <ele>306</ele>
        <time>2012-01-15T08:47:48Z</time>
      </trkpt>
      <trkpt lat="47.28145" lon="4.97842">
        <ele>307</ele>
        <time>2012-01-15T08:47:52Z</time>
      </trkpt>
      <trkpt lat="47.28133" lon="4.97822">
        <ele>308</ele>
        <time>2012-01-15T08:47:56Z</time>
      </trkpt>
      <trkpt lat="47.28123" lon="4.97808">
        <ele>309</ele>
        <time>2012-01-15T08:48:00Z</time>
      </trkpt>
      <trkpt lat="47.28113" lon="4.97795">
        <ele>309</ele>
        <time>2012-01-15T08:48:04Z</time>
      </trkpt>
      <trkpt lat="47.28102" lon="4.97783">
        <ele>310</ele>
        <time>2012-01-15T08:48:08Z</time>
      </trkpt>
      <trkpt lat="47.28085" lon="4.97763">
        <ele>310</ele>
        <time>2012-01-15T08:48:17Z</time>
      </trkpt>
      <trkpt lat="47.28073" lon="4.97752">
        <ele>310</ele>
        <time>2012-01-15T08:48:23Z</time>
      </trkpt>
      <trkpt lat="47.28062" lon="4.97737">
        <ele>311</ele>
        <time>2012-01-15T08:48:31Z</time>
      </trkpt>
      <trkpt lat="47.2805" lon="4.97723">
        <ele>312</ele>
        <time>2012-01-15T08:48:40Z</time>
      </trkpt>
      <trkpt lat="47.28038" lon="4.97713">
        <ele>313</ele>
        <time>2012-01-15T08:48:46Z</time>
      </trkpt>
      <trkpt lat="47.28027" lon="4.97698">
        <ele>314</ele>
        <time>2012-01-15T08:48:54Z</time>
      </trkpt>
      <trkpt lat="47.2802" lon="4.9768">
        <ele>316</ele>
        <time>2012-01-15T08:49:03Z</time>
      </trkpt>
      <trkpt lat="47.2802" lon="4.97655">
        <ele>323</ele>
        <time>2012-01-15T08:49:11Z</time>
      </trkpt>
      <trkpt lat="47.2802" lon="4.97633">
        <ele>332</ele>
        <time>2012-01-15T08:49:21Z</time>
      </trkpt>
      <trkpt lat="47.28027" lon="4.97608">
        <ele>340</ele>
        <time>2012-01-15T08:49:32Z</time>
      </trkpt>
      <trkpt lat="47.2803" lon="4.97588">
        <ele>343</ele>
        <time>2012-01-15T08:49:40Z</time>
      </trkpt>
      <trkpt lat="47.28035" lon="4.97565">
        <ele>343</ele>
        <time>2012-01-15T08:49:49Z</time>
      </trkpt>
      <trkpt lat="47.2804" lon="4.97545">
        <ele>343</ele>
        <time>2012-01-15T08:49:55Z</time>
      </trkpt>
      <trkpt lat="47.28045" lon="4.9751">
        <ele>345</ele>
        <time>2012-01-15T08:50:08Z</time>
      </trkpt>
      <trkpt lat="47.28048" lon="4.97485">
        <ele>347</ele>
        <time>2012-01-15T08:50:16Z</time>
      </trkpt>
      <trkpt lat="47.2805" lon="4.97465">
        <ele>348</ele>
        <time>2012-01-15T08:50:24Z</time>
      </trkpt>
      <trkpt lat="47.28053" lon="4.97443">
        <ele>348</ele>
        <time>2012-01-15T08:50:33Z</time>
      </trkpt>
      <trkpt lat="47.28055" lon="4.97422">
        <ele>348</ele>
        <time>2012-01-15T08:50:39Z</time>
      </trkpt>
      <trkpt lat="47.28058" lon="4.9739">
        <ele>349</ele>
        <time>2012-01-15T08:50:49Z</time>
      </trkpt>
      <trkpt lat="47.28065" lon="4.9735">
        <ele>350</ele>
        <time>2012-01-15T08:51:02Z</time>
      </trkpt>
      <trkpt lat="47.28068" lon="4.97327">
        <ele>350</ele>
        <time>2012-01-15T08:51:08Z</time>
      </trkpt>
      <trkpt lat="47.28072" lon="4.97305">
        <ele>354</ele>
        <time>2012-01-15T08:51:16Z</time>
      </trkpt>
      <trkpt lat="47.28073" lon="4.97285">
        <ele>352</ele>
        <time>2012-01-15T08:51:23Z</time>
      </trkpt>
      <trkpt lat="47.28078" lon="4.97263">
        <ele>356</ele>
        <time>2012-01-15T08:51:31Z</time>
      </trkpt>
      <trkpt lat="47.28083" lon="4.97225">
        <ele>361</ele>
        <time>2012-01-15T08:51:48Z</time>
      </trkpt>
      <trkpt lat="47.28085" lon="4.97202">
        <ele>360</ele>
        <time>2012-01-15T08:51:56Z</time>
      </trkpt>
      <trkpt lat="47.28088" lon="4.97182">
        <ele>360</ele>
        <time>2012-01-15T08:52:05Z</time>
      </trkpt>
      <trkpt lat="47.28092" lon="4.97153">
        <ele>362</ele>
        <time>2012-01-15T08:52:15Z</time>
      </trkpt>
      <trkpt lat="47.28095" lon="4.97133">
        <ele>364</ele>
        <time>2012-01-15T08:52:23Z</time>
      </trkpt>
      <trkpt lat="47.28098" lon="4.97108">
        <ele>367</ele>
        <time>2012-01-15T08:52:34Z</time>
      </trkpt>
      <trkpt lat="47.28102" lon="4.97085">
        <ele>368</ele>
        <time>2012-01-15T08:52:42Z</time>
      </trkpt>
      <trkpt lat="47.28103" lon="4.97058">
        <ele>370</ele>
        <time>2012-01-15T08:52:53Z</time>
      </trkpt>
      <trkpt lat="47.28102" lon="4.97037">
        <ele>371</ele>
        <time>2012-01-15T08:53:01Z</time>
      </trkpt>
      <trkpt lat="47.28105" lon="4.97017">
        <ele>374</ele>
        <time>2012-01-15T08:53:09Z</time>
      </trkpt>
      <trkpt lat="47.28113" lon="4.97">
        <ele>373</ele>
        <time>2012-01-15T08:53:18Z</time>
      </trkpt>
      <trkpt lat="47.2812" lon="4.96982">
        <ele>372</ele>
        <time>2012-01-15T08:53:24Z</time>
      </trkpt>
      <trkpt lat="47.28125" lon="4.9696">
        <ele>372</ele>
        <time>2012-01-15T08:53:32Z</time>
      </trkpt>
      <trkpt lat="47.2813" lon="4.96937">
        <ele>376</ele>
        <time>2012-01-15T08:53:43Z</time>
      </trkpt>
      <trkpt lat="47.28137" lon="4.96905">
        <ele>376</ele>
        <time>2012-01-15T08:53:55Z</time>
      </trkpt>
      <trkpt lat="47.2814" lon="4.96885">
        <ele>377</ele>
        <time>2012-01-15T08:54:04Z</time>
      </trkpt>
      <trkpt lat="47.28147" lon="4.96853">
        <ele>380</ele>
        <time>2012-01-15T08:54:16Z</time>
      </trkpt>
      <trkpt lat="47.2815" lon="4.96832">
        <ele>379</ele>
        <time>2012-01-15T08:54:25Z</time>
      </trkpt>
      <trkpt lat="47.28155" lon="4.96808">
        <ele>381</ele>
        <time>2012-01-15T08:54:33Z</time>
      </trkpt>
      <trkpt lat="47.28157" lon="4.96788">
        <ele>380</ele>
        <time>2012-01-15T08:54:41Z</time>
      </trkpt>
      <trkpt lat="47.28162" lon="4.96765">
        <ele>378</ele>
        <time>2012-01-15T08:54:50Z</time>
      </trkpt>
      <trkpt lat="47.28167" lon="4.96737">
        <ele>377</ele>
        <time>2012-01-15T08:55:00Z</time>
      </trkpt>
      <trkpt lat="47.28173" lon="4.96718">
        <ele>381</ele>
        <time>2012-01-15T08:55:09Z</time>
      </trkpt>
      <trkpt lat="47.28175" lon="4.96695">
        <ele>382</ele>
        <time>2012-01-15T08:55:17Z</time>
      </trkpt>
      <trkpt lat="47.28158" lon="4.96697">
        <ele>386</ele>
        <time>2012-01-15T08:55:34Z</time>
      </trkpt>
      <trkpt lat="47.28148" lon="4.9671">
        <ele>390</ele>
        <time>2012-01-15T08:55:42Z</time>
      </trkpt>
      <trkpt lat="47.2814" lon="4.96727">
        <ele>389</ele>
        <time>2012-01-15T08:55:51Z</time>
      </trkpt>
      <trkpt lat="47.28135" lon="4.96747">
        <ele>391</ele>
        <time>2012-01-15T08:55:59Z</time>
      </trkpt>
      <trkpt lat="47.28128" lon="4.96767">
        <ele>394</ele>
        <time>2012-01-15T08:56:10Z</time>
      </trkpt>
      <trkpt lat="47.28118" lon="4.96785">
        <ele>393</ele>
        <time>2012-01-15T08:56:18Z</time>
      </trkpt>
      <trkpt lat="47.2811" lon="4.96803">
        <ele>396</ele>
        <time>2012-01-15T08:56:28Z</time>
      </trkpt>
      <trkpt lat="47.28103" lon="4.96823">
        <ele>396</ele>
        <time>2012-01-15T08:56:37Z</time>
      </trkpt>
      <trkpt lat="47.28095" lon="4.9684">
        <ele>396</ele>
        <time>2012-01-15T08:56:43Z</time>
      </trkpt>
      <trkpt lat="47.28088" lon="4.9686">
        <ele>397</ele>
        <time>2012-01-15T08:56:51Z</time>
      </trkpt>
      <trkpt lat="47.28082" lon="4.96878">
        <ele>398</ele>
        <time>2012-01-15T08:57:00Z</time>
      </trkpt>
      <trkpt lat="47.28072" lon="4.96897">
        <ele>399</ele>
        <time>2012-01-15T08:57:08Z</time>
      </trkpt>
      <trkpt lat="47.28062" lon="4.96912">
        <ele>399</ele>
        <time>2012-01-15T08:57:16Z</time>
      </trkpt>
      <trkpt lat="47.2805" lon="4.96925">
        <ele>399</ele>
        <time>2012-01-15T08:57:25Z</time>
      </trkpt>
      <trkpt lat="47.28037" lon="4.96935">
        <ele>401</ele>
        <time>2012-01-15T08:57:33Z</time>
      </trkpt>
      <trkpt lat="47.28023" lon="4.96938">
        <ele>403</ele>
        <time>2012-01-15T08:57:42Z</time>
      </trkpt>
      <trkpt lat="47.28008" lon="4.96948">
        <ele>409</ele>
        <time>2012-01-15T08:57:52Z</time>
      </trkpt>
      <trkpt lat="47.27995" lon="4.96963">
        <ele>409</ele>
        <time>2012-01-15T08:58:00Z</time>
      </trkpt>
      <trkpt lat="47.27988" lon="4.96983">
        <ele>411</ele>
        <time>2012-01-15T08:58:09Z</time>
      </trkpt>
      <trkpt lat="47.27985" lon="4.97003">
        <ele>413</ele>
        <time>2012-01-15T08:58:17Z</time>
      </trkpt>
      <trkpt lat="47.2798" lon="4.97032">
        <ele>413</ele>
        <time>2012-01-15T08:58:30Z</time>
      </trkpt>
      <trkpt lat="47.27977" lon="4.97057">
        <ele>411</ele>
        <time>2012-01-15T08:58:38Z</time>
      </trkpt>
      <trkpt lat="47.2797" lon="4.97078">
        <ele>409</ele>
        <time>2012-01-15T08:58:47Z</time>
      </trkpt>
      <trkpt lat="47.27963" lon="4.97098">
        <ele>410</ele>
        <time>2012-01-15T08:58:55Z</time>
      </trkpt>
      <trkpt lat="47.27957" lon="4.97118">
        <ele>410</ele>
        <time>2012-01-15T08:59:03Z</time>
      </trkpt>
      <trkpt lat="47.2795" lon="4.97137">
        <ele>411</ele>
        <time>2012-01-15T08:59:12Z</time>
      </trkpt>
      <trkpt lat="47.27943" lon="4.97155">
        <ele>409</ele>
        <time>2012-01-15T08:59:18Z</time>
      </trkpt>
      <trkpt lat="47.27932" lon="4.97173">
        <ele>410</ele>
        <time>2012-01-15T08:59:28Z</time>
      </trkpt>
      <trkpt lat="47.2792" lon="4.97193">
        <ele>410</ele>
        <time>2012-01-15T08:59:39Z</time>
      </trkpt>
      <trkpt lat="47.2791" lon="4.9721">
        <ele>409</ele>
        <time>2012-01-15T08:59:47Z</time>
      </trkpt>
      <trkpt lat="47.27897" lon="4.97222">
        <ele>408</ele>
        <time>2012-01-15T08:59:55Z</time>
      </trkpt>
      <trkpt lat="47.27883" lon="4.97233">
        <ele>408</ele>
        <time>2012-01-15T09:00:04Z</time>
      </trkpt>
      <trkpt lat="47.27868" lon="4.97243">
        <ele>408</ele>
        <time>2012-01-15T09:00:12Z</time>
      </trkpt>
      <trkpt lat="47.27855" lon="4.97253">
        <ele>408</ele>
        <time>2012-01-15T09:00:20Z</time>
      </trkpt>
      <trkpt lat="47.27842" lon="4.97263">
        <ele>410</ele>
        <time>2012-01-15T09:00:29Z</time>
      </trkpt>
      <trkpt lat="47.27827" lon="4.97272">
        <ele>411</ele>
        <time>2012-01-15T09:00:37Z</time>
      </trkpt>
      <trkpt lat="47.27813" lon="4.97275">
        <ele>411</ele>
        <time>2012-01-15T09:00:43Z</time>
      </trkpt>
      <trkpt lat="47.27798" lon="4.97275">
        <ele>411</ele>
        <time>2012-01-15T09:00:50Z</time>
      </trkpt>
      <trkpt lat="47.27782" lon="4.9727">
        <ele>413</ele>
        <time>2012-01-15T09:00:56Z</time>
      </trkpt>
      <trkpt lat="47.27768" lon="4.97262">
        <ele>415</ele>
        <time>2012-01-15T09:01:04Z</time>
      </trkpt>
      <trkpt lat="47.27755" lon="4.97248">
        <ele>417</ele>
        <time>2012-01-15T09:01:13Z</time>
      </trkpt>
      <trkpt lat="47.27742" lon="4.97232">
        <ele>418</ele>
        <time>2012-01-15T09:01:21Z</time>
      </trkpt>
      <trkpt lat="47.27732" lon="4.97217">
        <ele>420</ele>
        <time>2012-01-15T09:01:29Z</time>
      </trkpt>
      <trkpt lat="47.27725" lon="4.97192">
        <ele>422</ele>
        <time>2012-01-15T09:01:40Z</time>
      </trkpt>
      <trkpt lat="47.2773" lon="4.97168">
        <ele>423</ele>
        <time>2012-01-15T09:01:48Z</time>
      </trkpt>
      <trkpt lat="47.27742" lon="4.97153">
        <ele>425</ele>
        <time>2012-01-15T09:01:56Z</time>
      </trkpt>
      <trkpt lat="47.27755" lon="4.97137">
        <ele>426</ele>
        <time>2012-01-15T09:02:05Z</time>
      </trkpt>
      <trkpt lat="47.27765" lon="4.97122">
        <ele>427</ele>
        <time>2012-01-15T09:02:13Z</time>
      </trkpt>
      <trkpt lat="47.27783" lon="4.97097">
        <ele>428</ele>
        <time>2012-01-15T09:02:26Z</time>
      </trkpt>
      <trkpt lat="47.27792" lon="4.97078">
        <ele>430</ele>
        <time>2012-01-15T09:02:34Z</time>
      </trkpt>
      <trkpt lat="47.278" lon="4.97058">
        <ele>431</ele>
        <time>2012-01-15T09:02:43Z</time>
      </trkpt>
      <trkpt lat="47.27807" lon="4.97038">
        <ele>431</ele>
        <time>2012-01-15T09:02:49Z</time>
      </trkpt>
      <trkpt lat="47.27812" lon="4.97017">
        <ele>432</ele>
        <time>2012-01-15T09:02:57Z</time>
      </trkpt>
      <trkpt lat="47.27822" lon="4.96972">
        <ele>432</ele>
        <time>2012-01-15T09:03:14Z</time>
      </trkpt>
      <trkpt lat="47.27827" lon="4.96952">
        <ele>433</ele>
        <time>2012-01-15T09:03:22Z</time>
      </trkpt>
      <trkpt lat="47.2783" lon="4.96932">
        <ele>434</ele>
        <time>2012-01-15T09:03:31Z</time>
      </trkpt>
      <trkpt lat="47.27837" lon="4.96897">
        <ele>435</ele>
        <time>2012-01-15T09:03:43Z</time>
      </trkpt>
      <trkpt lat="47.27843" lon="4.96872">
        <ele>436</ele>
        <time>2012-01-15T09:03:54Z</time>
      </trkpt>
      <trkpt lat="47.27847" lon="4.96852">
        <ele>436</ele>
        <time>2012-01-15T09:04:00Z</time>
      </trkpt>
      <trkpt lat="47.27847" lon="4.96832">
        <ele>438</ele>
        <time>2012-01-15T09:04:08Z</time>
      </trkpt>
      <trkpt lat="47.27838" lon="4.96813">
        <ele>441</ele>
        <time>2012-01-15T09:04:17Z</time>
      </trkpt>
      <trkpt lat="47.27825" lon="4.96803">
        <ele>443</ele>
        <time>2012-01-15T09:04:25Z</time>
      </trkpt>
      <trkpt lat="47.27812" lon="4.96795">
        <ele>446</ele>
        <time>2012-01-15T09:04:33Z</time>
      </trkpt>
      <trkpt lat="47.27795" lon="4.96785">
        <ele>448</ele>
        <time>2012-01-15T09:04:42Z</time>
      </trkpt>
      <trkpt lat="47.27777" lon="4.96773">
        <ele>451</ele>
        <time>2012-01-15T09:04:52Z</time>
      </trkpt>
      <trkpt lat="47.27763" lon="4.96765">
        <ele>453</ele>
        <time>2012-01-15T09:05:01Z</time>
      </trkpt>
      <trkpt lat="47.27745" lon="4.96755">
        <ele>453</ele>
        <time>2012-01-15T09:05:09Z</time>
      </trkpt>
      <trkpt lat="47.2773" lon="4.96745">
        <ele>452</ele>
        <time>2012-01-15T09:05:18Z</time>
      </trkpt>
      <trkpt lat="47.27715" lon="4.96735">
        <ele>454</ele>
        <time>2012-01-15T09:05:26Z</time>
      </trkpt>
      <trkpt lat="47.27693" lon="4.96722">
        <ele>454</ele>
        <time>2012-01-15T09:05:36Z</time>
      </trkpt>
      <trkpt lat="47.2768" lon="4.96712">
        <ele>454</ele>
        <time>2012-01-15T09:05:43Z</time>
      </trkpt>
      <trkpt lat="47.27667" lon="4.96695">
        <ele>455</ele>
        <time>2012-01-15T09:05:49Z</time>
      </trkpt>
      <trkpt lat="47.27657" lon="4.9668">
        <ele>457</ele>
        <time>2012-01-15T09:05:55Z</time>
      </trkpt>
      <trkpt lat="47.27648" lon="4.96658">
        <ele>459</ele>
        <time>2012-01-15T09:06:04Z</time>
      </trkpt>
      <trkpt lat="47.27642" lon="4.96637">
        <ele>458</ele>
        <time>2012-01-15T09:06:10Z</time>
      </trkpt>
      <trkpt lat="47.27635" lon="4.96613">
        <ele>460</ele>
        <time>2012-01-15T09:06:18Z</time>
      </trkpt>
      <trkpt lat="47.2763" lon="4.96592">
        <ele>460</ele>
        <time>2012-01-15T09:06:27Z</time>
      </trkpt>
      <trkpt lat="47.27627" lon="4.9657">
        <ele>461</ele>
        <time>2012-01-15T09:06:33Z</time>
      </trkpt>
      <trkpt lat="47.2762" lon="4.96547">
        <ele>462</ele>
        <time>2012-01-15T09:06:41Z</time>
      </trkpt>
      <trkpt lat="47.27612" lon="4.96513">
        <ele>464</ele>
        <time>2012-01-15T09:06:52Z</time>
      </trkpt>
      <trkpt lat="47.27603" lon="4.96477">
        <ele>466</ele>
        <time>2012-01-15T09:07:05Z</time>
      </trkpt>
      <trkpt lat="47.27595" lon="4.96447">
        <ele>468</ele>
        <time>2012-01-15T09:07:15Z</time>
      </trkpt>
      <trkpt lat="47.2759" lon="4.96427">
        <ele>472</ele>
        <time>2012-01-15T09:07:23Z</time>
      </trkpt>
      <trkpt lat="47.27585" lon="4.96397">
        <ele>475</ele>
        <time>2012-01-15T09:07:34Z</time>
      </trkpt>
      <trkpt lat="47.2758" lon="4.96377">
        <ele>477</ele>
        <time>2012-01-15T09:07:40Z</time>
      </trkpt>
      <trkpt lat="47.27578" lon="4.96357">
        <ele>478</ele>
        <time>2012-01-15T09:07:46Z</time>
      </trkpt>
      <trkpt lat="47.27575" lon="4.96328">
        <ele>478</ele>
        <time>2012-01-15T09:07:55Z</time>
      </trkpt>
      <trkpt lat="47.27575" lon="4.96308">
        <ele>478</ele>
        <time>2012-01-15T09:08:01Z</time>
      </trkpt>
      <trkpt lat="47.27575" lon="4.96288">
        <ele>476</ele>
        <time>2012-01-15T09:08:08Z</time>
      </trkpt>
      <trkpt lat="47.27573" lon="4.96268">
        <ele>476</ele>
        <time>2012-01-15T09:08:14Z</time>
      </trkpt>
      <trkpt lat="47.2756" lon="4.9626">
        <ele>477</ele>
        <time>2012-01-15T09:08:20Z</time>
      </trkpt>
      <trkpt lat="47.27545" lon="4.9625">
        <ele>478</ele>
        <time>2012-01-15T09:08:26Z</time>
      </trkpt>
      <trkpt lat="47.27528" lon="4.96242">
        <ele>478</ele>
        <time>2012-01-15T09:08:33Z</time>
      </trkpt>
      <trkpt lat="47.27475" lon="4.9621">
        <ele>472</ele>
        <time>2012-01-15T09:08:50Z</time>
      </trkpt>
      <trkpt lat="47.27452" lon="4.96197">
        <ele>469</ele>
        <time>2012-01-15T09:08:56Z</time>
      </trkpt>
      <trkpt lat="47.27437" lon="4.96188">
        <ele>467</ele>
        <time>2012-01-15T09:09:00Z</time>
      </trkpt>
      <trkpt lat="47.27368" lon="4.96148">
        <ele>460</ele>
        <time>2012-01-15T09:09:19Z</time>
      </trkpt>
      <trkpt lat="47.27333" lon="4.96125">
        <ele>457</ele>
        <time>2012-01-15T09:09:29Z</time>
      </trkpt>
      <trkpt lat="47.2729" lon="4.961">
        <ele>456</ele>
        <time>2012-01-15T09:09:40Z</time>
      </trkpt>
      <trkpt lat="47.27275" lon="4.96092">
        <ele>454</ele>
        <time>2012-01-15T09:09:44Z</time>
      </trkpt>
      <trkpt lat="47.27262" lon="4.96083">
        <ele>453</ele>
        <time>2012-01-15T09:09:48Z</time>
      </trkpt>
      <trkpt lat="47.27248" lon="4.96078">
        <ele>450</ele>
        <time>2012-01-15T09:09:56Z</time>
      </trkpt>
      <trkpt lat="47.27235" lon="4.96068">
        <ele>449</ele>
        <time>2012-01-15T09:10:05Z</time>
      </trkpt>
      <trkpt lat="47.27235" lon="4.96048">
        <ele>459</ele>
        <time>2012-01-15T09:10:26Z</time>
      </trkpt>
      <trkpt lat="47.27238" lon="4.96028">
        <ele>461</ele>
        <time>2012-01-15T09:10:45Z</time>
      </trkpt>
      <trkpt lat="47.27243" lon="4.96005">
        <ele>462</ele>
        <time>2012-01-15T09:10:55Z</time>
      </trkpt>
      <trkpt lat="47.27248" lon="4.9598">
        <ele>463</ele>
        <time>2012-01-15T09:11:06Z</time>
      </trkpt>
      <trkpt lat="47.27255" lon="4.95962">
        <ele>465</ele>
        <time>2012-01-15T09:11:12Z</time>
      </trkpt>
      <trkpt lat="47.27262" lon="4.95942">
        <ele>467</ele>
        <time>2012-01-15T09:11:18Z</time>
      </trkpt>
      <trkpt lat="47.2727" lon="4.9591">
        <ele>468</ele>
        <time>2012-01-15T09:11:29Z</time>
      </trkpt>
      <trkpt lat="47.27273" lon="4.95887">
        <ele>469</ele>
        <time>2012-01-15T09:11:37Z</time>
      </trkpt>
      <trkpt lat="47.27278" lon="4.95863">
        <ele>470</ele>
        <time>2012-01-15T09:11:45Z</time>
      </trkpt>
      <trkpt lat="47.27282" lon="4.95842">
        <ele>471</ele>
        <time>2012-01-15T09:11:52Z</time>
      </trkpt>
      <trkpt lat="47.27285" lon="4.95818">
        <ele>471</ele>
        <time>2012-01-15T09:11:58Z</time>
      </trkpt>
      <trkpt lat="47.27287" lon="4.95797">
        <ele>471</ele>
        <time>2012-01-15T09:12:04Z</time>
      </trkpt>
      <trkpt lat="47.27288" lon="4.95775">
        <ele>472</ele>
        <time>2012-01-15T09:12:10Z</time>
      </trkpt>
      <trkpt lat="47.2729" lon="4.95755">
        <ele>473</ele>
        <time>2012-01-15T09:12:17Z</time>
      </trkpt>
      <trkpt lat="47.27295" lon="4.95723">
        <ele>473</ele>
        <time>2012-01-15T09:12:25Z</time>
      </trkpt>
      <trkpt lat="47.27297" lon="4.95695">
        <ele>474</ele>
        <time>2012-01-15T09:12:33Z</time>
      </trkpt>
      <trkpt lat="47.27298" lon="4.9567">
        <ele>474</ele>
        <time>2012-01-15T09:12:40Z</time>
      </trkpt>
      <trkpt lat="47.27302" lon="4.95637">
        <ele>477</ele>
        <time>2012-01-15T09:12:48Z</time>
      </trkpt>
      <trkpt lat="47.27303" lon="4.95613">
        <ele>477</ele>
        <time>2012-01-15T09:12:54Z</time>
      </trkpt>
      <trkpt lat="47.27307" lon="4.95588">
        <ele>478</ele>
        <time>2012-01-15T09:13:00Z</time>
      </trkpt>
      <trkpt lat="47.27312" lon="4.95562">
        <ele>478</ele>
        <time>2012-01-15T09:13:07Z</time>
      </trkpt>
      <trkpt lat="47.2732" lon="4.9552">
        <ele>479</ele>
        <time>2012-01-15T09:13:15Z</time>
      </trkpt>
      <trkpt lat="47.27325" lon="4.95498">
        <ele>479</ele>
        <time>2012-01-15T09:13:19Z</time>
      </trkpt>
      <trkpt lat="47.27328" lon="4.95478">
        <ele>479</ele>
        <time>2012-01-15T09:13:23Z</time>
      </trkpt>
      <trkpt lat="47.27332" lon="4.95458">
        <ele>477</ele>
        <time>2012-01-15T09:13:30Z</time>
      </trkpt>
      <trkpt lat="47.2735" lon="4.95363">
        <ele>473</ele>
        <time>2012-01-15T09:13:49Z</time>
      </trkpt>
      <trkpt lat="47.27342" lon="4.95338">
        <ele>474</ele>
        <time>2012-01-15T09:13:55Z</time>
      </trkpt>
      <trkpt lat="47.27335" lon="4.95317">
        <ele>473</ele>
        <time>2012-01-15T09:13:59Z</time>
      </trkpt>
      <trkpt lat="47.27327" lon="4.953">
        <ele>473</ele>
        <time>2012-01-15T09:14:03Z</time>
      </trkpt>
      <trkpt lat="47.27308" lon="4.9526">
        <ele>472</ele>
        <time>2012-01-15T09:14:14Z</time>
      </trkpt>
      <trkpt lat="47.27287" lon="4.95217">
        <ele>473</ele>
        <time>2012-01-15T09:14:24Z</time>
      </trkpt>
      <trkpt lat="47.27277" lon="4.95192">
        <ele>475</ele>
        <time>2012-01-15T09:14:30Z</time>
      </trkpt>
      <trkpt lat="47.27265" lon="4.95178">
        <ele>476</ele>
        <time>2012-01-15T09:14:37Z</time>
      </trkpt>
      <trkpt lat="47.27248" lon="4.9519">
        <ele>475</ele>
        <time>2012-01-15T09:14:43Z</time>
      </trkpt>
      <trkpt lat="47.27235" lon="4.95195">
        <ele>473</ele>
        <time>2012-01-15T09:14:47Z</time>
      </trkpt>
      <trkpt lat="47.2722" lon="4.952">
        <ele>474</ele>
        <time>2012-01-15T09:14:53Z</time>
      </trkpt>
      <trkpt lat="47.27205" lon="4.95208">
        <ele>474</ele>
        <time>2012-01-15T09:15:00Z</time>
      </trkpt>
      <trkpt lat="47.27193" lon="4.95223">
        <ele>476</ele>
        <time>2012-01-15T09:15:06Z</time>
      </trkpt>
      <trkpt lat="47.27182" lon="4.95233">
        <ele>475</ele>
        <time>2012-01-15T09:15:10Z</time>
      </trkpt>
      <trkpt lat="47.2717" lon="4.95247">
        <ele>476</ele>
        <time>2012-01-15T09:15:16Z</time>
      </trkpt>
      <trkpt lat="47.27157" lon="4.95263">
        <ele>476</ele>
        <time>2012-01-15T09:15:23Z</time>
      </trkpt>
      <trkpt lat="47.2713" lon="4.95293">
        <ele>474</ele>
        <time>2012-01-15T09:15:31Z</time>
      </trkpt>
      <trkpt lat="47.27117" lon="4.95305">
        <ele>473</ele>
        <time>2012-01-15T09:15:35Z</time>
      </trkpt>
      <trkpt lat="47.27097" lon="4.95322">
        <ele>471</ele>
        <time>2012-01-15T09:15:41Z</time>
      </trkpt>
      <trkpt lat="47.27085" lon="4.95338">
        <ele>471</ele>
        <time>2012-01-15T09:15:46Z</time>
      </trkpt>
      <trkpt lat="47.2705" lon="4.95382">
        <ele>469</ele>
        <time>2012-01-15T09:15:56Z</time>
      </trkpt>
      <trkpt lat="47.2702" lon="4.9542">
        <ele>468</ele>
        <time>2012-01-15T09:16:04Z</time>
      </trkpt>
      <trkpt lat="47.26997" lon="4.95453">
        <ele>465</ele>
        <time>2012-01-15T09:16:11Z</time>
      </trkpt>
      <trkpt lat="47.26985" lon="4.95478">
        <ele>464</ele>
        <time>2012-01-15T09:16:15Z</time>
      </trkpt>
      <trkpt lat="47.26973" lon="4.95493">
        <ele>463</ele>
        <time>2012-01-15T09:16:19Z</time>
      </trkpt>
      <trkpt lat="47.26963" lon="4.95512">
        <ele>463</ele>
        <time>2012-01-15T09:16:23Z</time>
      </trkpt>
      <trkpt lat="47.26948" lon="4.95542">
        <ele>464</ele>
        <time>2012-01-15T09:16:29Z</time>
      </trkpt>
      <trkpt lat="47.26938" lon="4.95557">
        <ele>464</ele>
        <time>2012-01-15T09:16:34Z</time>
      </trkpt>
      <trkpt lat="47.26927" lon="4.9557">
        <ele>463</ele>
        <time>2012-01-15T09:16:38Z</time>
      </trkpt>
      <trkpt lat="47.26913" lon="4.95582">
        <ele>464</ele>
        <time>2012-01-15T09:16:42Z</time>
      </trkpt>
      <trkpt lat="47.26902" lon="4.95592">
        <ele>464</ele>
        <time>2012-01-15T09:16:46Z</time>
      </trkpt>
      <trkpt lat="47.26883" lon="4.9561">
        <ele>465</ele>
        <time>2012-01-15T09:16:55Z</time>
      </trkpt>
      <trkpt lat="47.26852" lon="4.95645">
        <ele>467</ele>
        <time>2012-01-15T09:17:07Z</time>
      </trkpt>
      <trkpt lat="47.2684" lon="4.95667">
        <ele>467</ele>
        <time>2012-01-15T09:17:14Z</time>
      </trkpt>
      <trkpt lat="47.26827" lon="4.9569">
        <ele>468</ele>
        <time>2012-01-15T09:17:20Z</time>
      </trkpt>
      <trkpt lat="47.26813" lon="4.95703">
        <ele>469</ele>
        <time>2012-01-15T09:17:24Z</time>
      </trkpt>
      <trkpt lat="47.26802" lon="4.95727">
        <ele>469</ele>
        <time>2012-01-15T09:17:30Z</time>
      </trkpt>
      <trkpt lat="47.26793" lon="4.95745">
        <ele>468</ele>
        <time>2012-01-15T09:17:34Z</time>
      </trkpt>
      <trkpt lat="47.26777" lon="4.95782">
        <ele>467</ele>
        <time>2012-01-15T09:17:43Z</time>
      </trkpt>
      <trkpt lat="47.26762" lon="4.95797">
        <ele>467</ele>
        <time>2012-01-15T09:17:47Z</time>
      </trkpt>
      <trkpt lat="47.2675" lon="4.95808">
        <ele>467</ele>
        <time>2012-01-15T09:17:51Z</time>
      </trkpt>
      <trkpt lat="47.26735" lon="4.95807">
        <ele>467</ele>
        <time>2012-01-15T09:17:55Z</time>
      </trkpt>
      <trkpt lat="47.26723" lon="4.95785">
        <ele>468</ele>
        <time>2012-01-15T09:18:02Z</time>
      </trkpt>
      <trkpt lat="47.26715" lon="4.95767">
        <ele>469</ele>
        <time>2012-01-15T09:18:06Z</time>
      </trkpt>
      <trkpt lat="47.26708" lon="4.95743">
        <ele>470</ele>
        <time>2012-01-15T09:18:12Z</time>
      </trkpt>
      <trkpt lat="47.26707" lon="4.95723">
        <ele>470</ele>
        <time>2012-01-15T09:18:17Z</time>
      </trkpt>
      <trkpt lat="47.26707" lon="4.95688">
        <ele>473</ele>
        <time>2012-01-15T09:18:25Z</time>
      </trkpt>
      <trkpt lat="47.26712" lon="4.9566">
        <ele>475</ele>
        <time>2012-01-15T09:18:33Z</time>
      </trkpt>
      <trkpt lat="47.26713" lon="4.9564">
        <ele>477</ele>
        <time>2012-01-15T09:18:40Z</time>
      </trkpt>
      <trkpt lat="47.26713" lon="4.95617">
        <ele>479</ele>
        <time>2012-01-15T09:18:46Z</time>
      </trkpt>
      <trkpt lat="47.26713" lon="4.9559">
        <ele>480</ele>
        <time>2012-01-15T09:18:54Z</time>
      </trkpt>
      <trkpt lat="47.26705" lon="4.95565">
        <ele>480</ele>
        <time>2012-01-15T09:19:03Z</time>
      </trkpt>
      <trkpt lat="47.26693" lon="4.95547">
        <ele>481</ele>
        <time>2012-01-15T09:19:07Z</time>
      </trkpt>
      <trkpt lat="47.26678" lon="4.95522">
        <ele>485</ele>
        <time>2012-01-15T09:19:15Z</time>
      </trkpt>
      <trkpt lat="47.26667" lon="4.95503">
        <ele>488</ele>
        <time>2012-01-15T09:19:22Z</time>
      </trkpt>
      <trkpt lat="47.26652" lon="4.95485">
        <ele>490</ele>
        <time>2012-01-15T09:19:28Z</time>
      </trkpt>
      <trkpt lat="47.26642" lon="4.95467">
        <ele>491</ele>
        <time>2012-01-15T09:19:34Z</time>
      </trkpt>
      <trkpt lat="47.26628" lon="4.9545">
        <ele>492</ele>
        <time>2012-01-15T09:19:41Z</time>
      </trkpt>
      <trkpt lat="47.26617" lon="4.95428">
        <ele>493</ele>
        <time>2012-01-15T09:19:47Z</time>
      </trkpt>
      <trkpt lat="47.26602" lon="4.95408">
        <ele>492</ele>
        <time>2012-01-15T09:19:53Z</time>
      </trkpt>
      <trkpt lat="47.2659" lon="4.95395">
        <ele>492</ele>
        <time>2012-01-15T09:19:57Z</time>
      </trkpt>
      <trkpt lat="47.26578" lon="4.95382">
        <ele>491</ele>
        <time>2012-01-15T09:20:02Z</time>
      </trkpt>
      <trkpt lat="47.26565" lon="4.95365">
        <ele>491</ele>
        <time>2012-01-15T09:20:06Z</time>
      </trkpt>
      <trkpt lat="47.26553" lon="4.95353">
        <ele>490</ele>
        <time>2012-01-15T09:20:10Z</time>
      </trkpt>
      <trkpt lat="47.26537" lon="4.95342">
        <ele>491</ele>
        <time>2012-01-15T09:20:16Z</time>
      </trkpt>
      <trkpt lat="47.26525" lon="4.9533">
        <ele>492</ele>
        <time>2012-01-15T09:20:21Z</time>
      </trkpt>
      <trkpt lat="47.2651" lon="4.95315">
        <ele>493</ele>
        <time>2012-01-15T09:20:27Z</time>
      </trkpt>
      <trkpt lat="47.26493" lon="4.95305">
        <ele>491</ele>
        <time>2012-01-15T09:20:31Z</time>
      </trkpt>
      <trkpt lat="47.26477" lon="4.95298">
        <ele>490</ele>
        <time>2012-01-15T09:20:37Z</time>
      </trkpt>
      <trkpt lat="47.26443" lon="4.95275">
        <ele>491</ele>
        <time>2012-01-15T09:20:50Z</time>
      </trkpt>
      <trkpt lat="47.26433" lon="4.9526">
        <ele>492</ele>
        <time>2012-01-15T09:20:56Z</time>
      </trkpt>
      <trkpt lat="47.26432" lon="4.95235">
        <ele>496</ele>
        <time>2012-01-15T09:21:05Z</time>
      </trkpt>
      <trkpt lat="47.26428" lon="4.95208">
        <ele>498</ele>
        <time>2012-01-15T09:21:11Z</time>
      </trkpt>
      <trkpt lat="47.26428" lon="4.95185">
        <ele>499</ele>
        <time>2012-01-15T09:21:17Z</time>
      </trkpt>
      <trkpt lat="47.26433" lon="4.95162">
        <ele>501</ele>
        <time>2012-01-15T09:21:24Z</time>
      </trkpt>
      <trkpt lat="47.26433" lon="4.95138">
        <ele>501</ele>
        <time>2012-01-15T09:21:30Z</time>
      </trkpt>
      <trkpt lat="47.26422" lon="4.95125">
        <ele>501</ele>
        <time>2012-01-15T09:21:36Z</time>
      </trkpt>
      <trkpt lat="47.26425" lon="4.95105">
        <ele>501</ele>
        <time>2012-01-15T09:21:47Z</time>
      </trkpt>
      <trkpt lat="47.26438" lon="4.95102">
        <ele>496</ele>
        <time>2012-01-15T09:21:57Z</time>
      </trkpt>
      <trkpt lat="47.26453" lon="4.95113">
        <ele>492</ele>
        <time>2012-01-15T09:22:10Z</time>
      </trkpt>
      <trkpt lat="47.26458" lon="4.9509">
        <ele>492</ele>
        <time>2012-01-15T09:22:33Z</time>
      </trkpt>
      <trkpt lat="47.26453" lon="4.9507">
        <ele>494</ele>
        <time>2012-01-15T09:22:39Z</time>
      </trkpt>
      <trkpt lat="47.26448" lon="4.9505">
        <ele>496</ele>
        <time>2012-01-15T09:22:46Z</time>
      </trkpt>
      <trkpt lat="47.2644" lon="4.95028">
        <ele>496</ele>
        <time>2012-01-15T09:22:52Z</time>
      </trkpt>
      <trkpt lat="47.26432" lon="4.9501">
        <ele>494</ele>
        <time>2012-01-15T09:22:56Z</time>
      </trkpt>
      <trkpt lat="47.26423" lon="4.9499">
        <ele>496</ele>
        <time>2012-01-15T09:23:02Z</time>
      </trkpt>
      <trkpt lat="47.26412" lon="4.94962">
        <ele>496</ele>
        <time>2012-01-15T09:23:11Z</time>
      </trkpt>
      <trkpt lat="47.26397" lon="4.94938">
        <ele>495</ele>
        <time>2012-01-15T09:23:17Z</time>
      </trkpt>
      <trkpt lat="47.2638" lon="4.94912">
        <ele>495</ele>
        <time>2012-01-15T09:23:25Z</time>
      </trkpt>
      <trkpt lat="47.26372" lon="4.94895">
        <ele>493</ele>
        <time>2012-01-15T09:23:30Z</time>
      </trkpt>
      <trkpt lat="47.26362" lon="4.94872">
        <ele>493</ele>
        <time>2012-01-15T09:23:36Z</time>
      </trkpt>
      <trkpt lat="47.26355" lon="4.94852">
        <ele>494</ele>
        <time>2012-01-15T09:23:40Z</time>
      </trkpt>
      <trkpt lat="47.26343" lon="4.94827">
        <ele>494</ele>
        <time>2012-01-15T09:23:46Z</time>
      </trkpt>
      <trkpt lat="47.26335" lon="4.94798">
        <ele>494</ele>
        <time>2012-01-15T09:23:53Z</time>
      </trkpt>
      <trkpt lat="47.26332" lon="4.94778">
        <ele>494</ele>
        <time>2012-01-15T09:23:57Z</time>
      </trkpt>
      <trkpt lat="47.26323" lon="4.94757">
        <ele>494</ele>
        <time>2012-01-15T09:24:01Z</time>
      </trkpt>
      <trkpt lat="47.26317" lon="4.9473">
        <ele>494</ele>
        <time>2012-01-15T09:24:07Z</time>
      </trkpt>
      <trkpt lat="47.2631" lon="4.94702">
        <ele>494</ele>
        <time>2012-01-15T09:24:14Z</time>
      </trkpt>
      <trkpt lat="47.26302" lon="4.94665">
        <ele>497</ele>
        <time>2012-01-15T09:24:22Z</time>
      </trkpt>
      <trkpt lat="47.26297" lon="4.94645">
        <ele>496</ele>
        <time>2012-01-15T09:24:26Z</time>
      </trkpt>
      <trkpt lat="47.26295" lon="4.94618">
        <ele>494</ele>
        <time>2012-01-15T09:24:33Z</time>
      </trkpt>
      <trkpt lat="47.26285" lon="4.94593">
        <ele>491</ele>
        <time>2012-01-15T09:24:39Z</time>
      </trkpt>
      <trkpt lat="47.26272" lon="4.94565">
        <ele>488</ele>
        <time>2012-01-15T09:24:45Z</time>
      </trkpt>
      <trkpt lat="47.26257" lon="4.94547">
        <ele>486</ele>
        <time>2012-01-15T09:24:51Z</time>
      </trkpt>
      <trkpt lat="47.26248" lon="4.9453">
        <ele>485</ele>
        <time>2012-01-15T09:24:56Z</time>
      </trkpt>
      <trkpt lat="47.26233" lon="4.9451">
        <ele>483</ele>
        <time>2012-01-15T09:25:02Z</time>
      </trkpt>
      <trkpt lat="47.26203" lon="4.94472">
        <ele>481</ele>
        <time>2012-01-15T09:25:12Z</time>
      </trkpt>
      <trkpt lat="47.26188" lon="4.94457">
        <ele>483</ele>
        <time>2012-01-15T09:25:19Z</time>
      </trkpt>
      <trkpt lat="47.26177" lon="4.94443">
        <ele>485</ele>
        <time>2012-01-15T09:25:27Z</time>
      </trkpt>
      <trkpt lat="47.26163" lon="4.94435">
        <ele>486</ele>
        <time>2012-01-15T09:26:28Z</time>
      </trkpt>
      <trkpt lat="47.26173" lon="4.94448">
        <ele>488</ele>
        <time>2012-01-15T09:28:06Z</time>
      </trkpt>
      <trkpt lat="47.26187" lon="4.94437">
        <ele>491</ele>
        <time>2012-01-15T09:28:38Z</time>
      </trkpt>
      <trkpt lat="47.26198" lon="4.94423">
        <ele>492</ele>
        <time>2012-01-15T09:28:44Z</time>
      </trkpt>
      <trkpt lat="47.26208" lon="4.94408">
        <ele>493</ele>
        <time>2012-01-15T09:28:52Z</time>
      </trkpt>
      <trkpt lat="47.26218" lon="4.94393">
        <ele>493</ele>
        <time>2012-01-15T09:29:11Z</time>
      </trkpt>
      <trkpt lat="47.2623" lon="4.94378">
        <ele>493</ele>
        <time>2012-01-15T09:29:17Z</time>
      </trkpt>
      <trkpt lat="47.26233" lon="4.94358">
        <ele>491</ele>
        <time>2012-01-15T09:29:24Z</time>
      </trkpt>
      <trkpt lat="47.26222" lon="4.94343">
        <ele>492</ele>
        <time>2012-01-15T09:29:30Z</time>
      </trkpt>
      <trkpt lat="47.2621" lon="4.94327">
        <ele>494</ele>
        <time>2012-01-15T09:29:36Z</time>
      </trkpt>
      <trkpt lat="47.26195" lon="4.94322">
        <ele>496</ele>
        <time>2012-01-15T09:29:42Z</time>
      </trkpt>
      <trkpt lat="47.2618" lon="4.9432">
        <ele>500</ele>
        <time>2012-01-15T09:29:49Z</time>
      </trkpt>
      <trkpt lat="47.26165" lon="4.94317">
        <ele>507</ele>
        <time>2012-01-15T09:30:07Z</time>
      </trkpt>
      <trkpt lat="47.26147" lon="4.94317">
        <ele>506</ele>
        <time>2012-01-15T09:30:16Z</time>
      </trkpt>
      <trkpt lat="47.2612" lon="4.94317">
        <ele>501</ele>
        <time>2012-01-15T09:30:24Z</time>
      </trkpt>
      <trkpt lat="47.26095" lon="4.94317">
        <ele>499</ele>
        <time>2012-01-15T09:30:35Z</time>
      </trkpt>
      <trkpt lat="47.2608" lon="4.94317">
        <ele>497</ele>
        <time>2012-01-15T09:30:41Z</time>
      </trkpt>
      <trkpt lat="47.26067" lon="4.94312">
        <ele>497</ele>
        <time>2012-01-15T09:30:49Z</time>
      </trkpt>
      <trkpt lat="47.26063" lon="4.9429">
        <ele>505</ele>
        <time>2012-01-15T09:31:02Z</time>
      </trkpt>
      <trkpt lat="47.26057" lon="4.94268">
        <ele>511</ele>
        <time>2012-01-15T09:31:15Z</time>
      </trkpt>
      <trkpt lat="47.26053" lon="4.94248">
        <ele>514</ele>
        <time>2012-01-15T09:31:25Z</time>
      </trkpt>
      <trkpt lat="47.26045" lon="4.94227">
        <ele>513</ele>
        <time>2012-01-15T09:31:38Z</time>
      </trkpt>
      <trkpt lat="47.26035" lon="4.94208">
        <ele>508</ele>
        <time>2012-01-15T09:31:46Z</time>
      </trkpt>
      <trkpt lat="47.26027" lon="4.94187">
        <ele>504</ele>
        <time>2012-01-15T09:31:56Z</time>
      </trkpt>
      <trkpt lat="47.26023" lon="4.94165">
        <ele>502</ele>
        <time>2012-01-15T09:32:07Z</time>
      </trkpt>
      <trkpt lat="47.26013" lon="4.94142">
        <ele>500</ele>
        <time>2012-01-15T09:32:17Z</time>
      </trkpt>
      <trkpt lat="47.26012" lon="4.94122">
        <ele>504</ele>
        <time>2012-01-15T09:32:28Z</time>
      </trkpt>
      <trkpt lat="47.26007" lon="4.94102">
        <ele>504</ele>
        <time>2012-01-15T09:32:38Z</time>
      </trkpt>
      <trkpt lat="47.26003" lon="4.9408">
        <ele>504</ele>
        <time>2012-01-15T09:32:51Z</time>
      </trkpt>
      <trkpt lat="47.26003" lon="4.9406">
        <ele>504</ele>
        <time>2012-01-15T09:32:59Z</time>
      </trkpt>
      <trkpt lat="47.26003" lon="4.9404">
        <ele>510</ele>
        <time>2012-01-15T09:33:09Z</time>
      </trkpt>
      <trkpt lat="47.26002" lon="4.94017">
        <ele>508</ele>
        <time>2012-01-15T09:33:20Z</time>
      </trkpt>
      <trkpt lat="47.26005" lon="4.93993">
        <ele>507</ele>
        <time>2012-01-15T09:33:30Z</time>
      </trkpt>
      <trkpt lat="47.26008" lon="4.9397">
        <ele>507</ele>
        <time>2012-01-15T09:33:41Z</time>
      </trkpt>
      <trkpt lat="47.26002" lon="4.93948">
        <ele>505</ele>
        <time>2012-01-15T09:34:00Z</time>
      </trkpt>
      <trkpt lat="47.25988" lon="4.93943">
        <ele>504</ele>
        <time>2012-01-15T09:34:10Z</time>
      </trkpt>
      <trkpt lat="47.2597" lon="4.93942">
        <ele>509</ele>
        <time>2012-01-15T09:34:27Z</time>
      </trkpt>
      <trkpt lat="47.25945" lon="4.93942">
        <ele>512</ele>
        <time>2012-01-15T09:34:45Z</time>
      </trkpt>
      <trkpt lat="47.25928" lon="4.9394">
        <ele>511</ele>
        <time>2012-01-15T09:34:58Z</time>
      </trkpt>
      <trkpt lat="47.2592" lon="4.9392">
        <ele>515</ele>
        <time>2012-01-15T09:35:11Z</time>
      </trkpt>
      <trkpt lat="47.25917" lon="4.939">
        <ele>519</ele>
        <time>2012-01-15T09:35:19Z</time>
      </trkpt>
      <trkpt lat="47.25918" lon="4.9388">
        <ele>520</ele>
        <time>2012-01-15T09:35:27Z</time>
      </trkpt>
      <trkpt lat="47.2592" lon="4.9385">
        <ele>519</ele>
        <time>2012-01-15T09:35:40Z</time>
      </trkpt>
      <trkpt lat="47.25918" lon="4.93822">
        <ele>516</ele>
        <time>2012-01-15T09:35:52Z</time>
      </trkpt>
      <trkpt lat="47.2592" lon="4.93802">
        <ele>519</ele>
        <time>2012-01-15T09:36:01Z</time>
      </trkpt>
      <trkpt lat="47.2592" lon="4.93782">
        <ele>520</ele>
        <time>2012-01-15T09:36:07Z</time>
      </trkpt>
      <trkpt lat="47.25918" lon="4.93758">
        <ele>523</ele>
        <time>2012-01-15T09:36:17Z</time>
      </trkpt>
      <trkpt lat="47.25918" lon="4.93732">
        <ele>524</ele>
        <time>2012-01-15T09:36:28Z</time>
      </trkpt>
      <trkpt lat="47.25918" lon="4.93703">
        <ele>524</ele>
        <time>2012-01-15T09:36:38Z</time>
      </trkpt>
      <trkpt lat="47.25918" lon="4.93668">
        <ele>525</ele>
        <time>2012-01-15T09:36:51Z</time>
      </trkpt>
      <trkpt lat="47.25917" lon="4.9364">
        <ele>524</ele>
        <time>2012-01-15T09:37:04Z</time>
      </trkpt>
      <trkpt lat="47.25918" lon="4.93615">
        <ele>523</ele>
        <time>2012-01-15T09:37:12Z</time>
      </trkpt>
      <trkpt lat="47.25918" lon="4.93595">
        <ele>525</ele>
        <time>2012-01-15T09:37:20Z</time>
      </trkpt>
      <trkpt lat="47.25918" lon="4.9357">
        <ele>528</ele>
        <time>2012-01-15T09:37:29Z</time>
      </trkpt>
      <trkpt lat="47.25918" lon="4.93548">
        <ele>528</ele>
        <time>2012-01-15T09:37:37Z</time>
      </trkpt>
      <trkpt lat="47.25918" lon="4.93528">
        <ele>528</ele>
        <time>2012-01-15T09:37:45Z</time>
      </trkpt>
      <trkpt lat="47.25918" lon="4.93508">
        <ele>529</ele>
        <time>2012-01-15T09:37:54Z</time>
      </trkpt>
      <trkpt lat="47.2592" lon="4.93482">
        <ele>530</ele>
        <time>2012-01-15T09:38:02Z</time>
      </trkpt>
      <trkpt lat="47.2592" lon="4.93462">
        <ele>530</ele>
        <time>2012-01-15T09:38:10Z</time>
      </trkpt>
      <trkpt lat="47.2591" lon="4.93448">
        <ele>530</ele>
        <time>2012-01-15T09:38:19Z</time>
      </trkpt>
      <trkpt lat="47.25898" lon="4.93435">
        <ele>532</ele>
        <time>2012-01-15T09:38:27Z</time>
      </trkpt>
      <trkpt lat="47.25888" lon="4.9342">
        <ele>532</ele>
        <time>2012-01-15T09:38:36Z</time>
      </trkpt>
      <trkpt lat="47.25875" lon="4.93402">
        <ele>532</ele>
        <time>2012-01-15T09:38:46Z</time>
      </trkpt>
      <trkpt lat="47.25848" lon="4.93373">
        <ele>528</ele>
        <time>2012-01-15T09:39:03Z</time>
      </trkpt>
      <trkpt lat="47.25837" lon="4.93362">
        <ele>528</ele>
        <time>2012-01-15T09:39:11Z</time>
      </trkpt>
      <trkpt lat="47.25818" lon="4.93338">
        <ele>528</ele>
        <time>2012-01-15T09:39:24Z</time>
      </trkpt>
      <trkpt lat="47.25807" lon="4.93325">
        <ele>530</ele>
        <time>2012-01-15T09:39:32Z</time>
      </trkpt>
      <trkpt lat="47.25797" lon="4.93308">
        <ele>532</ele>
        <time>2012-01-15T09:39:41Z</time>
      </trkpt>
      <trkpt lat="47.25798" lon="4.93287">
        <ele>531</ele>
        <time>2012-01-15T09:39:49Z</time>
      </trkpt>
      <trkpt lat="47.25805" lon="4.93267">
        <ele>531</ele>
        <time>2012-01-15T09:39:57Z</time>
      </trkpt>
      <trkpt lat="47.2581" lon="4.93245">
        <ele>531</ele>
        <time>2012-01-15T09:40:06Z</time>
      </trkpt>
      <trkpt lat="47.25818" lon="4.93223">
        <ele>533</ele>
        <time>2012-01-15T09:40:14Z</time>
      </trkpt>
      <trkpt lat="47.25825" lon="4.93205">
        <ele>533</ele>
        <time>2012-01-15T09:40:31Z</time>
      </trkpt>
      <trkpt lat="47.25828" lon="4.93185">
        <ele>535</ele>
        <time>2012-01-15T09:40:39Z</time>
      </trkpt>
      <trkpt lat="47.25832" lon="4.93165">
        <ele>536</ele>
        <time>2012-01-15T09:40:47Z</time>
      </trkpt>
      <trkpt lat="47.2584" lon="4.9314">
        <ele>537</ele>
        <time>2012-01-15T09:40:58Z</time>
      </trkpt>
      <trkpt lat="47.25847" lon="4.93118">
        <ele>539</ele>
        <time>2012-01-15T09:41:08Z</time>
      </trkpt>
      <trkpt lat="47.25857" lon="4.93095">
        <ele>538</ele>
        <time>2012-01-15T09:41:19Z</time>
      </trkpt>
      <trkpt lat="47.25867" lon="4.93073">
        <ele>539</ele>
        <time>2012-01-15T09:41:29Z</time>
      </trkpt>
      <trkpt lat="47.25875" lon="4.93057">
        <ele>540</ele>
        <time>2012-01-15T09:41:38Z</time>
      </trkpt>
      <trkpt lat="47.25883" lon="4.93035">
        <ele>539</ele>
        <time>2012-01-15T09:41:46Z</time>
      </trkpt>
      <trkpt lat="47.25892" lon="4.93013">
        <ele>539</ele>
        <time>2012-01-15T09:41:54Z</time>
      </trkpt>
      <trkpt lat="47.25903" lon="4.92985">
        <ele>541</ele>
        <time>2012-01-15T09:42:03Z</time>
      </trkpt>
      <trkpt lat="47.25907" lon="4.92965">
        <ele>540</ele>
        <time>2012-01-15T09:42:09Z</time>
      </trkpt>
      <trkpt lat="47.25908" lon="4.92942">
        <ele>540</ele>
        <time>2012-01-15T09:42:16Z</time>
      </trkpt>
      <trkpt lat="47.25907" lon="4.92917">
        <ele>540</ele>
        <time>2012-01-15T09:42:22Z</time>
      </trkpt>
      <trkpt lat="47.2591" lon="4.92893">
        <ele>541</ele>
        <time>2012-01-15T09:42:26Z</time>
      </trkpt>
      <trkpt lat="47.2591" lon="4.92873">
        <ele>541</ele>
        <time>2012-01-15T09:42:30Z</time>
      </trkpt>
      <trkpt lat="47.25908" lon="4.92853">
        <ele>541</ele>
        <time>2012-01-15T09:42:34Z</time>
      </trkpt>
      <trkpt lat="47.25902" lon="4.92825">
        <ele>541</ele>
        <time>2012-01-15T09:42:41Z</time>
      </trkpt>
      <trkpt lat="47.25895" lon="4.92803">
        <ele>540</ele>
        <time>2012-01-15T09:42:45Z</time>
      </trkpt>
      <trkpt lat="47.25892" lon="4.92775">
        <ele>540</ele>
        <time>2012-01-15T09:42:49Z</time>
      </trkpt>
      <trkpt lat="47.25887" lon="4.9275">
        <ele>543</ele>
        <time>2012-01-15T09:42:53Z</time>
      </trkpt>
      <trkpt lat="47.25883" lon="4.92725">
        <ele>542</ele>
        <time>2012-01-15T09:42:57Z</time>
      </trkpt>
      <trkpt lat="47.25883" lon="4.92702">
        <ele>541</ele>
        <time>2012-01-15T09:43:01Z</time>
      </trkpt>
      <trkpt lat="47.25883" lon="4.92677">
        <ele>541</ele>
        <time>2012-01-15T09:43:06Z</time>
      </trkpt>
      <trkpt lat="47.2588" lon="4.92655">
        <ele>540</ele>
        <time>2012-01-15T09:43:10Z</time>
      </trkpt>
      <trkpt lat="47.25877" lon="4.92628">
        <ele>538</ele>
        <time>2012-01-15T09:43:14Z</time>
      </trkpt>
      <trkpt lat="47.25867" lon="4.92605">
        <ele>537</ele>
        <time>2012-01-15T09:43:20Z</time>
      </trkpt>
      <trkpt lat="47.25867" lon="4.92578">
        <ele>537</ele>
        <time>2012-01-15T09:43:26Z</time>
      </trkpt>
      <trkpt lat="47.25872" lon="4.92558">
        <ele>535</ele>
        <time>2012-01-15T09:43:31Z</time>
      </trkpt>
      <trkpt lat="47.25873" lon="4.92537">
        <ele>533</ele>
        <time>2012-01-15T09:43:35Z</time>
      </trkpt>
      <trkpt lat="47.25873" lon="4.92512">
        <ele>532</ele>
        <time>2012-01-15T09:43:39Z</time>
      </trkpt>
      <trkpt lat="47.25873" lon="4.92475">
        <ele>529</ele>
        <time>2012-01-15T09:43:45Z</time>
      </trkpt>
      <trkpt lat="47.25873" lon="4.92448">
        <ele>526</ele>
        <time>2012-01-15T09:43:50Z</time>
      </trkpt>
      <trkpt lat="47.25877" lon="4.92428">
        <ele>525</ele>
        <time>2012-01-15T09:43:54Z</time>
      </trkpt>
      <trkpt lat="47.2588" lon="4.92393">
        <ele>524</ele>
        <time>2012-01-15T09:44:00Z</time>
      </trkpt>
      <trkpt lat="47.25882" lon="4.92367">
        <ele>524</ele>
        <time>2012-01-15T09:44:07Z</time>
      </trkpt>
      <trkpt lat="47.25883" lon="4.92333">
        <ele>521</ele>
        <time>2012-01-15T09:44:13Z</time>
      </trkpt>
      <trkpt lat="47.25885" lon="4.92312">
        <ele>522</ele>
        <time>2012-01-15T09:44:17Z</time>
      </trkpt>
      <trkpt lat="47.25888" lon="4.9225">
        <ele>524</ele>
        <time>2012-01-15T09:44:34Z</time>
      </trkpt>
      <trkpt lat="47.2589" lon="4.92227">
        <ele>523</ele>
        <time>2012-01-15T09:44:38Z</time>
      </trkpt>
      <trkpt lat="47.25893" lon="4.922">
        <ele>521</ele>
        <time>2012-01-15T09:44:44Z</time>
      </trkpt>
      <trkpt lat="47.25898" lon="4.92172">
        <ele>523</ele>
        <time>2012-01-15T09:44:50Z</time>
      </trkpt>
      <trkpt lat="47.259" lon="4.92152">
        <ele>521</ele>
        <time>2012-01-15T09:44:55Z</time>
      </trkpt>
      <trkpt lat="47.259" lon="4.9212">
        <ele>520</ele>
        <time>2012-01-15T09:45:01Z</time>
      </trkpt>
      <trkpt lat="47.25888" lon="4.92105">
        <ele>519</ele>
        <time>2012-01-15T09:45:09Z</time>
      </trkpt>
      <trkpt lat="47.25875" lon="4.92093">
        <ele>520</ele>
        <time>2012-01-15T09:45:18Z</time>
      </trkpt>
      <trkpt lat="47.2586" lon="4.92082">
        <ele>523</ele>
        <time>2012-01-15T09:45:26Z</time>
      </trkpt>
      <trkpt lat="47.25847" lon="4.92068">
        <ele>526</ele>
        <time>2012-01-15T09:45:36Z</time>
      </trkpt>
      <trkpt lat="47.25833" lon="4.9205">
        <ele>529</ele>
        <time>2012-01-15T09:45:47Z</time>
      </trkpt>
      <trkpt lat="47.2582" lon="4.92038">
        <ele>528</ele>
        <time>2012-01-15T09:45:55Z</time>
      </trkpt>
      <trkpt lat="47.25803" lon="4.92025">
        <ele>528</ele>
        <time>2012-01-15T09:46:04Z</time>
      </trkpt>
      <trkpt lat="47.25782" lon="4.92007">
        <ele>528</ele>
        <time>2012-01-15T09:46:10Z</time>
      </trkpt>
      <trkpt lat="47.25765" lon="4.91988">
        <ele>528</ele>
        <time>2012-01-15T09:46:16Z</time>
      </trkpt>
      <trkpt lat="47.25753" lon="4.91975">
        <ele>527</ele>
        <time>2012-01-15T09:46:20Z</time>
      </trkpt>
      <trkpt lat="47.25738" lon="4.91963">
        <ele>525</ele>
        <time>2012-01-15T09:46:25Z</time>
      </trkpt>
      <trkpt lat="47.2572" lon="4.91953">
        <ele>523</ele>
        <time>2012-01-15T09:46:29Z</time>
      </trkpt>
      <trkpt lat="47.25702" lon="4.9194">
        <ele>522</ele>
        <time>2012-01-15T09:46:35Z</time>
      </trkpt>
      <trkpt lat="47.25687" lon="4.91933">
        <ele>519</ele>
        <time>2012-01-15T09:46:39Z</time>
      </trkpt>
      <trkpt lat="47.25668" lon="4.91925">
        <ele>516</ele>
        <time>2012-01-15T09:46:44Z</time>
      </trkpt>
      <trkpt lat="47.25655" lon="4.91915">
        <ele>514</ele>
        <time>2012-01-15T09:46:48Z</time>
      </trkpt>
      <trkpt lat="47.2566" lon="4.91882">
        <ele>516</ele>
        <time>2012-01-15T09:46:54Z</time>
      </trkpt>
      <trkpt lat="47.25667" lon="4.91862">
        <ele>516</ele>
        <time>2012-01-15T09:46:58Z</time>
      </trkpt>
      <trkpt lat="47.25677" lon="4.91845">
        <ele>519</ele>
        <time>2012-01-15T09:47:02Z</time>
      </trkpt>
      <trkpt lat="47.25685" lon="4.91822">
        <ele>519</ele>
        <time>2012-01-15T09:47:06Z</time>
      </trkpt>
      <trkpt lat="47.25693" lon="4.918">
        <ele>522</ele>
        <time>2012-01-15T09:47:11Z</time>
      </trkpt>
      <trkpt lat="47.25685" lon="4.91782">
        <ele>525</ele>
        <time>2012-01-15T09:47:17Z</time>
      </trkpt>
      <trkpt lat="47.25672" lon="4.91753">
        <ele>525</ele>
        <time>2012-01-15T09:47:30Z</time>
      </trkpt>
      <trkpt lat="47.25662" lon="4.91733">
        <ele>524</ele>
        <time>2012-01-15T09:47:38Z</time>
      </trkpt>
      <trkpt lat="47.25653" lon="4.91713">
        <ele>523</ele>
        <time>2012-01-15T09:47:46Z</time>
      </trkpt>
      <trkpt lat="47.25645" lon="4.91693">
        <ele>521</ele>
        <time>2012-01-15T09:47:55Z</time>
      </trkpt>
      <trkpt lat="47.25633" lon="4.91677">
        <ele>519</ele>
        <time>2012-01-15T09:48:01Z</time>
      </trkpt>
      <trkpt lat="47.25623" lon="4.91655">
        <ele>521</ele>
        <time>2012-01-15T09:48:10Z</time>
      </trkpt>
      <trkpt lat="47.25615" lon="4.91637">
        <ele>522</ele>
        <time>2012-01-15T09:48:16Z</time>
      </trkpt>
      <trkpt lat="47.25608" lon="4.91618">
        <ele>521</ele>
        <time>2012-01-15T09:48:20Z</time>
      </trkpt>
      <trkpt lat="47.25593" lon="4.91573">
        <ele>522</ele>
        <time>2012-01-15T09:48:30Z</time>
      </trkpt>
      <trkpt lat="47.25587" lon="4.91547">
        <ele>520</ele>
        <time>2012-01-15T09:48:37Z</time>
      </trkpt>
      <trkpt lat="47.25583" lon="4.91523">
        <ele>518</ele>
        <time>2012-01-15T09:48:41Z</time>
      </trkpt>
      <trkpt lat="47.25582" lon="4.91502">
        <ele>516</ele>
        <time>2012-01-15T09:48:45Z</time>
      </trkpt>
      <trkpt lat="47.25578" lon="4.91482">
        <ele>515</ele>
        <time>2012-01-15T09:48:49Z</time>
      </trkpt>
      <trkpt lat="47.2557" lon="4.91463">
        <ele>519</ele>
        <time>2012-01-15T09:48:56Z</time>
      </trkpt>
      <trkpt lat="47.25555" lon="4.91452">
        <ele>518</ele>
        <time>2012-01-15T09:49:00Z</time>
      </trkpt>
      <trkpt lat="47.25505" lon="4.9141">
        <ele>521</ele>
        <time>2012-01-15T09:49:17Z</time>
      </trkpt>
      <trkpt lat="47.25488" lon="4.91398">
        <ele>519</ele>
        <time>2012-01-15T09:49:21Z</time>
      </trkpt>
      <trkpt lat="47.25477" lon="4.91388">
        <ele>519</ele>
        <time>2012-01-15T09:49:27Z</time>
      </trkpt>
      <trkpt lat="47.2547" lon="4.91363">
        <ele>518</ele>
        <time>2012-01-15T09:49:34Z</time>
      </trkpt>
      <trkpt lat="47.25473" lon="4.9134">
        <ele>519</ele>
        <time>2012-01-15T09:49:38Z</time>
      </trkpt>
      <trkpt lat="47.25482" lon="4.9131">
        <ele>521</ele>
        <time>2012-01-15T09:49:42Z</time>
      </trkpt>
      <trkpt lat="47.2549" lon="4.91288">
        <ele>522</ele>
        <time>2012-01-15T09:49:46Z</time>
      </trkpt>
      <trkpt lat="47.255" lon="4.91263">
        <ele>524</ele>
        <time>2012-01-15T09:49:50Z</time>
      </trkpt>
      <trkpt lat="47.25523" lon="4.9119">
        <ele>525</ele>
        <time>2012-01-15T09:50:03Z</time>
      </trkpt>
      <trkpt lat="47.25528" lon="4.91165">
        <ele>523</ele>
        <time>2012-01-15T09:50:07Z</time>
      </trkpt>
      <trkpt lat="47.25538" lon="4.91123">
        <ele>515</ele>
        <time>2012-01-15T09:50:16Z</time>
      </trkpt>
      <trkpt lat="47.25543" lon="4.91103">
        <ele>512</ele>
        <time>2012-01-15T09:50:20Z</time>
      </trkpt>
      <trkpt lat="47.25548" lon="4.91073">
        <ele>511</ele>
        <time>2012-01-15T09:50:26Z</time>
      </trkpt>
      <trkpt lat="47.25553" lon="4.91048">
        <ele>511</ele>
        <time>2012-01-15T09:50:32Z</time>
      </trkpt>
      <trkpt lat="47.2557" lon="4.90963">
        <ele>510</ele>
        <time>2012-01-15T09:50:49Z</time>
      </trkpt>
      <trkpt lat="47.25582" lon="4.90912">
        <ele>513</ele>
        <time>2012-01-15T09:50:59Z</time>
      </trkpt>
      <trkpt lat="47.25585" lon="4.90888">
        <ele>512</ele>
        <time>2012-01-15T09:51:04Z</time>
      </trkpt>
      <trkpt lat="47.25592" lon="4.90868">
        <ele>513</ele>
        <time>2012-01-15T09:51:08Z</time>
      </trkpt>
      <trkpt lat="47.25608" lon="4.90848">
        <ele>512</ele>
        <time>2012-01-15T09:51:12Z</time>
      </trkpt>
      <trkpt lat="47.25627" lon="4.90838">
        <ele>510</ele>
        <time>2012-01-15T09:51:16Z</time>
      </trkpt>
      <trkpt lat="47.25645" lon="4.90843">
        <ele>508</ele>
        <time>2012-01-15T09:51:20Z</time>
      </trkpt>
      <trkpt lat="47.25665" lon="4.90857">
        <ele>509</ele>
        <time>2012-01-15T09:51:25Z</time>
      </trkpt>
      <trkpt lat="47.25688" lon="4.90872">
        <ele>506</ele>
        <time>2012-01-15T09:51:29Z</time>
      </trkpt>
      <trkpt lat="47.25722" lon="4.90885">
        <ele>500</ele>
        <time>2012-01-15T09:51:33Z</time>
      </trkpt>
      <trkpt lat="47.2575" lon="4.9089">
        <ele>498</ele>
        <time>2012-01-15T09:51:37Z</time>
      </trkpt>
      <trkpt lat="47.25772" lon="4.90897">
        <ele>496</ele>
        <time>2012-01-15T09:51:41Z</time>
      </trkpt>
      <trkpt lat="47.25788" lon="4.90917">
        <ele>493</ele>
        <time>2012-01-15T09:51:45Z</time>
      </trkpt>
      <trkpt lat="47.25802" lon="4.90937">
        <ele>489</ele>
        <time>2012-01-15T09:51:50Z</time>
      </trkpt>
      <trkpt lat="47.2582" lon="4.90967">
        <ele>492</ele>
        <time>2012-01-15T09:51:54Z</time>
      </trkpt>
      <trkpt lat="47.25832" lon="4.9099">
        <ele>491</ele>
        <time>2012-01-15T09:51:58Z</time>
      </trkpt>
      <trkpt lat="47.2586" lon="4.9104">
        <ele>489</ele>
        <time>2012-01-15T09:52:11Z</time>
      </trkpt>
      <trkpt lat="47.25868" lon="4.91063">
        <ele>490</ele>
        <time>2012-01-15T09:52:15Z</time>
      </trkpt>
      <trkpt lat="47.2588" lon="4.91092">
        <ele>486</ele>
        <time>2012-01-15T09:52:19Z</time>
      </trkpt>
      <trkpt lat="47.2589" lon="4.9112">
        <ele>486</ele>
        <time>2012-01-15T09:52:23Z</time>
      </trkpt>
      <trkpt lat="47.25895" lon="4.91147">
        <ele>486</ele>
        <time>2012-01-15T09:52:28Z</time>
      </trkpt>
      <trkpt lat="47.25903" lon="4.91187">
        <ele>484</ele>
        <time>2012-01-15T09:52:36Z</time>
      </trkpt>
      <trkpt lat="47.25903" lon="4.9121">
        <ele>480</ele>
        <time>2012-01-15T09:52:40Z</time>
      </trkpt>
      <trkpt lat="47.25902" lon="4.91252">
        <ele>478</ele>
        <time>2012-01-15T09:52:47Z</time>
      </trkpt>
      <trkpt lat="47.25912" lon="4.91268">
        <ele>474</ele>
        <time>2012-01-15T09:52:51Z</time>
      </trkpt>
      <trkpt lat="47.25933" lon="4.91282">
        <ele>470</ele>
        <time>2012-01-15T09:52:55Z</time>
      </trkpt>
      <trkpt lat="47.2595" lon="4.91282">
        <ele>468</ele>
        <time>2012-01-15T09:53:03Z</time>
      </trkpt>
      <trkpt lat="47.25965" lon="4.9128">
        <ele>467</ele>
        <time>2012-01-15T09:53:07Z</time>
      </trkpt>
      <trkpt lat="47.25992" lon="4.91277">
        <ele>466</ele>
        <time>2012-01-15T09:53:16Z</time>
      </trkpt>
      <trkpt lat="47.26007" lon="4.91275">
        <ele>462</ele>
        <time>2012-01-15T09:53:20Z</time>
      </trkpt>
      <trkpt lat="47.2602" lon="4.91267">
        <ele>462</ele>
        <time>2012-01-15T09:53:24Z</time>
      </trkpt>
      <trkpt lat="47.26032" lon="4.91247">
        <ele>466</ele>
        <time>2012-01-15T09:53:28Z</time>
      </trkpt>
      <trkpt lat="47.26048" lon="4.91227">
        <ele>472</ele>
        <time>2012-01-15T09:53:33Z</time>
      </trkpt>
      <trkpt lat="47.26068" lon="4.91205">
        <ele>471</ele>
        <time>2012-01-15T09:53:37Z</time>
      </trkpt>
      <trkpt lat="47.26083" lon="4.91192">
        <ele>471</ele>
        <time>2012-01-15T09:53:41Z</time>
      </trkpt>
      <trkpt lat="47.26095" lon="4.9118">
        <ele>471</ele>
        <time>2012-01-15T09:53:45Z</time>
      </trkpt>
      <trkpt lat="47.26112" lon="4.9116">
        <ele>471</ele>
        <time>2012-01-15T09:53:52Z</time>
      </trkpt>
      <trkpt lat="47.2613" lon="4.91145">
        <ele>466</ele>
        <time>2012-01-15T09:53:56Z</time>
      </trkpt>
      <trkpt lat="47.26147" lon="4.91142">
        <ele>466</ele>
        <time>2012-01-15T09:54:00Z</time>
      </trkpt>
      <trkpt lat="47.26163" lon="4.91145">
        <ele>465</ele>
        <time>2012-01-15T09:54:04Z</time>
      </trkpt>
      <trkpt lat="47.2618" lon="4.91152">
        <ele>463</ele>
        <time>2012-01-15T09:54:09Z</time>
      </trkpt>
      <trkpt lat="47.26195" lon="4.91162">
        <ele>464</ele>
        <time>2012-01-15T09:54:13Z</time>
      </trkpt>
      <trkpt lat="47.26212" lon="4.91167">
        <ele>464</ele>
        <time>2012-01-15T09:54:17Z</time>
      </trkpt>
      <trkpt lat="47.2623" lon="4.91163">
        <ele>470</ele>
        <time>2012-01-15T09:54:23Z</time>
      </trkpt>
      <trkpt lat="47.26243" lon="4.9115">
        <ele>471</ele>
        <time>2012-01-15T09:54:29Z</time>
      </trkpt>
      <trkpt lat="47.26255" lon="4.91133">
        <ele>471</ele>
        <time>2012-01-15T09:54:34Z</time>
      </trkpt>
      <trkpt lat="47.26277" lon="4.91108">
        <ele>473</ele>
        <time>2012-01-15T09:54:40Z</time>
      </trkpt>
      <trkpt lat="47.26295" lon="4.91087">
        <ele>476</ele>
        <time>2012-01-15T09:54:44Z</time>
      </trkpt>
      <trkpt lat="47.2631" lon="4.91065">
        <ele>479</ele>
        <time>2012-01-15T09:54:48Z</time>
      </trkpt>
      <trkpt lat="47.26335" lon="4.91035">
        <ele>481</ele>
        <time>2012-01-15T09:54:55Z</time>
      </trkpt>
      <trkpt lat="47.26347" lon="4.91022">
        <ele>474</ele>
        <time>2012-01-15T09:54:59Z</time>
      </trkpt>
      <trkpt lat="47.26352" lon="4.90997">
        <ele>462</ele>
        <time>2012-01-15T09:55:05Z</time>
      </trkpt>
      <trkpt lat="47.26358" lon="4.90977">
        <ele>456</ele>
        <time>2012-01-15T09:55:09Z</time>
      </trkpt>
      <trkpt lat="47.26372" lon="4.90937">
        <ele>459</ele>
        <time>2012-01-15T09:55:16Z</time>
      </trkpt>
      <trkpt lat="47.26382" lon="4.90917">
        <ele>467</ele>
        <time>2012-01-15T09:55:20Z</time>
      </trkpt>
      <trkpt lat="47.26397" lon="4.90898">
        <ele>473</ele>
        <time>2012-01-15T09:55:24Z</time>
      </trkpt>
      <trkpt lat="47.26412" lon="4.90878">
        <ele>476</ele>
        <time>2012-01-15T09:55:28Z</time>
      </trkpt>
      <trkpt lat="47.2645" lon="4.9083">
        <ele>468</ele>
        <time>2012-01-15T09:55:39Z</time>
      </trkpt>
      <trkpt lat="47.26463" lon="4.90812">
        <ele>467</ele>
        <time>2012-01-15T09:55:43Z</time>
      </trkpt>
      <trkpt lat="47.26473" lon="4.90797">
        <ele>468</ele>
        <time>2012-01-15T09:55:45Z</time>
      </trkpt>
      <trkpt lat="47.26485" lon="4.90775">
        <ele>466</ele>
        <time>2012-01-15T09:55:49Z</time>
      </trkpt>
      <trkpt lat="47.26497" lon="4.90757">
        <ele>467</ele>
        <time>2012-01-15T09:55:53Z</time>
      </trkpt>
      <trkpt lat="47.26507" lon="4.9074">
        <ele>464</ele>
        <time>2012-01-15T09:55:57Z</time>
      </trkpt>
      <trkpt lat="47.26528" lon="4.90708">
        <ele>460</ele>
        <time>2012-01-15T09:56:04Z</time>
      </trkpt>
      <trkpt lat="47.26542" lon="4.90702">
        <ele>460</ele>
        <time>2012-01-15T09:56:08Z</time>
      </trkpt>
      <trkpt lat="47.26555" lon="4.90692">
        <ele>461</ele>
        <time>2012-01-15T09:56:14Z</time>
      </trkpt>
      <trkpt lat="47.26565" lon="4.90673">
        <ele>459</ele>
        <time>2012-01-15T09:56:19Z</time>
      </trkpt>
      <trkpt lat="47.26583" lon="4.90662">
        <ele>453</ele>
        <time>2012-01-15T09:56:23Z</time>
      </trkpt>
      <trkpt lat="47.2661" lon="4.90657">
        <ele>447</ele>
        <time>2012-01-15T09:56:27Z</time>
      </trkpt>
      <trkpt lat="47.2663" lon="4.90658">
        <ele>443</ele>
        <time>2012-01-15T09:56:31Z</time>
      </trkpt>
      <trkpt lat="47.26652" lon="4.90658">
        <ele>445</ele>
        <time>2012-01-15T09:56:35Z</time>
      </trkpt>
      <trkpt lat="47.26675" lon="4.90657">
        <ele>438</ele>
        <time>2012-01-15T09:56:40Z</time>
      </trkpt>
      <trkpt lat="47.26698" lon="4.90662">
        <ele>432</ele>
        <time>2012-01-15T09:56:44Z</time>
      </trkpt>
      <trkpt lat="47.26723" lon="4.90657">
        <ele>432</ele>
        <time>2012-01-15T09:56:48Z</time>
      </trkpt>
      <trkpt lat="47.26737" lon="4.90647">
        <ele>434</ele>
        <time>2012-01-15T09:56:52Z</time>
      </trkpt>
      <trkpt lat="47.26755" lon="4.90637">
        <ele>434</ele>
        <time>2012-01-15T09:56:58Z</time>
      </trkpt>
      <trkpt lat="47.26813" lon="4.90605">
        <ele>434</ele>
        <time>2012-01-15T09:57:11Z</time>
      </trkpt>
      <trkpt lat="47.2683" lon="4.906">
        <ele>431</ele>
        <time>2012-01-15T09:57:15Z</time>
      </trkpt>
      <trkpt lat="47.26847" lon="4.90603">
        <ele>428</ele>
        <time>2012-01-15T09:57:20Z</time>
      </trkpt>
      <trkpt lat="47.26863" lon="4.90602">
        <ele>432</ele>
        <time>2012-01-15T09:57:24Z</time>
      </trkpt>
      <trkpt lat="47.26887" lon="4.90598">
        <ele>434</ele>
        <time>2012-01-15T09:57:28Z</time>
      </trkpt>
      <trkpt lat="47.26902" lon="4.90585">
        <ele>436</ele>
        <time>2012-01-15T09:57:32Z</time>
      </trkpt>
      <trkpt lat="47.26925" lon="4.90582">
        <ele>431</ele>
        <time>2012-01-15T09:57:36Z</time>
      </trkpt>
      <trkpt lat="47.26938" lon="4.90578">
        <ele>429</ele>
        <time>2012-01-15T09:57:41Z</time>
      </trkpt>
      <trkpt lat="47.26952" lon="4.90575">
        <ele>431</ele>
        <time>2012-01-15T09:57:45Z</time>
      </trkpt>
      <trkpt lat="47.26965" lon="4.90568">
        <ele>430</ele>
        <time>2012-01-15T09:57:47Z</time>
      </trkpt>
      <trkpt lat="47.26987" lon="4.90562">
        <ele>426</ele>
        <time>2012-01-15T09:57:51Z</time>
      </trkpt>
      <trkpt lat="47.27007" lon="4.90563">
        <ele>420</ele>
        <time>2012-01-15T09:57:55Z</time>
      </trkpt>
      <trkpt lat="47.27028" lon="4.90575">
        <ele>417</ele>
        <time>2012-01-15T09:58:00Z</time>
      </trkpt>
      <trkpt lat="47.27053" lon="4.90588">
        <ele>411</ele>
        <time>2012-01-15T09:58:04Z</time>
      </trkpt>
      <trkpt lat="47.27077" lon="4.90605">
        <ele>408</ele>
        <time>2012-01-15T09:58:08Z</time>
      </trkpt>
      <trkpt lat="47.27103" lon="4.90617">
        <ele>401</ele>
        <time>2012-01-15T09:58:14Z</time>
      </trkpt>
      <trkpt lat="47.2712" lon="4.90625">
        <ele>396</ele>
        <time>2012-01-15T09:58:18Z</time>
      </trkpt>
      <trkpt lat="47.27135" lon="4.90638">
        <ele>394</ele>
        <time>2012-01-15T09:58:23Z</time>
      </trkpt>
      <trkpt lat="47.2715" lon="4.9065">
        <ele>393</ele>
        <time>2012-01-15T09:58:27Z</time>
      </trkpt>
      <trkpt lat="47.27165" lon="4.90667">
        <ele>394</ele>
        <time>2012-01-15T09:58:31Z</time>
      </trkpt>
      <trkpt lat="47.27183" lon="4.90687">
        <ele>401</ele>
        <time>2012-01-15T09:58:37Z</time>
      </trkpt>
      <trkpt lat="47.27198" lon="4.90695">
        <ele>404</ele>
        <time>2012-01-15T09:58:41Z</time>
      </trkpt>
      <trkpt lat="47.27213" lon="4.90707">
        <ele>408</ele>
        <time>2012-01-15T09:58:45Z</time>
      </trkpt>
      <trkpt lat="47.27265" lon="4.90747">
        <ele>408</ele>
        <time>2012-01-15T09:58:58Z</time>
      </trkpt>
      <trkpt lat="47.27287" lon="4.90762">
        <ele>403</ele>
        <time>2012-01-15T09:59:04Z</time>
      </trkpt>
      <trkpt lat="47.273" lon="4.9077">
        <ele>401</ele>
        <time>2012-01-15T09:59:08Z</time>
      </trkpt>
      <trkpt lat="47.27315" lon="4.9078">
        <ele>399</ele>
        <time>2012-01-15T09:59:13Z</time>
      </trkpt>
      <trkpt lat="47.27327" lon="4.90792">
        <ele>396</ele>
        <time>2012-01-15T09:59:19Z</time>
      </trkpt>
      <trkpt lat="47.27325" lon="4.90815">
        <ele>423</ele>
        <time>2012-01-15T09:59:42Z</time>
      </trkpt>
      <trkpt lat="47.27335" lon="4.9083">
        <ele>430</ele>
        <time>2012-01-15T09:59:50Z</time>
      </trkpt>
      <trkpt lat="47.27347" lon="4.9084">
        <ele>427</ele>
        <time>2012-01-15T10:00:01Z</time>
      </trkpt>
      <trkpt lat="47.27333" lon="4.90833">
        <ele>416</ele>
        <time>2012-01-15T10:00:14Z</time>
      </trkpt>
      <trkpt lat="47.27327" lon="4.90855">
        <ele>423</ele>
        <time>2012-01-15T10:00:24Z</time>
      </trkpt>
      <trkpt lat="47.2733" lon="4.90875">
        <ele>421</ele>
        <time>2012-01-15T10:00:30Z</time>
      </trkpt>
      <trkpt lat="47.2734" lon="4.90908">
        <ele>423</ele>
        <time>2012-01-15T10:00:41Z</time>
      </trkpt>
      <trkpt lat="47.27333" lon="4.9093">
        <ele>433</ele>
        <time>2012-01-15T10:00:49Z</time>
      </trkpt>
      <trkpt lat="47.27333" lon="4.90955">
        <ele>433</ele>
        <time>2012-01-15T10:00:57Z</time>
      </trkpt>
      <trkpt lat="47.27332" lon="4.90978">
        <ele>429</ele>
        <time>2012-01-15T10:01:06Z</time>
      </trkpt>
      <trkpt lat="47.27327" lon="4.91003">
        <ele>428</ele>
        <time>2012-01-15T10:01:14Z</time>
      </trkpt>
      <trkpt lat="47.27328" lon="4.91025">
        <ele>423</ele>
        <time>2012-01-15T10:01:21Z</time>
      </trkpt>
      <trkpt lat="47.27332" lon="4.91045">
        <ele>420</ele>
        <time>2012-01-15T10:01:27Z</time>
      </trkpt>
      <trkpt lat="47.27337" lon="4.91065">
        <ele>417</ele>
        <time>2012-01-15T10:01:31Z</time>
      </trkpt>
      <trkpt lat="47.27347" lon="4.9109">
        <ele>411</ele>
        <time>2012-01-15T10:01:39Z</time>
      </trkpt>
      <trkpt lat="47.27353" lon="4.91112">
        <ele>411</ele>
        <time>2012-01-15T10:01:48Z</time>
      </trkpt>
      <trkpt lat="47.2736" lon="4.91135">
        <ele>412</ele>
        <time>2012-01-15T10:01:54Z</time>
      </trkpt>
      <trkpt lat="47.27358" lon="4.91155">
        <ele>421</ele>
        <time>2012-01-15T10:02:02Z</time>
      </trkpt>
      <trkpt lat="47.2736" lon="4.9121">
        <ele>424</ele>
        <time>2012-01-15T10:02:19Z</time>
      </trkpt>
      <trkpt lat="47.27362" lon="4.91233">
        <ele>422</ele>
        <time>2012-01-15T10:02:28Z</time>
      </trkpt>
      <trkpt lat="47.27367" lon="4.91253">
        <ele>419</ele>
        <time>2012-01-15T10:02:34Z</time>
      </trkpt>
      <trkpt lat="47.27373" lon="4.91273">
        <ele>419</ele>
        <time>2012-01-15T10:02:40Z</time>
      </trkpt>
      <trkpt lat="47.27378" lon="4.91293">
        <ele>420</ele>
        <time>2012-01-15T10:02:46Z</time>
      </trkpt>
      <trkpt lat="47.27378" lon="4.91315">
        <ele>424</ele>
        <time>2012-01-15T10:02:55Z</time>
      </trkpt>
      <trkpt lat="47.2738" lon="4.91343">
        <ele>425</ele>
        <time>2012-01-15T10:03:03Z</time>
      </trkpt>
      <trkpt lat="47.27383" lon="4.91365">
        <ele>420</ele>
        <time>2012-01-15T10:03:11Z</time>
      </trkpt>
      <trkpt lat="47.27387" lon="4.9139">
        <ele>421</ele>
        <time>2012-01-15T10:03:20Z</time>
      </trkpt>
      <trkpt lat="47.27388" lon="4.91412">
        <ele>422</ele>
        <time>2012-01-15T10:03:26Z</time>
      </trkpt>
      <trkpt lat="47.27395" lon="4.9143">
        <ele>421</ele>
        <time>2012-01-15T10:03:32Z</time>
      </trkpt>
      <trkpt lat="47.27405" lon="4.91447">
        <ele>422</ele>
        <time>2012-01-15T10:03:39Z</time>
      </trkpt>
      <trkpt lat="47.27422" lon="4.91472">
        <ele>428</ele>
        <time>2012-01-15T10:03:47Z</time>
      </trkpt>
      <trkpt lat="47.27432" lon="4.91487">
        <ele>429</ele>
        <time>2012-01-15T10:03:53Z</time>
      </trkpt>
      <trkpt lat="47.27442" lon="4.91503">
        <ele>432</ele>
        <time>2012-01-15T10:04:02Z</time>
      </trkpt>
      <trkpt lat="47.27448" lon="4.91523">
        <ele>440</ele>
        <time>2012-01-15T10:04:41Z</time>
      </trkpt>
      <trkpt lat="47.27457" lon="4.91545">
        <ele>441</ele>
        <time>2012-01-15T10:04:52Z</time>
      </trkpt>
      <trkpt lat="47.27468" lon="4.9157">
        <ele>455</ele>
        <time>2012-01-15T10:05:10Z</time>
      </trkpt>
      <trkpt lat="47.27483" lon="4.91572">
        <ele>467</ele>
        <time>2012-01-15T10:05:36Z</time>
      </trkpt>
      <trkpt lat="47.27498" lon="4.91577">
        <ele>462</ele>
        <time>2012-01-15T10:05:54Z</time>
      </trkpt>
      <trkpt lat="47.27512" lon="4.91582">
        <ele>467</ele>
        <time>2012-01-15T10:06:19Z</time>
      </trkpt>
      <trkpt lat="47.27525" lon="4.91587">
        <ele>464</ele>
        <time>2012-01-15T10:06:42Z</time>
      </trkpt>
      <trkpt lat="47.27537" lon="4.91597">
        <ele>465</ele>
        <time>2012-01-15T10:07:10Z</time>
      </trkpt>
      <trkpt lat="47.27555" lon="4.91605">
        <ele>467</ele>
        <time>2012-01-15T10:07:37Z</time>
      </trkpt>
      <trkpt lat="47.2757" lon="4.9161">
        <ele>475</ele>
        <time>2012-01-15T10:07:49Z</time>
      </trkpt>
      <trkpt lat="47.27583" lon="4.91618">
        <ele>475</ele>
        <time>2012-01-15T10:08:00Z</time>
      </trkpt>
      <trkpt lat="47.27597" lon="4.91625">
        <ele>478</ele>
        <time>2012-01-15T10:08:21Z</time>
      </trkpt>
      <trkpt lat="47.2761" lon="4.9163">
        <ele>477</ele>
        <time>2012-01-15T10:08:40Z</time>
      </trkpt>
      <trkpt lat="47.27623" lon="4.91635">
        <ele>482</ele>
        <time>2012-01-15T10:09:01Z</time>
      </trkpt>
      <trkpt lat="47.27638" lon="4.91647">
        <ele>483</ele>
        <time>2012-01-15T10:09:19Z</time>
      </trkpt>
      <trkpt lat="47.2765" lon="4.91657">
        <ele>476</ele>
        <time>2012-01-15T10:09:30Z</time>
      </trkpt>
      <trkpt lat="47.2766" lon="4.91673">
        <ele>476</ele>
        <time>2012-01-15T10:09:51Z</time>
      </trkpt>
      <trkpt lat="47.27653" lon="4.91693">
        <ele>475</ele>
        <time>2012-01-15T10:10:34Z</time>
      </trkpt>
      <trkpt lat="47.27642" lon="4.91708">
        <ele>477</ele>
        <time>2012-01-15T10:10:43Z</time>
      </trkpt>
      <trkpt lat="47.27632" lon="4.91735">
        <ele>479</ele>
        <time>2012-01-15T10:10:53Z</time>
      </trkpt>
      <trkpt lat="47.2763" lon="4.9176">
        <ele>479</ele>
        <time>2012-01-15T10:11:02Z</time>
      </trkpt>
      <trkpt lat="47.27638" lon="4.91778">
        <ele>479</ele>
        <time>2012-01-15T10:11:08Z</time>
      </trkpt>
      <trkpt lat="47.2765" lon="4.91798">
        <ele>475</ele>
        <time>2012-01-15T10:11:14Z</time>
      </trkpt>
      <trkpt lat="47.2766" lon="4.91813">
        <ele>475</ele>
        <time>2012-01-15T10:11:20Z</time>
      </trkpt>
      <trkpt lat="47.2767" lon="4.91828">
        <ele>474</ele>
        <time>2012-01-15T10:11:27Z</time>
      </trkpt>
      <trkpt lat="47.27683" lon="4.9185">
        <ele>474</ele>
        <time>2012-01-15T10:11:35Z</time>
      </trkpt>
      <trkpt lat="47.27697" lon="4.91875">
        <ele>474</ele>
        <time>2012-01-15T10:11:45Z</time>
      </trkpt>
      <trkpt lat="47.27708" lon="4.91892">
        <ele>475</ele>
        <time>2012-01-15T10:11:54Z</time>
      </trkpt>
      <trkpt lat="47.2772" lon="4.91902">
        <ele>475</ele>
        <time>2012-01-15T10:12:00Z</time>
      </trkpt>
      <trkpt lat="47.27728" lon="4.91918">
        <ele>477</ele>
        <time>2012-01-15T10:12:08Z</time>
      </trkpt>
      <trkpt lat="47.2774" lon="4.91933">
        <ele>482</ele>
        <time>2012-01-15T10:12:19Z</time>
      </trkpt>
      <trkpt lat="47.27752" lon="4.91943">
        <ele>483</ele>
        <time>2012-01-15T10:12:27Z</time>
      </trkpt>
      <trkpt lat="47.27765" lon="4.91955">
        <ele>483</ele>
        <time>2012-01-15T10:12:38Z</time>
      </trkpt>
      <trkpt lat="47.2778" lon="4.91957">
        <ele>486</ele>
        <time>2012-01-15T10:12:48Z</time>
      </trkpt>
      <trkpt lat="47.27792" lon="4.91942">
        <ele>488</ele>
        <time>2012-01-15T10:12:59Z</time>
      </trkpt>
      <trkpt lat="47.27808" lon="4.91912">
        <ele>492</ele>
        <time>2012-01-15T10:13:17Z</time>
      </trkpt>
      <trkpt lat="47.27822" lon="4.91888">
        <ele>495</ele>
        <time>2012-01-15T10:13:30Z</time>
      </trkpt>
      <trkpt lat="47.2783" lon="4.91868">
        <ele>498</ele>
        <time>2012-01-15T10:13:40Z</time>
      </trkpt>
      <trkpt lat="47.27838" lon="4.91847">
        <ele>500</ele>
        <time>2012-01-15T10:13:49Z</time>
      </trkpt>
      <trkpt lat="47.27845" lon="4.91827">
        <ele>503</ele>
        <time>2012-01-15T10:13:57Z</time>
      </trkpt>
      <trkpt lat="47.27848" lon="4.91807">
        <ele>503</ele>
        <time>2012-01-15T10:14:06Z</time>
      </trkpt>
      <trkpt lat="47.27852" lon="4.91783">
        <ele>505</ele>
        <time>2012-01-15T10:14:14Z</time>
      </trkpt>
      <trkpt lat="47.27853" lon="4.91762">
        <ele>505</ele>
        <time>2012-01-15T10:14:22Z</time>
      </trkpt>
      <trkpt lat="47.27855" lon="4.9174">
        <ele>506</ele>
        <time>2012-01-15T10:14:31Z</time>
      </trkpt>
      <trkpt lat="47.27857" lon="4.91715">
        <ele>506</ele>
        <time>2012-01-15T10:14:39Z</time>
      </trkpt>
      <trkpt lat="47.27863" lon="4.91695">
        <ele>508</ele>
        <time>2012-01-15T10:14:47Z</time>
      </trkpt>
      <trkpt lat="47.27872" lon="4.91672">
        <ele>512</ele>
        <time>2012-01-15T10:14:56Z</time>
      </trkpt>
      <trkpt lat="47.27885" lon="4.91662">
        <ele>513</ele>
        <time>2012-01-15T10:15:02Z</time>
      </trkpt>
      <trkpt lat="47.27902" lon="4.91658">
        <ele>512</ele>
        <time>2012-01-15T10:15:10Z</time>
      </trkpt>
      <trkpt lat="47.2792" lon="4.91657">
        <ele>511</ele>
        <time>2012-01-15T10:15:19Z</time>
      </trkpt>
      <trkpt lat="47.27935" lon="4.91648">
        <ele>512</ele>
        <time>2012-01-15T10:15:25Z</time>
      </trkpt>
      <trkpt lat="47.2795" lon="4.9164">
        <ele>511</ele>
        <time>2012-01-15T10:15:33Z</time>
      </trkpt>
      <trkpt lat="47.27967" lon="4.91638">
        <ele>512</ele>
        <time>2012-01-15T10:15:42Z</time>
      </trkpt>
      <trkpt lat="47.27978" lon="4.9165">
        <ele>513</ele>
        <time>2012-01-15T10:15:48Z</time>
      </trkpt>
      <trkpt lat="47.28002" lon="4.91678">
        <ele>516</ele>
        <time>2012-01-15T10:16:05Z</time>
      </trkpt>
      <trkpt lat="47.28012" lon="4.91693">
        <ele>517</ele>
        <time>2012-01-15T10:16:13Z</time>
      </trkpt>
      <trkpt lat="47.28018" lon="4.91712">
        <ele>523</ele>
        <time>2012-01-15T10:16:26Z</time>
      </trkpt>
      <trkpt lat="47.28027" lon="4.9173">
        <ele>531</ele>
        <time>2012-01-15T10:16:38Z</time>
      </trkpt>
      <trkpt lat="47.28038" lon="4.91745">
        <ele>535</ele>
        <time>2012-01-15T10:16:51Z</time>
      </trkpt>
      <trkpt lat="47.28052" lon="4.9175">
        <ele>533</ele>
        <time>2012-01-15T10:16:57Z</time>
      </trkpt>
      <trkpt lat="47.28065" lon="4.91755">
        <ele>532</ele>
        <time>2012-01-15T10:17:04Z</time>
      </trkpt>
      <trkpt lat="47.28087" lon="4.91758">
        <ele>530</ele>
        <time>2012-01-15T10:17:12Z</time>
      </trkpt>
      <trkpt lat="47.281" lon="4.91762">
        <ele>529</ele>
        <time>2012-01-15T10:17:16Z</time>
      </trkpt>
      <trkpt lat="47.28138" lon="4.91768">
        <ele>527</ele>
        <time>2012-01-15T10:17:29Z</time>
      </trkpt>
      <trkpt lat="47.28157" lon="4.91772">
        <ele>527</ele>
        <time>2012-01-15T10:17:35Z</time>
      </trkpt>
      <trkpt lat="47.28172" lon="4.9178">
        <ele>528</ele>
        <time>2012-01-15T10:17:44Z</time>
      </trkpt>
      <trkpt lat="47.28185" lon="4.91793">
        <ele>530</ele>
        <time>2012-01-15T10:17:52Z</time>
      </trkpt>
      <trkpt lat="47.28202" lon="4.91807">
        <ele>536</ele>
        <time>2012-01-15T10:18:05Z</time>
      </trkpt>
      <trkpt lat="47.28213" lon="4.91817">
        <ele>536</ele>
        <time>2012-01-15T10:18:13Z</time>
      </trkpt>
      <trkpt lat="47.28225" lon="4.91828">
        <ele>541</ele>
        <time>2012-01-15T10:18:23Z</time>
      </trkpt>
      <trkpt lat="47.28237" lon="4.9184">
        <ele>551</ele>
        <time>2012-01-15T10:18:36Z</time>
      </trkpt>
      <trkpt lat="47.28248" lon="4.9185">
        <ele>552</ele>
        <time>2012-01-15T10:18:44Z</time>
      </trkpt>
      <trkpt lat="47.2826" lon="4.9186">
        <ele>544</ele>
        <time>2012-01-15T10:19:16Z</time>
      </trkpt>
      <trkpt lat="47.28272" lon="4.91872">
        <ele>549</ele>
        <time>2012-01-15T10:19:47Z</time>
      </trkpt>
      <trkpt lat="47.28288" lon="4.91893">
        <ele>559</ele>
        <time>2012-01-15T10:20:08Z</time>
      </trkpt>
      <trkpt lat="47.28302" lon="4.91907">
        <ele>565</ele>
        <time>2012-01-15T10:20:27Z</time>
      </trkpt>
      <trkpt lat="47.28315" lon="4.91922">
        <ele>564</ele>
        <time>2012-01-15T10:20:45Z</time>
      </trkpt>
      <trkpt lat="47.28327" lon="4.91935">
        <ele>568</ele>
        <time>2012-01-15T10:20:58Z</time>
      </trkpt>
      <trkpt lat="47.28338" lon="4.91948">
        <ele>574</ele>
        <time>2012-01-15T10:21:17Z</time>
      </trkpt>
      <trkpt lat="47.28353" lon="4.91963">
        <ele>572</ele>
        <time>2012-01-15T10:21:36Z</time>
      </trkpt>
      <trkpt lat="47.28365" lon="4.91975">
        <ele>578</ele>
        <time>2012-01-15T10:21:55Z</time>
      </trkpt>
      <trkpt lat="47.28377" lon="4.91988">
        <ele>582</ele>
        <time>2012-01-15T10:22:15Z</time>
      </trkpt>
      <trkpt lat="47.28387" lon="4.92003">
        <ele>595</ele>
        <time>2012-01-15T10:22:47Z</time>
      </trkpt>
      <trkpt lat="47.28402" lon="4.92015">
        <ele>589</ele>
        <time>2012-01-15T10:23:04Z</time>
      </trkpt>
      <trkpt lat="47.28413" lon="4.92027">
        <ele>588</ele>
        <time>2012-01-15T10:23:16Z</time>
      </trkpt>
      <trkpt lat="47.28425" lon="4.92037">
        <ele>588</ele>
        <time>2012-01-15T10:23:35Z</time>
      </trkpt>
      <trkpt lat="47.28437" lon="4.9205">
        <ele>590</ele>
        <time>2012-01-15T10:23:56Z</time>
      </trkpt>
      <trkpt lat="47.28445" lon="4.92067">
        <ele>593</ele>
        <time>2012-01-15T10:24:26Z</time>
      </trkpt>
      <trkpt lat="47.2846" lon="4.92075">
        <ele>591</ele>
        <time>2012-01-15T10:24:49Z</time>
      </trkpt>
      <trkpt lat="47.28475" lon="4.9208">
        <ele>592</ele>
        <time>2012-01-15T10:24:55Z</time>
      </trkpt>
      <trkpt lat="47.28493" lon="4.92087">
        <ele>592</ele>
        <time>2012-01-15T10:25:04Z</time>
      </trkpt>
      <trkpt lat="47.28508" lon="4.92092">
        <ele>594</ele>
        <time>2012-01-15T10:25:10Z</time>
      </trkpt>
      <trkpt lat="47.28547" lon="4.92103">
        <ele>597</ele>
        <time>2012-01-15T10:25:27Z</time>
      </trkpt>
      <trkpt lat="47.2856" lon="4.92107">
        <ele>599</ele>
        <time>2012-01-15T10:25:33Z</time>
      </trkpt>
      <trkpt lat="47.28575" lon="4.92112">
        <ele>601</ele>
        <time>2012-01-15T10:25:39Z</time>
      </trkpt>
      <trkpt lat="47.28592" lon="4.92115">
        <ele>601</ele>
        <time>2012-01-15T10:25:45Z</time>
      </trkpt>
      <trkpt lat="47.28605" lon="4.92118">
        <ele>603</ele>
        <time>2012-01-15T10:25:52Z</time>
      </trkpt>
      <trkpt lat="47.28618" lon="4.92122">
        <ele>604</ele>
        <time>2012-01-15T10:25:56Z</time>
      </trkpt>
      <trkpt lat="47.28633" lon="4.92127">
        <ele>605</ele>
        <time>2012-01-15T10:26:02Z</time>
      </trkpt>
      <trkpt lat="47.28662" lon="4.92132">
        <ele>604</ele>
        <time>2012-01-15T10:26:13Z</time>
      </trkpt>
      <trkpt lat="47.28677" lon="4.92133">
        <ele>603</ele>
        <time>2012-01-15T10:26:17Z</time>
      </trkpt>
      <trkpt lat="47.28697" lon="4.92137">
        <ele>603</ele>
        <time>2012-01-15T10:26:23Z</time>
      </trkpt>
      <trkpt lat="47.2871" lon="4.9214">
        <ele>603</ele>
        <time>2012-01-15T10:26:27Z</time>
      </trkpt>
      <trkpt lat="47.2873" lon="4.92143">
        <ele>602</ele>
        <time>2012-01-15T10:26:34Z</time>
      </trkpt>
      <trkpt lat="47.28753" lon="4.92148">
        <ele>602</ele>
        <time>2012-01-15T10:26:40Z</time>
      </trkpt>
      <trkpt lat="47.28768" lon="4.92153">
        <ele>601</ele>
        <time>2012-01-15T10:26:44Z</time>
      </trkpt>
      <trkpt lat="47.28783" lon="4.92158">
        <ele>602</ele>
        <time>2012-01-15T10:26:48Z</time>
      </trkpt>
      <trkpt lat="47.28798" lon="4.92165">
        <ele>603</ele>
        <time>2012-01-15T10:26:53Z</time>
      </trkpt>
      <trkpt lat="47.28853" lon="4.92192">
        <ele>602</ele>
        <time>2012-01-15T10:27:05Z</time>
      </trkpt>
      <trkpt lat="47.2887" lon="4.92207">
        <ele>603</ele>
        <time>2012-01-15T10:27:09Z</time>
      </trkpt>
      <trkpt lat="47.28897" lon="4.92228">
        <ele>604</ele>
        <time>2012-01-15T10:27:16Z</time>
      </trkpt>
      <trkpt lat="47.28917" lon="4.92247">
        <ele>603</ele>
        <time>2012-01-15T10:27:20Z</time>
      </trkpt>
      <trkpt lat="47.2895" lon="4.92275">
        <ele>604</ele>
        <time>2012-01-15T10:27:28Z</time>
      </trkpt>
      <trkpt lat="47.28965" lon="4.92287">
        <ele>603</ele>
        <time>2012-01-15T10:27:33Z</time>
      </trkpt>
      <trkpt lat="47.28983" lon="4.92295">
        <ele>602</ele>
        <time>2012-01-15T10:27:37Z</time>
      </trkpt>
      <trkpt lat="47.29003" lon="4.92302">
        <ele>601</ele>
        <time>2012-01-15T10:27:41Z</time>
      </trkpt>
      <trkpt lat="47.29017" lon="4.92307">
        <ele>601</ele>
        <time>2012-01-15T10:27:45Z</time>
      </trkpt>
      <trkpt lat="47.29032" lon="4.92312">
        <ele>601</ele>
        <time>2012-01-15T10:27:49Z</time>
      </trkpt>
      <trkpt lat="47.29045" lon="4.92317">
        <ele>601</ele>
        <time>2012-01-15T10:27:53Z</time>
      </trkpt>
      <trkpt lat="47.2906" lon="4.92322">
        <ele>601</ele>
        <time>2012-01-15T10:27:58Z</time>
      </trkpt>
      <trkpt lat="47.29077" lon="4.92328">
        <ele>601</ele>
        <time>2012-01-15T10:28:02Z</time>
      </trkpt>
      <trkpt lat="47.29112" lon="4.9234">
        <ele>601</ele>
        <time>2012-01-15T10:28:12Z</time>
      </trkpt>
      <trkpt lat="47.29127" lon="4.9234">
        <ele>601</ele>
        <time>2012-01-15T10:28:17Z</time>
      </trkpt>
      <trkpt lat="47.29142" lon="4.9234">
        <ele>601</ele>
        <time>2012-01-15T10:28:21Z</time>
      </trkpt>
      <trkpt lat="47.29177" lon="4.92343">
        <ele>601</ele>
        <time>2012-01-15T10:28:29Z</time>
      </trkpt>
      <trkpt lat="47.29192" lon="4.92347">
        <ele>601</ele>
        <time>2012-01-15T10:28:33Z</time>
      </trkpt>
      <trkpt lat="47.29205" lon="4.92353">
        <ele>601</ele>
        <time>2012-01-15T10:28:37Z</time>
      </trkpt>
      <trkpt lat="47.29218" lon="4.92363">
        <ele>601</ele>
        <time>2012-01-15T10:28:42Z</time>
      </trkpt>
      <trkpt lat="47.29233" lon="4.92375">
        <ele>600</ele>
        <time>2012-01-15T10:28:46Z</time>
      </trkpt>
      <trkpt lat="47.29257" lon="4.92397">
        <ele>600</ele>
        <time>2012-01-15T10:28:52Z</time>
      </trkpt>
      <trkpt lat="47.2927" lon="4.92407">
        <ele>601</ele>
        <time>2012-01-15T10:28:56Z</time>
      </trkpt>
      <trkpt lat="47.29283" lon="4.9242">
        <ele>601</ele>
        <time>2012-01-15T10:29:01Z</time>
      </trkpt>
      <trkpt lat="47.29297" lon="4.92432">
        <ele>601</ele>
        <time>2012-01-15T10:29:05Z</time>
      </trkpt>
      <trkpt lat="47.29343" lon="4.92472">
        <ele>601</ele>
        <time>2012-01-15T10:29:17Z</time>
      </trkpt>
      <trkpt lat="47.29355" lon="4.92487">
        <ele>600</ele>
        <time>2012-01-15T10:29:22Z</time>
      </trkpt>
      <trkpt lat="47.29367" lon="4.92503">
        <ele>600</ele>
        <time>2012-01-15T10:29:26Z</time>
      </trkpt>
      <trkpt lat="47.29385" lon="4.9252">
        <ele>601</ele>
        <time>2012-01-15T10:29:30Z</time>
      </trkpt>
      <trkpt lat="47.29398" lon="4.9253">
        <ele>601</ele>
        <time>2012-01-15T10:29:34Z</time>
      </trkpt>
      <trkpt lat="47.29412" lon="4.92537">
        <ele>601</ele>
        <time>2012-01-15T10:29:38Z</time>
      </trkpt>
      <trkpt lat="47.29427" lon="4.92543">
        <ele>601</ele>
        <time>2012-01-15T10:29:42Z</time>
      </trkpt>
      <trkpt lat="47.2944" lon="4.92552">
        <ele>601</ele>
        <time>2012-01-15T10:29:47Z</time>
      </trkpt>
      <trkpt lat="47.29478" lon="4.92572">
        <ele>602</ele>
        <time>2012-01-15T10:29:57Z</time>
      </trkpt>
      <trkpt lat="47.29495" lon="4.92577">
        <ele>602</ele>
        <time>2012-01-15T10:30:01Z</time>
      </trkpt>
      <trkpt lat="47.29512" lon="4.9258">
        <ele>600</ele>
        <time>2012-01-15T10:30:05Z</time>
      </trkpt>
      <trkpt lat="47.2953" lon="4.92582">
        <ele>599</ele>
        <time>2012-01-15T10:30:10Z</time>
      </trkpt>
      <trkpt lat="47.2955" lon="4.92582">
        <ele>598</ele>
        <time>2012-01-15T10:30:14Z</time>
      </trkpt>
      <trkpt lat="47.29573" lon="4.92578">
        <ele>598</ele>
        <time>2012-01-15T10:30:18Z</time>
      </trkpt>
      <trkpt lat="47.29588" lon="4.9257">
        <ele>597</ele>
        <time>2012-01-15T10:30:22Z</time>
      </trkpt>
      <trkpt lat="47.29603" lon="4.92563">
        <ele>597</ele>
        <time>2012-01-15T10:30:26Z</time>
      </trkpt>
      <trkpt lat="47.2962" lon="4.92565">
        <ele>597</ele>
        <time>2012-01-15T10:30:30Z</time>
      </trkpt>
      <trkpt lat="47.29647" lon="4.92568">
        <ele>596</ele>
        <time>2012-01-15T10:30:37Z</time>
      </trkpt>
      <trkpt lat="47.29697" lon="4.92575">
        <ele>597</ele>
        <time>2012-01-15T10:30:49Z</time>
      </trkpt>
      <trkpt lat="47.29712" lon="4.92582">
        <ele>597</ele>
        <time>2012-01-15T10:30:54Z</time>
      </trkpt>
      <trkpt lat="47.29723" lon="4.92592">
        <ele>597</ele>
        <time>2012-01-15T10:30:58Z</time>
      </trkpt>
      <trkpt lat="47.29737" lon="4.92607">
        <ele>597</ele>
        <time>2012-01-15T10:31:02Z</time>
      </trkpt>
      <trkpt lat="47.29755" lon="4.92633">
        <ele>596</ele>
        <time>2012-01-15T10:31:06Z</time>
      </trkpt>
      <trkpt lat="47.29782" lon="4.92668">
        <ele>593</ele>
        <time>2012-01-15T10:31:12Z</time>
      </trkpt>
      <trkpt lat="47.29818" lon="4.92717">
        <ele>590</ele>
        <time>2012-01-15T10:31:21Z</time>
      </trkpt>
      <trkpt lat="47.29853" lon="4.92758">
        <ele>585</ele>
        <time>2012-01-15T10:31:27Z</time>
      </trkpt>
      <trkpt lat="47.29883" lon="4.9279">
        <ele>580</ele>
        <time>2012-01-15T10:31:33Z</time>
      </trkpt>
      <trkpt lat="47.29897" lon="4.92817">
        <ele>578</ele>
        <time>2012-01-15T10:31:37Z</time>
      </trkpt>
      <trkpt lat="47.29898" lon="4.92853">
        <ele>576</ele>
        <time>2012-01-15T10:31:42Z</time>
      </trkpt>
      <trkpt lat="47.29897" lon="4.92883">
        <ele>574</ele>
        <time>2012-01-15T10:31:46Z</time>
      </trkpt>
      <trkpt lat="47.29888" lon="4.92925">
        <ele>572</ele>
        <time>2012-01-15T10:31:50Z</time>
      </trkpt>
      <trkpt lat="47.29883" lon="4.92962">
        <ele>570</ele>
        <time>2012-01-15T10:31:54Z</time>
      </trkpt>
      <trkpt lat="47.29877" lon="4.9299">
        <ele>569</ele>
        <time>2012-01-15T10:31:58Z</time>
      </trkpt>
      <trkpt lat="47.2987" lon="4.93018">
        <ele>566</ele>
        <time>2012-01-15T10:32:03Z</time>
      </trkpt>
      <trkpt lat="47.29862" lon="4.93045">
        <ele>566</ele>
        <time>2012-01-15T10:32:07Z</time>
      </trkpt>
      <trkpt lat="47.2985" lon="4.93097">
        <ele>570</ele>
        <time>2012-01-15T10:32:13Z</time>
      </trkpt>
      <trkpt lat="47.29845" lon="4.9313">
        <ele>570</ele>
        <time>2012-01-15T10:32:17Z</time>
      </trkpt>
      <trkpt lat="47.29843" lon="4.93163">
        <ele>570</ele>
        <time>2012-01-15T10:32:21Z</time>
      </trkpt>
      <trkpt lat="47.29838" lon="4.93193">
        <ele>570</ele>
        <time>2012-01-15T10:32:26Z</time>
      </trkpt>
      <trkpt lat="47.29833" lon="4.93223">
        <ele>569</ele>
        <time>2012-01-15T10:32:30Z</time>
      </trkpt>
      <trkpt lat="47.29825" lon="4.9326">
        <ele>569</ele>
        <time>2012-01-15T10:32:34Z</time>
      </trkpt>
      <trkpt lat="47.29817" lon="4.93288">
        <ele>567</ele>
        <time>2012-01-15T10:32:38Z</time>
      </trkpt>
      <trkpt lat="47.29808" lon="4.93308">
        <ele>567</ele>
        <time>2012-01-15T10:32:42Z</time>
      </trkpt>
      <trkpt lat="47.29797" lon="4.93325">
        <ele>567</ele>
        <time>2012-01-15T10:32:46Z</time>
      </trkpt>
      <trkpt lat="47.29783" lon="4.93337">
        <ele>568</ele>
        <time>2012-01-15T10:32:51Z</time>
      </trkpt>
      <trkpt lat="47.2977" lon="4.93343">
        <ele>570</ele>
        <time>2012-01-15T10:32:55Z</time>
      </trkpt>
      <trkpt lat="47.29757" lon="4.93362">
        <ele>570</ele>
        <time>2012-01-15T10:33:01Z</time>
      </trkpt>
      <trkpt lat="47.29752" lon="4.93382">
        <ele>569</ele>
        <time>2012-01-15T10:33:05Z</time>
      </trkpt>
      <trkpt lat="47.2974" lon="4.93395">
        <ele>565</ele>
        <time>2012-01-15T10:33:10Z</time>
      </trkpt>
      <trkpt lat="47.29733" lon="4.93425">
        <ele>558</ele>
        <time>2012-01-15T10:33:18Z</time>
      </trkpt>
      <trkpt lat="47.29727" lon="4.93447">
        <ele>552</ele>
        <time>2012-01-15T10:33:24Z</time>
      </trkpt>
      <trkpt lat="47.29715" lon="4.93468">
        <ele>549</ele>
        <time>2012-01-15T10:33:31Z</time>
      </trkpt>
      <trkpt lat="47.29703" lon="4.93483">
        <ele>550</ele>
        <time>2012-01-15T10:33:37Z</time>
      </trkpt>
      <trkpt lat="47.29713" lon="4.93498">
        <ele>544</ele>
        <time>2012-01-15T10:33:45Z</time>
      </trkpt>
      <trkpt lat="47.29727" lon="4.93503">
        <ele>540</ele>
        <time>2012-01-15T10:33:49Z</time>
      </trkpt>
      <trkpt lat="47.29743" lon="4.93505">
        <ele>536</ele>
        <time>2012-01-15T10:33:53Z</time>
      </trkpt>
      <trkpt lat="47.29762" lon="4.935">
        <ele>534</ele>
        <time>2012-01-15T10:33:58Z</time>
      </trkpt>
      <trkpt lat="47.29775" lon="4.93493">
        <ele>535</ele>
        <time>2012-01-15T10:34:02Z</time>
      </trkpt>
      <trkpt lat="47.29788" lon="4.93487">
        <ele>532</ele>
        <time>2012-01-15T10:34:06Z</time>
      </trkpt>
      <trkpt lat="47.29802" lon="4.93483">
        <ele>531</ele>
        <time>2012-01-15T10:34:12Z</time>
      </trkpt>
      <trkpt lat="47.29818" lon="4.93475">
        <ele>530</ele>
        <time>2012-01-15T10:34:19Z</time>
      </trkpt>
      <trkpt lat="47.29832" lon="4.93468">
        <ele>528</ele>
        <time>2012-01-15T10:34:23Z</time>
      </trkpt>
      <trkpt lat="47.29847" lon="4.93457">
        <ele>529</ele>
        <time>2012-01-15T10:34:27Z</time>
      </trkpt>
      <trkpt lat="47.29865" lon="4.93443">
        <ele>529</ele>
        <time>2012-01-15T10:34:31Z</time>
      </trkpt>
      <trkpt lat="47.29877" lon="4.9343">
        <ele>525</ele>
        <time>2012-01-15T10:34:35Z</time>
      </trkpt>
      <trkpt lat="47.2989" lon="4.93422">
        <ele>520</ele>
        <time>2012-01-15T10:34:39Z</time>
      </trkpt>
      <trkpt lat="47.299" lon="4.93407">
        <ele>520</ele>
        <time>2012-01-15T10:34:44Z</time>
      </trkpt>
      <trkpt lat="47.29908" lon="4.9339">
        <ele>521</ele>
        <time>2012-01-15T10:34:48Z</time>
      </trkpt>
      <trkpt lat="47.29917" lon="4.93368">
        <ele>521</ele>
        <time>2012-01-15T10:34:52Z</time>
      </trkpt>
      <trkpt lat="47.29932" lon="4.93337">
        <ele>524</ele>
        <time>2012-01-15T10:35:00Z</time>
      </trkpt>
      <trkpt lat="47.29938" lon="4.93317">
        <ele>525</ele>
        <time>2012-01-15T10:35:05Z</time>
      </trkpt>
      <trkpt lat="47.29947" lon="4.93298">
        <ele>525</ele>
        <time>2012-01-15T10:35:09Z</time>
      </trkpt>
      <trkpt lat="47.29963" lon="4.93275">
        <ele>522</ele>
        <time>2012-01-15T10:35:13Z</time>
      </trkpt>
      <trkpt lat="47.29973" lon="4.93255">
        <ele>519</ele>
        <time>2012-01-15T10:35:17Z</time>
      </trkpt>
      <trkpt lat="47.29978" lon="4.9323">
        <ele>516</ele>
        <time>2012-01-15T10:35:21Z</time>
      </trkpt>
      <trkpt lat="47.29977" lon="4.93255">
        <ele>510</ele>
        <time>2012-01-15T10:35:34Z</time>
      </trkpt>
      <trkpt lat="47.29973" lon="4.9328">
        <ele>512</ele>
        <time>2012-01-15T10:35:38Z</time>
      </trkpt>
      <trkpt lat="47.29968" lon="4.93302">
        <ele>514</ele>
        <time>2012-01-15T10:35:42Z</time>
      </trkpt>
      <trkpt lat="47.29963" lon="4.93328">
        <ele>514</ele>
        <time>2012-01-15T10:35:46Z</time>
      </trkpt>
      <trkpt lat="47.2996" lon="4.93352">
        <ele>514</ele>
        <time>2012-01-15T10:35:51Z</time>
      </trkpt>
      <trkpt lat="47.29955" lon="4.93378">
        <ele>513</ele>
        <time>2012-01-15T10:35:55Z</time>
      </trkpt>
      <trkpt lat="47.29948" lon="4.93398">
        <ele>514</ele>
        <time>2012-01-15T10:35:59Z</time>
      </trkpt>
      <trkpt lat="47.29942" lon="4.9342">
        <ele>514</ele>
        <time>2012-01-15T10:36:05Z</time>
      </trkpt>
      <trkpt lat="47.29933" lon="4.93442">
        <ele>514</ele>
        <time>2012-01-15T10:36:12Z</time>
      </trkpt>
      <trkpt lat="47.29925" lon="4.9346">
        <ele>515</ele>
        <time>2012-01-15T10:36:16Z</time>
      </trkpt>
      <trkpt lat="47.2991" lon="4.93482">
        <ele>514</ele>
        <time>2012-01-15T10:36:20Z</time>
      </trkpt>
      <trkpt lat="47.29898" lon="4.93497">
        <ele>515</ele>
        <time>2012-01-15T10:36:24Z</time>
      </trkpt>
      <trkpt lat="47.29883" lon="4.93512">
        <ele>514</ele>
        <time>2012-01-15T10:36:30Z</time>
      </trkpt>
      <trkpt lat="47.29868" lon="4.93528">
        <ele>514</ele>
        <time>2012-01-15T10:36:37Z</time>
      </trkpt>
      <trkpt lat="47.29857" lon="4.93542">
        <ele>515</ele>
        <time>2012-01-15T10:36:41Z</time>
      </trkpt>
      <trkpt lat="47.29837" lon="4.93567">
        <ele>516</ele>
        <time>2012-01-15T10:36:47Z</time>
      </trkpt>
      <trkpt lat="47.29827" lon="4.9358">
        <ele>517</ele>
        <time>2012-01-15T10:36:51Z</time>
      </trkpt>
      <trkpt lat="47.29808" lon="4.93603">
        <ele>518</ele>
        <time>2012-01-15T10:36:58Z</time>
      </trkpt>
      <trkpt lat="47.29772" lon="4.93647">
        <ele>515</ele>
        <time>2012-01-15T10:37:10Z</time>
      </trkpt>
      <trkpt lat="47.29755" lon="4.93662">
        <ele>511</ele>
        <time>2012-01-15T10:37:16Z</time>
      </trkpt>
      <trkpt lat="47.29743" lon="4.93672">
        <ele>509</ele>
        <time>2012-01-15T10:37:21Z</time>
      </trkpt>
      <trkpt lat="47.29725" lon="4.9368">
        <ele>506</ele>
        <time>2012-01-15T10:37:25Z</time>
      </trkpt>
      <trkpt lat="47.29687" lon="4.93693">
        <ele>502</ele>
        <time>2012-01-15T10:37:31Z</time>
      </trkpt>
      <trkpt lat="47.29645" lon="4.93707">
        <ele>498</ele>
        <time>2012-01-15T10:37:37Z</time>
      </trkpt>
      <trkpt lat="47.29635" lon="4.9372">
        <ele>497</ele>
        <time>2012-01-15T10:37:40Z</time>
      </trkpt>
      <trkpt lat="47.29633" lon="4.93762">
        <ele>493</ele>
        <time>2012-01-15T10:37:44Z</time>
      </trkpt>
      <trkpt lat="47.29643" lon="4.93822">
        <ele>487</ele>
        <time>2012-01-15T10:37:48Z</time>
      </trkpt>
      <trkpt lat="47.29647" lon="4.93847">
        <ele>484</ele>
        <time>2012-01-15T10:37:50Z</time>
      </trkpt>
      <trkpt lat="47.2965" lon="4.939">
        <ele>477</ele>
        <time>2012-01-15T10:37:54Z</time>
      </trkpt>
      <trkpt lat="47.29648" lon="4.93928">
        <ele>474</ele>
        <time>2012-01-15T10:37:56Z</time>
      </trkpt>
      <trkpt lat="47.29647" lon="4.93973">
        <ele>470</ele>
        <time>2012-01-15T10:38:00Z</time>
      </trkpt>
      <trkpt lat="47.29645" lon="4.93995">
        <ele>466</ele>
        <time>2012-01-15T10:38:05Z</time>
      </trkpt>
      <trkpt lat="47.2966" lon="4.94005">
        <ele>465</ele>
        <time>2012-01-15T10:38:09Z</time>
      </trkpt>
      <trkpt lat="47.29675" lon="4.94008">
        <ele>464</ele>
        <time>2012-01-15T10:38:11Z</time>
      </trkpt>
      <trkpt lat="47.29695" lon="4.9401">
        <ele>464</ele>
        <time>2012-01-15T10:38:15Z</time>
      </trkpt>
      <trkpt lat="47.29713" lon="4.94012">
        <ele>465</ele>
        <time>2012-01-15T10:38:19Z</time>
      </trkpt>
      <trkpt lat="47.29732" lon="4.94012">
        <ele>465</ele>
        <time>2012-01-15T10:38:24Z</time>
      </trkpt>
      <trkpt lat="47.29748" lon="4.94012">
        <ele>465</ele>
        <time>2012-01-15T10:38:28Z</time>
      </trkpt>
      <trkpt lat="47.2977" lon="4.94013">
        <ele>465</ele>
        <time>2012-01-15T10:38:32Z</time>
      </trkpt>
      <trkpt lat="47.29787" lon="4.94012">
        <ele>465</ele>
        <time>2012-01-15T10:38:36Z</time>
      </trkpt>
      <trkpt lat="47.29802" lon="4.94017">
        <ele>465</ele>
        <time>2012-01-15T10:38:40Z</time>
      </trkpt>
      <trkpt lat="47.29818" lon="4.94022">
        <ele>465</ele>
        <time>2012-01-15T10:38:44Z</time>
      </trkpt>
      <trkpt lat="47.29837" lon="4.9402">
        <ele>465</ele>
        <time>2012-01-15T10:38:48Z</time>
      </trkpt>
      <trkpt lat="47.29857" lon="4.94022">
        <ele>465</ele>
        <time>2012-01-15T10:38:53Z</time>
      </trkpt>
      <trkpt lat="47.29898" lon="4.9402">
        <ele>465</ele>
        <time>2012-01-15T10:38:59Z</time>
      </trkpt>
      <trkpt lat="47.29935" lon="4.94017">
        <ele>465</ele>
        <time>2012-01-15T10:39:05Z</time>
      </trkpt>
      <trkpt lat="47.2996" lon="4.94027">
        <ele>464</ele>
        <time>2012-01-15T10:39:09Z</time>
      </trkpt>
      <trkpt lat="47.29973" lon="4.94033">
        <ele>463</ele>
        <time>2012-01-15T10:39:11Z</time>
      </trkpt>
      <trkpt lat="47.30003" lon="4.94052">
        <ele>460</ele>
        <time>2012-01-15T10:39:16Z</time>
      </trkpt>
      <trkpt lat="47.30033" lon="4.94075">
        <ele>458</ele>
        <time>2012-01-15T10:39:20Z</time>
      </trkpt>
      <trkpt lat="47.3007" lon="4.9411">
        <ele>454</ele>
        <time>2012-01-15T10:39:24Z</time>
      </trkpt>
      <trkpt lat="47.30083" lon="4.94127">
        <ele>453</ele>
        <time>2012-01-15T10:39:26Z</time>
      </trkpt>
      <trkpt lat="47.30108" lon="4.94152">
        <ele>451</ele>
        <time>2012-01-15T10:39:30Z</time>
      </trkpt>
      <trkpt lat="47.3013" lon="4.94168">
        <ele>449</ele>
        <time>2012-01-15T10:39:34Z</time>
      </trkpt>
      <trkpt lat="47.30148" lon="4.94182">
        <ele>447</ele>
        <time>2012-01-15T10:39:39Z</time>
      </trkpt>
      <trkpt lat="47.30152" lon="4.94207">
        <ele>446</ele>
        <time>2012-01-15T10:39:43Z</time>
      </trkpt>
      <trkpt lat="47.30178" lon="4.9441">
        <ele>433</ele>
        <time>2012-01-15T10:40:03Z</time>
      </trkpt>
      <trkpt lat="47.3018" lon="4.9443">
        <ele>432</ele>
        <time>2012-01-15T10:40:06Z</time>
      </trkpt>
      <trkpt lat="47.3018" lon="4.94463">
        <ele>430</ele>
        <time>2012-01-15T10:40:10Z</time>
      </trkpt>
      <trkpt lat="47.30175" lon="4.94508">
        <ele>427</ele>
        <time>2012-01-15T10:40:14Z</time>
      </trkpt>
      <trkpt lat="47.30168" lon="4.9454">
        <ele>426</ele>
        <time>2012-01-15T10:40:18Z</time>
      </trkpt>
      <trkpt lat="47.30155" lon="4.94592">
        <ele>423</ele>
        <time>2012-01-15T10:40:24Z</time>
      </trkpt>
      <trkpt lat="47.30142" lon="4.9464">
        <ele>420</ele>
        <time>2012-01-15T10:40:31Z</time>
      </trkpt>
      <trkpt lat="47.30122" lon="4.94705">
        <ele>416</ele>
        <time>2012-01-15T10:40:39Z</time>
      </trkpt>
      <trkpt lat="47.30112" lon="4.94742">
        <ele>415</ele>
        <time>2012-01-15T10:40:47Z</time>
      </trkpt>
      <trkpt lat="47.30105" lon="4.94765">
        <ele>414</ele>
        <time>2012-01-15T10:40:54Z</time>
      </trkpt>
      <trkpt lat="47.30098" lon="4.94783">
        <ele>414</ele>
        <time>2012-01-15T10:40:58Z</time>
      </trkpt>
      <trkpt lat="47.3009" lon="4.94805">
        <ele>414</ele>
        <time>2012-01-15T10:41:02Z</time>
      </trkpt>
      <trkpt lat="47.30082" lon="4.94828">
        <ele>414</ele>
        <time>2012-01-15T10:41:08Z</time>
      </trkpt>
      <trkpt lat="47.30072" lon="4.94842">
        <ele>414</ele>
        <time>2012-01-15T10:41:12Z</time>
      </trkpt>
      <trkpt lat="47.30057" lon="4.94853">
        <ele>415</ele>
        <time>2012-01-15T10:41:17Z</time>
      </trkpt>
      <trkpt lat="47.30043" lon="4.94875">
        <ele>416</ele>
        <time>2012-01-15T10:41:21Z</time>
      </trkpt>
      <trkpt lat="47.30043" lon="4.949">
        <ele>414</ele>
        <time>2012-01-15T10:41:25Z</time>
      </trkpt>
      <trkpt lat="47.30052" lon="4.94925">
        <ele>414</ele>
        <time>2012-01-15T10:41:29Z</time>
      </trkpt>
      <trkpt lat="47.30058" lon="4.94947">
        <ele>414</ele>
        <time>2012-01-15T10:41:33Z</time>
      </trkpt>
      <trkpt lat="47.30063" lon="4.94968">
        <ele>413</ele>
        <time>2012-01-15T10:41:37Z</time>
      </trkpt>
      <trkpt lat="47.30067" lon="4.9499">
        <ele>413</ele>
        <time>2012-01-15T10:41:42Z</time>
      </trkpt>
      <trkpt lat="47.30068" lon="4.95012">
        <ele>413</ele>
        <time>2012-01-15T10:41:46Z</time>
      </trkpt>
      <trkpt lat="47.30073" lon="4.95038">
        <ele>413</ele>
        <time>2012-01-15T10:41:50Z</time>
      </trkpt>
      <trkpt lat="47.30075" lon="4.9506">
        <ele>413</ele>
        <time>2012-01-15T10:41:54Z</time>
      </trkpt>
      <trkpt lat="47.30087" lon="4.95182">
        <ele>413</ele>
        <time>2012-01-15T10:42:17Z</time>
      </trkpt>
      <trkpt lat="47.3009" lon="4.95202">
        <ele>414</ele>
        <time>2012-01-15T10:42:26Z</time>
      </trkpt>
      <trkpt lat="47.3009" lon="4.95227">
        <ele>415</ele>
        <time>2012-01-15T10:42:34Z</time>
      </trkpt>
      <trkpt lat="47.30092" lon="4.95257">
        <ele>416</ele>
        <time>2012-01-15T10:42:42Z</time>
      </trkpt>
      <trkpt lat="47.30095" lon="4.95283">
        <ele>415</ele>
        <time>2012-01-15T10:42:48Z</time>
      </trkpt>
      <trkpt lat="47.30097" lon="4.95303">
        <ele>416</ele>
        <time>2012-01-15T10:42:53Z</time>
      </trkpt>
      <trkpt lat="47.30108" lon="4.95385">
        <ele>416</ele>
        <time>2012-01-15T10:43:11Z</time>
      </trkpt>
      <trkpt lat="47.30108" lon="4.9541">
        <ele>416</ele>
        <time>2012-01-15T10:43:18Z</time>
      </trkpt>
      <trkpt lat="47.30112" lon="4.9543">
        <ele>417</ele>
        <time>2012-01-15T10:43:24Z</time>
      </trkpt>
      <trkpt lat="47.30113" lon="4.95453">
        <ele>417</ele>
        <time>2012-01-15T10:43:30Z</time>
      </trkpt>
      <trkpt lat="47.30115" lon="4.95473">
        <ele>418</ele>
        <time>2012-01-15T10:43:36Z</time>
      </trkpt>
      <trkpt lat="47.30115" lon="4.95497">
        <ele>418</ele>
        <time>2012-01-15T10:43:45Z</time>
      </trkpt>
      <trkpt lat="47.30115" lon="4.95535">
        <ele>420</ele>
        <time>2012-01-15T10:43:57Z</time>
      </trkpt>
      <trkpt lat="47.30115" lon="4.95568">
        <ele>423</ele>
        <time>2012-01-15T10:44:08Z</time>
      </trkpt>
      <trkpt lat="47.30115" lon="4.95593">
        <ele>425</ele>
        <time>2012-01-15T10:44:16Z</time>
      </trkpt>
      <trkpt lat="47.30115" lon="4.95635">
        <ele>426</ele>
        <time>2012-01-15T10:44:29Z</time>
      </trkpt>
      <trkpt lat="47.30117" lon="4.9566">
        <ele>426</ele>
        <time>2012-01-15T10:44:35Z</time>
      </trkpt>
      <trkpt lat="47.30117" lon="4.95687">
        <ele>427</ele>
        <time>2012-01-15T10:44:44Z</time>
      </trkpt>
      <trkpt lat="47.30118" lon="4.95718">
        <ele>428</ele>
        <time>2012-01-15T10:44:52Z</time>
      </trkpt>
      <trkpt lat="47.3012" lon="4.95745">
        <ele>429</ele>
        <time>2012-01-15T10:45:00Z</time>
      </trkpt>
      <trkpt lat="47.3012" lon="4.95765">
        <ele>431</ele>
        <time>2012-01-15T10:45:07Z</time>
      </trkpt>
      <trkpt lat="47.30117" lon="4.95787">
        <ele>432</ele>
        <time>2012-01-15T10:45:13Z</time>
      </trkpt>
      <trkpt lat="47.30112" lon="4.95812">
        <ele>432</ele>
        <time>2012-01-15T10:45:21Z</time>
      </trkpt>
      <trkpt lat="47.30105" lon="4.9583">
        <ele>432</ele>
        <time>2012-01-15T10:45:28Z</time>
      </trkpt>
      <trkpt lat="47.30092" lon="4.95865">
        <ele>432</ele>
        <time>2012-01-15T10:45:38Z</time>
      </trkpt>
      <trkpt lat="47.30082" lon="4.95882">
        <ele>432</ele>
        <time>2012-01-15T10:45:45Z</time>
      </trkpt>
      <trkpt lat="47.3007" lon="4.95898">
        <ele>432</ele>
        <time>2012-01-15T10:45:51Z</time>
      </trkpt>
      <trkpt lat="47.30055" lon="4.95917">
        <ele>432</ele>
        <time>2012-01-15T10:45:57Z</time>
      </trkpt>
      <trkpt lat="47.30045" lon="4.95937">
        <ele>432</ele>
        <time>2012-01-15T10:46:03Z</time>
      </trkpt>
      <trkpt lat="47.30037" lon="4.95963">
        <ele>432</ele>
        <time>2012-01-15T10:46:10Z</time>
      </trkpt>
      <trkpt lat="47.30028" lon="4.96002">
        <ele>431</ele>
        <time>2012-01-15T10:46:16Z</time>
      </trkpt>
      <trkpt lat="47.30017" lon="4.96038">
        <ele>430</ele>
        <time>2012-01-15T10:46:22Z</time>
      </trkpt>
      <trkpt lat="47.30012" lon="4.96067">
        <ele>429</ele>
        <time>2012-01-15T10:46:27Z</time>
      </trkpt>
      <trkpt lat="47.30012" lon="4.96098">
        <ele>427</ele>
        <time>2012-01-15T10:46:31Z</time>
      </trkpt>
      <trkpt lat="47.30012" lon="4.96122">
        <ele>427</ele>
        <time>2012-01-15T10:46:33Z</time>
      </trkpt>
      <trkpt lat="47.3001" lon="4.96157">
        <ele>424</ele>
        <time>2012-01-15T10:46:37Z</time>
      </trkpt>
      <trkpt lat="47.3001" lon="4.96188">
        <ele>423</ele>
        <time>2012-01-15T10:46:41Z</time>
      </trkpt>
      <trkpt lat="47.30022" lon="4.96212">
        <ele>423</ele>
        <time>2012-01-15T10:46:46Z</time>
      </trkpt>
      <trkpt lat="47.30035" lon="4.9624">
        <ele>424</ele>
        <time>2012-01-15T10:46:52Z</time>
      </trkpt>
      <trkpt lat="47.30022" lon="4.96263">
        <ele>422</ele>
        <time>2012-01-15T10:46:56Z</time>
      </trkpt>
      <trkpt lat="47.30017" lon="4.96287">
        <ele>421</ele>
        <time>2012-01-15T10:47:00Z</time>
      </trkpt>
      <trkpt lat="47.30025" lon="4.9631">
        <ele>422</ele>
        <time>2012-01-15T10:47:04Z</time>
      </trkpt>
      <trkpt lat="47.30032" lon="4.96337">
        <ele>426</ele>
        <time>2012-01-15T10:47:11Z</time>
      </trkpt>
      <trkpt lat="47.30042" lon="4.96377">
        <ele>427</ele>
        <time>2012-01-15T10:47:19Z</time>
      </trkpt>
      <trkpt lat="47.30048" lon="4.96408">
        <ele>428</ele>
        <time>2012-01-15T10:47:25Z</time>
      </trkpt>
      <trkpt lat="47.30057" lon="4.96443">
        <ele>429</ele>
        <time>2012-01-15T10:47:34Z</time>
      </trkpt>
      <trkpt lat="47.3008" lon="4.96545">
        <ele>427</ele>
        <time>2012-01-15T10:47:54Z</time>
      </trkpt>
      <trkpt lat="47.3006" lon="4.96555">
        <ele>427</ele>
        <time>2012-01-15T10:48:01Z</time>
      </trkpt>
      <trkpt lat="47.30045" lon="4.9656">
        <ele>426</ele>
        <time>2012-01-15T10:48:05Z</time>
      </trkpt>
      <trkpt lat="47.30018" lon="4.96567">
        <ele>422</ele>
        <time>2012-01-15T10:48:09Z</time>
      </trkpt>
      <trkpt lat="47.29993" lon="4.96572">
        <ele>417</ele>
        <time>2012-01-15T10:48:13Z</time>
      </trkpt>
      <trkpt lat="47.2998" lon="4.96578">
        <ele>415</ele>
        <time>2012-01-15T10:48:15Z</time>
      </trkpt>
      <trkpt lat="47.29967" lon="4.96598">
        <ele>412</ele>
        <time>2012-01-15T10:48:19Z</time>
      </trkpt>
      <trkpt lat="47.29963" lon="4.96625">
        <ele>409</ele>
        <time>2012-01-15T10:48:24Z</time>
      </trkpt>
      <trkpt lat="47.29957" lon="4.96655">
        <ele>407</ele>
        <time>2012-01-15T10:48:28Z</time>
      </trkpt>
      <trkpt lat="47.2994" lon="4.96692">
        <ele>403</ele>
        <time>2012-01-15T10:48:32Z</time>
      </trkpt>
      <trkpt lat="47.29925" lon="4.96717">
        <ele>400</ele>
        <time>2012-01-15T10:48:36Z</time>
      </trkpt>
      <trkpt lat="47.29912" lon="4.96747">
        <ele>398</ele>
        <time>2012-01-15T10:48:40Z</time>
      </trkpt>
      <trkpt lat="47.29892" lon="4.96792">
        <ele>395</ele>
        <time>2012-01-15T10:48:47Z</time>
      </trkpt>
      <trkpt lat="47.29878" lon="4.9683">
        <ele>394</ele>
        <time>2012-01-15T10:48:51Z</time>
      </trkpt>
      <trkpt lat="47.2985" lon="4.96917">
        <ele>393</ele>
        <time>2012-01-15T10:49:01Z</time>
      </trkpt>
      <trkpt lat="47.29842" lon="4.96958">
        <ele>393</ele>
        <time>2012-01-15T10:49:06Z</time>
      </trkpt>
      <trkpt lat="47.29838" lon="4.96978">
        <ele>392</ele>
        <time>2012-01-15T10:49:08Z</time>
      </trkpt>
      <trkpt lat="47.2983" lon="4.97038">
        <ele>391</ele>
        <time>2012-01-15T10:49:14Z</time>
      </trkpt>
      <trkpt lat="47.29832" lon="4.97068">
        <ele>392</ele>
        <time>2012-01-15T10:49:16Z</time>
      </trkpt>
      <trkpt lat="47.29838" lon="4.97137">
        <ele>391</ele>
        <time>2012-01-15T10:49:24Z</time>
      </trkpt>
      <trkpt lat="47.2984" lon="4.9718">
        <ele>394</ele>
        <time>2012-01-15T10:49:33Z</time>
      </trkpt>
      <trkpt lat="47.29825" lon="4.97182">
        <ele>396</ele>
        <time>2012-01-15T10:49:41Z</time>
      </trkpt>
      <trkpt lat="47.29808" lon="4.97188">
        <ele>397</ele>
        <time>2012-01-15T10:49:49Z</time>
      </trkpt>
      <trkpt lat="47.29782" lon="4.97193">
        <ele>397</ele>
        <time>2012-01-15T10:50:00Z</time>
      </trkpt>
      <trkpt lat="47.29768" lon="4.97187">
        <ele>397</ele>
        <time>2012-01-15T10:50:06Z</time>
      </trkpt>
      <trkpt lat="47.29755" lon="4.9718">
        <ele>397</ele>
        <time>2012-01-15T10:50:10Z</time>
      </trkpt>
      <trkpt lat="47.2974" lon="4.97175">
        <ele>397</ele>
        <time>2012-01-15T10:50:14Z</time>
      </trkpt>
      <trkpt lat="47.29723" lon="4.97178">
        <ele>396</ele>
        <time>2012-01-15T10:50:19Z</time>
      </trkpt>
      <trkpt lat="47.29708" lon="4.97183">
        <ele>396</ele>
        <time>2012-01-15T10:50:23Z</time>
      </trkpt>
      <trkpt lat="47.29692" lon="4.97195">
        <ele>395</ele>
        <time>2012-01-15T10:50:27Z</time>
      </trkpt>
      <trkpt lat="47.29677" lon="4.97207">
        <ele>396</ele>
        <time>2012-01-15T10:50:33Z</time>
      </trkpt>
      <trkpt lat="47.29662" lon="4.97185">
        <ele>396</ele>
        <time>2012-01-15T10:50:50Z</time>
      </trkpt>
      <trkpt lat="47.29643" lon="4.97173">
        <ele>396</ele>
        <time>2012-01-15T10:50:56Z</time>
      </trkpt>
      <trkpt lat="47.29633" lon="4.97157">
        <ele>396</ele>
        <time>2012-01-15T10:51:00Z</time>
      </trkpt>
      <trkpt lat="47.29623" lon="4.97138">
        <ele>396</ele>
        <time>2012-01-15T10:51:04Z</time>
      </trkpt>
      <trkpt lat="47.29612" lon="4.97122">
        <ele>395</ele>
        <time>2012-01-15T10:51:09Z</time>
      </trkpt>
      <trkpt lat="47.29593" lon="4.9711">
        <ele>393</ele>
        <time>2012-01-15T10:51:17Z</time>
      </trkpt>
      <trkpt lat="47.29587" lon="4.97087">
        <ele>391</ele>
        <time>2012-01-15T10:51:28Z</time>
      </trkpt>
      <trkpt lat="47.2957" lon="4.97082">
        <ele>390</ele>
        <time>2012-01-15T10:51:38Z</time>
      </trkpt>
      <trkpt lat="47.29553" lon="4.97085">
        <ele>389</ele>
        <time>2012-01-15T10:51:46Z</time>
      </trkpt>
      <trkpt lat="47.2954" lon="4.97092">
        <ele>389</ele>
        <time>2012-01-15T10:51:53Z</time>
      </trkpt>
      <trkpt lat="47.29525" lon="4.97105">
        <ele>389</ele>
        <time>2012-01-15T10:51:59Z</time>
      </trkpt>
      <trkpt lat="47.29513" lon="4.97122">
        <ele>389</ele>
        <time>2012-01-15T10:52:05Z</time>
      </trkpt>
      <trkpt lat="47.295" lon="4.97143">
        <ele>389</ele>
        <time>2012-01-15T10:52:11Z</time>
      </trkpt>
      <trkpt lat="47.29493" lon="4.97165">
        <ele>389</ele>
        <time>2012-01-15T10:52:20Z</time>
      </trkpt>
      <trkpt lat="47.29482" lon="4.97178">
        <ele>389</ele>
        <time>2012-01-15T10:52:28Z</time>
      </trkpt>
      <trkpt lat="47.2947" lon="4.97198">
        <ele>391</ele>
        <time>2012-01-15T10:52:37Z</time>
      </trkpt>
      <trkpt lat="47.29457" lon="4.97213">
        <ele>392</ele>
        <time>2012-01-15T10:52:49Z</time>
      </trkpt>
      <trkpt lat="47.29447" lon="4.9723">
        <ele>393</ele>
        <time>2012-01-15T10:52:58Z</time>
      </trkpt>
      <trkpt lat="47.29428" lon="4.97243">
        <ele>395</ele>
        <time>2012-01-15T10:53:06Z</time>
      </trkpt>
      <trkpt lat="47.29415" lon="4.97257">
        <ele>395</ele>
        <time>2012-01-15T10:53:12Z</time>
      </trkpt>
      <trkpt lat="47.29402" lon="4.97273">
        <ele>394</ele>
        <time>2012-01-15T10:53:19Z</time>
      </trkpt>
      <trkpt lat="47.29388" lon="4.9729">
        <ele>393</ele>
        <time>2012-01-15T10:53:25Z</time>
      </trkpt>
      <trkpt lat="47.29373" lon="4.97302">
        <ele>392</ele>
        <time>2012-01-15T10:53:29Z</time>
      </trkpt>
      <trkpt lat="47.29362" lon="4.9732">
        <ele>392</ele>
        <time>2012-01-15T10:53:33Z</time>
      </trkpt>
      <trkpt lat="47.29345" lon="4.97347">
        <ele>391</ele>
        <time>2012-01-15T10:53:39Z</time>
      </trkpt>
      <trkpt lat="47.29335" lon="4.97367">
        <ele>390</ele>
        <time>2012-01-15T10:53:44Z</time>
      </trkpt>
      <trkpt lat="47.29325" lon="4.97383">
        <ele>390</ele>
        <time>2012-01-15T10:53:48Z</time>
      </trkpt>
      <trkpt lat="47.29317" lon="4.97402">
        <ele>391</ele>
        <time>2012-01-15T10:53:52Z</time>
      </trkpt>
      <trkpt lat="47.29298" lon="4.97433">
        <ele>391</ele>
        <time>2012-01-15T10:53:58Z</time>
      </trkpt>
      <trkpt lat="47.29285" lon="4.97448">
        <ele>391</ele>
        <time>2012-01-15T10:54:02Z</time>
      </trkpt>
      <trkpt lat="47.29275" lon="4.97468">
        <ele>390</ele>
        <time>2012-01-15T10:54:07Z</time>
      </trkpt>
      <trkpt lat="47.29265" lon="4.97485">
        <ele>390</ele>
        <time>2012-01-15T10:54:11Z</time>
      </trkpt>
      <trkpt lat="47.29253" lon="4.97507">
        <ele>390</ele>
        <time>2012-01-15T10:54:15Z</time>
      </trkpt>
      <trkpt lat="47.29247" lon="4.97527">
        <ele>389</ele>
        <time>2012-01-15T10:54:19Z</time>
      </trkpt>
      <trkpt lat="47.29242" lon="4.97547">
        <ele>388</ele>
        <time>2012-01-15T10:54:23Z</time>
      </trkpt>
      <trkpt lat="47.2924" lon="4.97572">
        <ele>387</ele>
        <time>2012-01-15T10:54:28Z</time>
      </trkpt>
      <trkpt lat="47.29243" lon="4.97602">
        <ele>386</ele>
        <time>2012-01-15T10:54:32Z</time>
      </trkpt>
      <trkpt lat="47.29253" lon="4.97642">
        <ele>384</ele>
        <time>2012-01-15T10:54:36Z</time>
      </trkpt>
      <trkpt lat="47.29262" lon="4.97668">
        <ele>382</ele>
        <time>2012-01-15T10:54:40Z</time>
      </trkpt>
      <trkpt lat="47.29268" lon="4.97687">
        <ele>382</ele>
        <time>2012-01-15T10:54:44Z</time>
      </trkpt>
      <trkpt lat="47.29277" lon="4.97707">
        <ele>380</ele>
        <time>2012-01-15T10:54:49Z</time>
      </trkpt>
      <trkpt lat="47.29287" lon="4.9772">
        <ele>380</ele>
        <time>2012-01-15T10:54:53Z</time>
      </trkpt>
      <trkpt lat="47.29302" lon="4.97738">
        <ele>380</ele>
        <time>2012-01-15T10:54:57Z</time>
      </trkpt>
      <trkpt lat="47.29312" lon="4.97755">
        <ele>379</ele>
        <time>2012-01-15T10:55:05Z</time>
      </trkpt>
      <trkpt lat="47.2932" lon="4.97772">
        <ele>379</ele>
        <time>2012-01-15T10:55:16Z</time>
      </trkpt>
      <trkpt lat="47.29335" lon="4.97777">
        <ele>384</ele>
        <time>2012-01-15T10:55:28Z</time>
      </trkpt>
      <trkpt lat="47.29348" lon="4.97783">
        <ele>386</ele>
        <time>2012-01-15T10:55:47Z</time>
      </trkpt>
      <trkpt lat="47.29362" lon="4.97795">
        <ele>387</ele>
        <time>2012-01-15T10:56:04Z</time>
      </trkpt>
      <trkpt lat="47.29367" lon="4.97817">
        <ele>386</ele>
        <time>2012-01-15T10:56:12Z</time>
      </trkpt>
      <trkpt lat="47.29363" lon="4.97837">
        <ele>385</ele>
        <time>2012-01-15T10:56:16Z</time>
      </trkpt>
      <trkpt lat="47.29358" lon="4.9786">
        <ele>386</ele>
        <time>2012-01-15T10:56:23Z</time>
      </trkpt>
      <trkpt lat="47.2934" lon="4.97863">
        <ele>390</ele>
        <time>2012-01-15T10:56:31Z</time>
      </trkpt>
      <trkpt lat="47.29322" lon="4.97862">
        <ele>391</ele>
        <time>2012-01-15T10:56:37Z</time>
      </trkpt>
      <trkpt lat="47.29303" lon="4.97862">
        <ele>391</ele>
        <time>2012-01-15T10:56:44Z</time>
      </trkpt>
      <trkpt lat="47.29282" lon="4.9787">
        <ele>392</ele>
        <time>2012-01-15T10:56:50Z</time>
      </trkpt>
      <trkpt lat="47.29268" lon="4.97877">
        <ele>396</ele>
        <time>2012-01-15T10:56:56Z</time>
      </trkpt>
      <trkpt lat="47.29257" lon="4.97888">
        <ele>398</ele>
        <time>2012-01-15T10:57:03Z</time>
      </trkpt>
      <trkpt lat="47.29243" lon="4.97908">
        <ele>396</ele>
        <time>2012-01-15T10:57:09Z</time>
      </trkpt>
      <trkpt lat="47.29238" lon="4.9793">
        <ele>393</ele>
        <time>2012-01-15T10:57:13Z</time>
      </trkpt>
      <trkpt lat="47.29243" lon="4.97953">
        <ele>390</ele>
        <time>2012-01-15T10:57:17Z</time>
      </trkpt>
      <trkpt lat="47.29252" lon="4.97972">
        <ele>389</ele>
        <time>2012-01-15T10:57:22Z</time>
      </trkpt>
      <trkpt lat="47.29275" lon="4.98023">
        <ele>387</ele>
        <time>2012-01-15T10:57:32Z</time>
      </trkpt>
      <trkpt lat="47.29285" lon="4.9804">
        <ele>386</ele>
        <time>2012-01-15T10:57:36Z</time>
      </trkpt>
      <trkpt lat="47.29292" lon="4.98062">
        <ele>385</ele>
        <time>2012-01-15T10:57:40Z</time>
      </trkpt>
      <trkpt lat="47.29302" lon="4.98085">
        <ele>384</ele>
        <time>2012-01-15T10:57:45Z</time>
      </trkpt>
      <trkpt lat="47.29318" lon="4.98117">
        <ele>384</ele>
        <time>2012-01-15T10:57:51Z</time>
      </trkpt>
      <trkpt lat="47.29332" lon="4.98138">
        <ele>385</ele>
        <time>2012-01-15T10:57:57Z</time>
      </trkpt>
      <trkpt lat="47.29347" lon="4.98155">
        <ele>386</ele>
        <time>2012-01-15T10:58:04Z</time>
      </trkpt>
      <trkpt lat="47.29365" lon="4.98182">
        <ele>386</ele>
        <time>2012-01-15T10:58:12Z</time>
      </trkpt>
      <trkpt lat="47.29372" lon="4.98203">
        <ele>385</ele>
        <time>2012-01-15T10:58:16Z</time>
      </trkpt>
      <trkpt lat="47.29385" lon="4.9822">
        <ele>385</ele>
        <time>2012-01-15T10:58:22Z</time>
      </trkpt>
      <trkpt lat="47.29398" lon="4.98237">
        <ele>386</ele>
        <time>2012-01-15T10:58:29Z</time>
      </trkpt>
      <trkpt lat="47.29412" lon="4.98258">
        <ele>387</ele>
        <time>2012-01-15T10:58:35Z</time>
      </trkpt>
      <trkpt lat="47.29417" lon="4.9828">
        <ele>385</ele>
        <time>2012-01-15T10:58:39Z</time>
      </trkpt>
      <trkpt lat="47.29432" lon="4.98287">
        <ele>386</ele>
        <time>2012-01-15T10:58:43Z</time>
      </trkpt>
      <trkpt lat="47.29448" lon="4.98298">
        <ele>386</ele>
        <time>2012-01-15T10:58:50Z</time>
      </trkpt>
      <trkpt lat="47.29463" lon="4.98318">
        <ele>386</ele>
        <time>2012-01-15T10:58:56Z</time>
      </trkpt>
      <trkpt lat="47.29478" lon="4.9833">
        <ele>386</ele>
        <time>2012-01-15T10:59:00Z</time>
      </trkpt>
      <trkpt lat="47.29498" lon="4.98342">
        <ele>387</ele>
        <time>2012-01-15T10:59:08Z</time>
      </trkpt>
      <trkpt lat="47.29513" lon="4.98352">
        <ele>386</ele>
        <time>2012-01-15T10:59:13Z</time>
      </trkpt>
      <trkpt lat="47.29527" lon="4.9836">
        <ele>386</ele>
        <time>2012-01-15T10:59:23Z</time>
      </trkpt>
      <trkpt lat="47.29538" lon="4.9837">
        <ele>385</ele>
        <time>2012-01-15T10:59:29Z</time>
      </trkpt>
      <trkpt lat="47.29542" lon="4.98393">
        <ele>388</ele>
        <time>2012-01-15T10:59:38Z</time>
      </trkpt>
      <trkpt lat="47.2955" lon="4.98412">
        <ele>390</ele>
        <time>2012-01-15T10:59:46Z</time>
      </trkpt>
      <trkpt lat="47.29565" lon="4.98417">
        <ele>392</ele>
        <time>2012-01-15T10:59:55Z</time>
      </trkpt>
      <trkpt lat="47.2958" lon="4.98428">
        <ele>392</ele>
        <time>2012-01-15T11:00:01Z</time>
      </trkpt>
      <trkpt lat="47.29595" lon="4.98443">
        <ele>392</ele>
        <time>2012-01-15T11:00:09Z</time>
      </trkpt>
      <trkpt lat="47.2959" lon="4.9847">
        <ele>391</ele>
        <time>2012-01-15T11:00:22Z</time>
      </trkpt>
      <trkpt lat="47.29578" lon="4.98483">
        <ele>390</ele>
        <time>2012-01-15T11:00:28Z</time>
      </trkpt>
      <trkpt lat="47.29563" lon="4.98492">
        <ele>394</ele>
        <time>2012-01-15T11:00:55Z</time>
      </trkpt>
      <trkpt lat="47.29547" lon="4.98503">
        <ele>392</ele>
        <time>2012-01-15T11:01:02Z</time>
      </trkpt>
      <trkpt lat="47.2953" lon="4.98512">
        <ele>391</ele>
        <time>2012-01-15T11:01:14Z</time>
      </trkpt>
      <trkpt lat="47.29488" lon="4.98532">
        <ele>391</ele>
        <time>2012-01-15T11:01:52Z</time>
      </trkpt>
      <trkpt lat="47.29443" lon="4.98555">
        <ele>388</ele>
        <time>2012-01-15T11:02:05Z</time>
      </trkpt>
      <trkpt lat="47.29393" lon="4.98582">
        <ele>386</ele>
        <time>2012-01-15T11:02:17Z</time>
      </trkpt>
      <trkpt lat="47.293" lon="4.9863">
        <ele>381</ele>
        <time>2012-01-15T11:02:40Z</time>
      </trkpt>
      <trkpt lat="47.29297" lon="4.98652">
        <ele>380</ele>
        <time>2012-01-15T11:02:51Z</time>
      </trkpt>
      <trkpt lat="47.29303" lon="4.9867">
        <ele>379</ele>
        <time>2012-01-15T11:02:59Z</time>
      </trkpt>
      <trkpt lat="47.29305" lon="4.9869">
        <ele>378</ele>
        <time>2012-01-15T11:03:10Z</time>
      </trkpt>
      <trkpt lat="47.2932" lon="4.98695">
        <ele>379</ele>
        <time>2012-01-15T11:03:16Z</time>
      </trkpt>
      <trkpt lat="47.29333" lon="4.98702">
        <ele>380</ele>
        <time>2012-01-15T11:03:22Z</time>
      </trkpt>
      <trkpt lat="47.29347" lon="4.98708">
        <ele>381</ele>
        <time>2012-01-15T11:03:29Z</time>
      </trkpt>
      <trkpt lat="47.29377" lon="4.98723">
        <ele>382</ele>
        <time>2012-01-15T11:03:41Z</time>
      </trkpt>
      <trkpt lat="47.29393" lon="4.9873">
        <ele>382</ele>
        <time>2012-01-15T11:03:54Z</time>
      </trkpt>
      <trkpt lat="47.29417" lon="4.98743">
        <ele>383</ele>
        <time>2012-01-15T11:04:02Z</time>
      </trkpt>
      <trkpt lat="47.29452" lon="4.9876">
        <ele>384</ele>
        <time>2012-01-15T11:04:15Z</time>
      </trkpt>
      <trkpt lat="47.29532" lon="4.98795">
        <ele>385</ele>
        <time>2012-01-15T11:04:38Z</time>
      </trkpt>
      <trkpt lat="47.29547" lon="4.98805">
        <ele>386</ele>
        <time>2012-01-15T11:04:42Z</time>
      </trkpt>
      <trkpt lat="47.2958" lon="4.98825">
        <ele>386</ele>
        <time>2012-01-15T11:04:52Z</time>
      </trkpt>
      <trkpt lat="47.29595" lon="4.98837">
        <ele>386</ele>
        <time>2012-01-15T11:04:59Z</time>
      </trkpt>
      <trkpt lat="47.29592" lon="4.98865">
        <ele>387</ele>
        <time>2012-01-15T11:05:05Z</time>
      </trkpt>
      <trkpt lat="47.29588" lon="4.98887">
        <ele>386</ele>
        <time>2012-01-15T11:05:09Z</time>
      </trkpt>
      <trkpt lat="47.2958" lon="4.98925">
        <ele>384</ele>
        <time>2012-01-15T11:05:15Z</time>
      </trkpt>
      <trkpt lat="47.29568" lon="4.98948">
        <ele>383</ele>
        <time>2012-01-15T11:05:20Z</time>
      </trkpt>
      <trkpt lat="47.29558" lon="4.9897">
        <ele>382</ele>
        <time>2012-01-15T11:05:24Z</time>
      </trkpt>
      <trkpt lat="47.29548" lon="4.98983">
        <ele>381</ele>
        <time>2012-01-15T11:05:26Z</time>
      </trkpt>
      <trkpt lat="47.29562" lon="4.9899">
        <ele>380</ele>
        <time>2012-01-15T11:05:37Z</time>
      </trkpt>
      <trkpt lat="47.29578" lon="4.98987">
        <ele>381</ele>
        <time>2012-01-15T11:05:43Z</time>
      </trkpt>
      <trkpt lat="47.29597" lon="4.98987">
        <ele>382</ele>
        <time>2012-01-15T11:05:49Z</time>
      </trkpt>
      <trkpt lat="47.2961" lon="4.98983">
        <ele>383</ele>
        <time>2012-01-15T11:05:55Z</time>
      </trkpt>
      <trkpt lat="47.2963" lon="4.98987">
        <ele>384</ele>
        <time>2012-01-15T11:06:08Z</time>
      </trkpt>
      <trkpt lat="47.2964" lon="4.9901">
        <ele>382</ele>
        <time>2012-01-15T11:06:18Z</time>
      </trkpt>
      <trkpt lat="47.29638" lon="4.99037">
        <ele>381</ele>
        <time>2012-01-15T11:06:25Z</time>
      </trkpt>
      <trkpt lat="47.29642" lon="4.99058">
        <ele>382</ele>
        <time>2012-01-15T11:06:29Z</time>
      </trkpt>
      <trkpt lat="47.29645" lon="4.9909">
        <ele>384</ele>
        <time>2012-01-15T11:06:33Z</time>
      </trkpt>
      <trkpt lat="47.29648" lon="4.99143">
        <ele>384</ele>
        <time>2012-01-15T11:06:42Z</time>
      </trkpt>
      <trkpt lat="47.29652" lon="4.99172">
        <ele>384</ele>
        <time>2012-01-15T11:06:46Z</time>
      </trkpt>
      <trkpt lat="47.29655" lon="4.99212">
        <ele>382</ele>
        <time>2012-01-15T11:06:52Z</time>
      </trkpt>
      <trkpt lat="47.29653" lon="4.99232">
        <ele>379</ele>
        <time>2012-01-15T11:06:56Z</time>
      </trkpt>
      <trkpt lat="47.29652" lon="4.99255">
        <ele>376</ele>
        <time>2012-01-15T11:07:03Z</time>
      </trkpt>
      <trkpt lat="47.2965" lon="4.99283">
        <ele>375</ele>
        <time>2012-01-15T11:07:09Z</time>
      </trkpt>
      <trkpt lat="47.29642" lon="4.993">
        <ele>374</ele>
        <time>2012-01-15T11:07:11Z</time>
      </trkpt>
      <trkpt lat="47.29625" lon="4.99337">
        <ele>373</ele>
        <time>2012-01-15T11:07:19Z</time>
      </trkpt>
      <trkpt lat="47.2962" lon="4.99357">
        <ele>369</ele>
        <time>2012-01-15T11:07:26Z</time>
      </trkpt>
      <trkpt lat="47.29628" lon="4.99378">
        <ele>366</ele>
        <time>2012-01-15T11:07:32Z</time>
      </trkpt>
      <trkpt lat="47.29612" lon="4.99375">
        <ele>370</ele>
        <time>2012-01-15T11:07:44Z</time>
      </trkpt>
      <trkpt lat="47.296" lon="4.9939">
        <ele>370</ele>
        <time>2012-01-15T11:07:48Z</time>
      </trkpt>
      <trkpt lat="47.29585" lon="4.99415">
        <ele>367</ele>
        <time>2012-01-15T11:07:53Z</time>
      </trkpt>
      <trkpt lat="47.29575" lon="4.99437">
        <ele>364</ele>
        <time>2012-01-15T11:07:57Z</time>
      </trkpt>
      <trkpt lat="47.29552" lon="4.9948">
        <ele>358</ele>
        <time>2012-01-15T11:08:05Z</time>
      </trkpt>
      <trkpt lat="47.29542" lon="4.99497">
        <ele>353</ele>
        <time>2012-01-15T11:08:18Z</time>
      </trkpt>
      <trkpt lat="47.29528" lon="4.99493">
        <ele>355</ele>
        <time>2012-01-15T11:08:24Z</time>
      </trkpt>
      <trkpt lat="47.2951" lon="4.99488">
        <ele>359</ele>
        <time>2012-01-15T11:08:30Z</time>
      </trkpt>
      <trkpt lat="47.29493" lon="4.99487">
        <ele>360</ele>
        <time>2012-01-15T11:08:34Z</time>
      </trkpt>
      <trkpt lat="47.29468" lon="4.99485">
        <ele>362</ele>
        <time>2012-01-15T11:08:41Z</time>
      </trkpt>
      <trkpt lat="47.29442" lon="4.99487">
        <ele>362</ele>
        <time>2012-01-15T11:08:45Z</time>
      </trkpt>
      <trkpt lat="47.29417" lon="4.9949">
        <ele>359</ele>
        <time>2012-01-15T11:08:53Z</time>
      </trkpt>
      <trkpt lat="47.29407" lon="4.99517">
        <ele>352</ele>
        <time>2012-01-15T11:09:00Z</time>
      </trkpt>
      <trkpt lat="47.29405" lon="4.99543">
        <ele>348</ele>
        <time>2012-01-15T11:09:04Z</time>
      </trkpt>
      <trkpt lat="47.29412" lon="4.9957">
        <ele>341</ele>
        <time>2012-01-15T11:09:08Z</time>
      </trkpt>
      <trkpt lat="47.29413" lon="4.99597">
        <ele>337</ele>
        <time>2012-01-15T11:09:12Z</time>
      </trkpt>
      <trkpt lat="47.29417" lon="4.99623">
        <ele>331</ele>
        <time>2012-01-15T11:09:16Z</time>
      </trkpt>
      <trkpt lat="47.2943" lon="4.99647">
        <ele>328</ele>
        <time>2012-01-15T11:09:21Z</time>
      </trkpt>
      <trkpt lat="47.29442" lon="4.99665">
        <ele>327</ele>
        <time>2012-01-15T11:09:25Z</time>
      </trkpt>
      <trkpt lat="47.29477" lon="4.99712">
        <ele>323</ele>
        <time>2012-01-15T11:09:33Z</time>
      </trkpt>
      <trkpt lat="47.29488" lon="4.99727">
        <ele>322</ele>
        <time>2012-01-15T11:09:37Z</time>
      </trkpt>
      <trkpt lat="47.29498" lon="4.9974">
        <ele>324</ele>
        <time>2012-01-15T11:09:41Z</time>
      </trkpt>
      <trkpt lat="47.29512" lon="4.99747">
        <ele>328</ele>
        <time>2012-01-15T11:09:54Z</time>
      </trkpt>
      <trkpt lat="47.29535" lon="4.99748">
        <ele>335</ele>
        <time>2012-01-15T11:10:13Z</time>
      </trkpt>
      <trkpt lat="47.2955" lon="4.99745">
        <ele>334</ele>
        <time>2012-01-15T11:10:19Z</time>
      </trkpt>
      <trkpt lat="47.29567" lon="4.99742">
        <ele>336</ele>
        <time>2012-01-15T11:10:29Z</time>
      </trkpt>
      <trkpt lat="47.29587" lon="4.99742">
        <ele>337</ele>
        <time>2012-01-15T11:10:40Z</time>
      </trkpt>
      <trkpt lat="47.29603" lon="4.99747">
        <ele>340</ele>
        <time>2012-01-15T11:10:48Z</time>
      </trkpt>
      <trkpt lat="47.29618" lon="4.99748">
        <ele>335</ele>
        <time>2012-01-15T11:10:57Z</time>
      </trkpt>
      <trkpt lat="47.29633" lon="4.99753">
        <ele>333</ele>
        <time>2012-01-15T11:11:03Z</time>
      </trkpt>
      <trkpt lat="47.29663" lon="4.99762">
        <ele>331</ele>
        <time>2012-01-15T11:11:20Z</time>
      </trkpt>
      <trkpt lat="47.2968" lon="4.9977">
        <ele>334</ele>
        <time>2012-01-15T11:11:28Z</time>
      </trkpt>
      <trkpt lat="47.29693" lon="4.99773">
        <ele>335</ele>
        <time>2012-01-15T11:11:34Z</time>
      </trkpt>
      <trkpt lat="47.29712" lon="4.99778">
        <ele>336</ele>
        <time>2012-01-15T11:11:43Z</time>
      </trkpt>
      <trkpt lat="47.29728" lon="4.99783">
        <ele>337</ele>
        <time>2012-01-15T11:11:49Z</time>
      </trkpt>
      <trkpt lat="47.29743" lon="4.99788">
        <ele>338</ele>
        <time>2012-01-15T11:11:55Z</time>
      </trkpt>
      <trkpt lat="47.29758" lon="4.99795">
        <ele>338</ele>
        <time>2012-01-15T11:12:02Z</time>
      </trkpt>
      <trkpt lat="47.29772" lon="4.99798">
        <ele>339</ele>
        <time>2012-01-15T11:12:08Z</time>
      </trkpt>
      <trkpt lat="47.29785" lon="4.99805">
        <ele>336</ele>
        <time>2012-01-15T11:12:25Z</time>
      </trkpt>
      <trkpt lat="47.29798" lon="4.99808">
        <ele>338</ele>
        <time>2012-01-15T11:12:35Z</time>
      </trkpt>
      <trkpt lat="47.29815" lon="4.99807">
        <ele>341</ele>
        <time>2012-01-15T11:12:45Z</time>
      </trkpt>
      <trkpt lat="47.29828" lon="4.99802">
        <ele>340</ele>
        <time>2012-01-15T11:12:54Z</time>
      </trkpt>
      <trkpt lat="47.29842" lon="4.99805">
        <ele>343</ele>
        <time>2012-01-15T11:13:17Z</time>
      </trkpt>
      <trkpt lat="47.29855" lon="4.99802">
        <ele>346</ele>
        <time>2012-01-15T11:13:29Z</time>
      </trkpt>
      <trkpt lat="47.2987" lon="4.998">
        <ele>345</ele>
        <time>2012-01-15T11:13:38Z</time>
      </trkpt>
      <trkpt lat="47.29885" lon="4.99797">
        <ele>341</ele>
        <time>2012-01-15T11:13:46Z</time>
      </trkpt>
      <trkpt lat="47.29893" lon="4.9982">
        <ele>335</ele>
        <time>2012-01-15T11:14:05Z</time>
      </trkpt>
      <trkpt lat="47.29893" lon="4.99842">
        <ele>330</ele>
        <time>2012-01-15T11:14:09Z</time>
      </trkpt>
      <trkpt lat="47.29902" lon="4.99867">
        <ele>325</ele>
        <time>2012-01-15T11:14:15Z</time>
      </trkpt>
      <trkpt lat="47.2991" lon="4.99883">
        <ele>322</ele>
        <time>2012-01-15T11:14:20Z</time>
      </trkpt>
      <trkpt lat="47.29922" lon="4.99898">
        <ele>317</ele>
        <time>2012-01-15T11:14:24Z</time>
      </trkpt>
      <trkpt lat="47.29923" lon="4.99923">
        <ele>315</ele>
        <time>2012-01-15T11:14:28Z</time>
      </trkpt>
      <trkpt lat="47.29922" lon="4.9996">
        <ele>312</ele>
        <time>2012-01-15T11:14:32Z</time>
      </trkpt>
      <trkpt lat="47.2992" lon="4.9999">
        <ele>309</ele>
        <time>2012-01-15T11:14:36Z</time>
      </trkpt>
      <trkpt lat="47.29912" lon="5.00028">
        <ele>304</ele>
        <time>2012-01-15T11:14:40Z</time>
      </trkpt>
      <trkpt lat="47.29905" lon="5.00067">
        <ele>298</ele>
        <time>2012-01-15T11:14:45Z</time>
      </trkpt>
      <trkpt lat="47.29912" lon="5.00098">
        <ele>294</ele>
        <time>2012-01-15T11:14:49Z</time>
      </trkpt>
      <trkpt lat="47.29925" lon="5.00122">
        <ele>291</ele>
        <time>2012-01-15T11:14:53Z</time>
      </trkpt>
      <trkpt lat="47.29942" lon="5.00122">
        <ele>291</ele>
        <time>2012-01-15T11:14:59Z</time>
      </trkpt>
      <trkpt lat="47.29967" lon="5.00122">
        <ele>291</ele>
        <time>2012-01-15T11:15:06Z</time>
      </trkpt>
      <trkpt lat="47.29985" lon="5.00122">
        <ele>291</ele>
        <time>2012-01-15T11:15:10Z</time>
      </trkpt>
      <trkpt lat="47.30003" lon="5.00125">
        <ele>291</ele>
        <time>2012-01-15T11:15:14Z</time>
      </trkpt>
      <trkpt lat="47.30013" lon="5.00145">
        <ele>291</ele>
        <time>2012-01-15T11:15:20Z</time>
      </trkpt>
      <trkpt lat="47.30008" lon="5.00175">
        <ele>288</ele>
        <time>2012-01-15T11:15:24Z</time>
      </trkpt>
      <trkpt lat="47.3002" lon="5.00198">
        <ele>287</ele>
        <time>2012-01-15T11:15:29Z</time>
      </trkpt>
      <trkpt lat="47.30033" lon="5.00213">
        <ele>286</ele>
        <time>2012-01-15T11:15:33Z</time>
      </trkpt>
      <trkpt lat="47.30063" lon="5.00243">
        <ele>285</ele>
        <time>2012-01-15T11:15:41Z</time>
      </trkpt>
      <trkpt lat="47.30078" lon="5.00255">
        <ele>285</ele>
        <time>2012-01-15T11:15:45Z</time>
      </trkpt>
      <trkpt lat="47.30095" lon="5.00268">
        <ele>286</ele>
        <time>2012-01-15T11:15:52Z</time>
      </trkpt>
      <trkpt lat="47.30112" lon="5.00278">
        <ele>290</ele>
        <time>2012-01-15T11:23:34Z</time>
      </trkpt>
      <trkpt lat="47.30125" lon="5.00285">
        <ele>291</ele>
        <time>2012-01-15T11:23:38Z</time>
      </trkpt>
      <trkpt lat="47.30142" lon="5.00297">
        <ele>291</ele>
        <time>2012-01-15T11:23:42Z</time>
      </trkpt>
      <trkpt lat="47.3016" lon="5.00315">
        <ele>288</ele>
        <time>2012-01-15T11:23:46Z</time>
      </trkpt>
      <trkpt lat="47.30178" lon="5.00332">
        <ele>286</ele>
        <time>2012-01-15T11:23:50Z</time>
      </trkpt>
      <trkpt lat="47.30198" lon="5.00342">
        <ele>285</ele>
        <time>2012-01-15T11:23:54Z</time>
      </trkpt>
      <trkpt lat="47.3024" lon="5.00365">
        <ele>285</ele>
        <time>2012-01-15T11:24:05Z</time>
      </trkpt>
      <trkpt lat="47.30288" lon="5.00393">
        <ele>285</ele>
        <time>2012-01-15T11:24:15Z</time>
      </trkpt>
      <trkpt lat="47.30292" lon="5.00417">
        <ele>282</ele>
        <time>2012-01-15T11:24:20Z</time>
      </trkpt>
      <trkpt lat="47.30293" lon="5.00442">
        <ele>279</ele>
        <time>2012-01-15T11:24:24Z</time>
      </trkpt>
      <trkpt lat="47.30305" lon="5.00463">
        <ele>276</ele>
        <time>2012-01-15T11:24:28Z</time>
      </trkpt>
      <trkpt lat="47.30322" lon="5.00473">
        <ele>275</ele>
        <time>2012-01-15T11:24:32Z</time>
      </trkpt>
      <trkpt lat="47.3034" lon="5.0048">
        <ele>274</ele>
        <time>2012-01-15T11:24:36Z</time>
      </trkpt>
      <trkpt lat="47.30358" lon="5.00485">
        <ele>273</ele>
        <time>2012-01-15T11:24:41Z</time>
      </trkpt>
      <trkpt lat="47.30378" lon="5.00492">
        <ele>272</ele>
        <time>2012-01-15T11:24:45Z</time>
      </trkpt>
      <trkpt lat="47.30393" lon="5.00487">
        <ele>272</ele>
        <time>2012-01-15T11:24:49Z</time>
      </trkpt>
      <trkpt lat="47.3041" lon="5.00483">
        <ele>273</ele>
        <time>2012-01-15T11:24:53Z</time>
      </trkpt>
      <trkpt lat="47.30427" lon="5.00485">
        <ele>273</ele>
        <time>2012-01-15T11:24:57Z</time>
      </trkpt>
      <trkpt lat="47.30463" lon="5.00488">
        <ele>272</ele>
        <time>2012-01-15T11:25:06Z</time>
      </trkpt>
      <trkpt lat="47.30473" lon="5.00502">
        <ele>272</ele>
        <time>2012-01-15T11:25:10Z</time>
      </trkpt>
      <trkpt lat="47.30473" lon="5.00538">
        <ele>270</ele>
        <time>2012-01-15T11:25:14Z</time>
      </trkpt>
      <trkpt lat="47.30477" lon="5.00558">
        <ele>269</ele>
        <time>2012-01-15T11:25:18Z</time>
      </trkpt>
      <trkpt lat="47.30493" lon="5.00558">
        <ele>268</ele>
        <time>2012-01-15T11:25:22Z</time>
      </trkpt>
      <trkpt lat="47.30513" lon="5.00552">
        <ele>267</ele>
        <time>2012-01-15T11:25:27Z</time>
      </trkpt>
      <trkpt lat="47.3053" lon="5.0055">
        <ele>267</ele>
        <time>2012-01-15T11:25:31Z</time>
      </trkpt>
      <trkpt lat="47.30532" lon="5.00575">
        <ele>266</ele>
        <time>2012-01-15T11:25:35Z</time>
      </trkpt>
      <trkpt lat="47.3053" lon="5.00603">
        <ele>265</ele>
        <time>2012-01-15T11:25:39Z</time>
      </trkpt>
      <trkpt lat="47.3053" lon="5.00632">
        <ele>264</ele>
        <time>2012-01-15T11:25:43Z</time>
      </trkpt>
      <trkpt lat="47.30532" lon="5.00665">
        <ele>263</ele>
        <time>2012-01-15T11:25:50Z</time>
      </trkpt>
      <trkpt lat="47.3054" lon="5.00685">
        <ele>262</ele>
        <time>2012-01-15T11:25:56Z</time>
      </trkpt>
      <trkpt lat="47.30557" lon="5.00683">
        <ele>263</ele>
        <time>2012-01-15T11:26:02Z</time>
      </trkpt>
      <trkpt lat="47.30598" lon="5.00683">
        <ele>264</ele>
        <time>2012-01-15T11:26:13Z</time>
      </trkpt>
      <trkpt lat="47.30617" lon="5.00683">
        <ele>262</ele>
        <time>2012-01-15T11:26:17Z</time>
      </trkpt>
      <trkpt lat="47.30622" lon="5.00703">
        <ele>261</ele>
        <time>2012-01-15T11:26:23Z</time>
      </trkpt>
      <trkpt lat="47.3062" lon="5.00732">
        <ele>260</ele>
        <time>2012-01-15T11:26:27Z</time>
      </trkpt>
      <trkpt lat="47.30618" lon="5.00763">
        <ele>259</ele>
        <time>2012-01-15T11:26:32Z</time>
      </trkpt>
      <trkpt lat="47.30618" lon="5.00795">
        <ele>259</ele>
        <time>2012-01-15T11:26:36Z</time>
      </trkpt>
      <trkpt lat="47.30617" lon="5.00883">
        <ele>256</ele>
        <time>2012-01-15T11:26:46Z</time>
      </trkpt>
      <trkpt lat="47.30613" lon="5.00913">
        <ele>256</ele>
        <time>2012-01-15T11:26:50Z</time>
      </trkpt>
      <trkpt lat="47.30625" lon="5.00928">
        <ele>256</ele>
        <time>2012-01-15T11:26:59Z</time>
      </trkpt>
      <trkpt lat="47.3064" lon="5.00937">
        <ele>257</ele>
        <time>2012-01-15T11:27:03Z</time>
      </trkpt>
      <trkpt lat="47.30657" lon="5.00947">
        <ele>256</ele>
        <time>2012-01-15T11:27:07Z</time>
      </trkpt>
      <trkpt lat="47.30677" lon="5.0095">
        <ele>256</ele>
        <time>2012-01-15T11:27:11Z</time>
      </trkpt>
      <trkpt lat="47.30697" lon="5.0096">
        <ele>255</ele>
        <time>2012-01-15T11:27:16Z</time>
      </trkpt>
      <trkpt lat="47.30712" lon="5.00978">
        <ele>255</ele>
        <time>2012-01-15T11:27:20Z</time>
      </trkpt>
      <trkpt lat="47.30725" lon="5.01">
        <ele>256</ele>
        <time>2012-01-15T11:27:24Z</time>
      </trkpt>
      <trkpt lat="47.30735" lon="5.01017">
        <ele>256</ele>
        <time>2012-01-15T11:27:26Z</time>
      </trkpt>
      <trkpt lat="47.30763" lon="5.01063">
        <ele>256</ele>
        <time>2012-01-15T11:27:34Z</time>
      </trkpt>
      <trkpt lat="47.30778" lon="5.01083">
        <ele>256</ele>
        <time>2012-01-15T11:27:39Z</time>
      </trkpt>
      <trkpt lat="47.30793" lon="5.01103">
        <ele>256</ele>
        <time>2012-01-15T11:27:43Z</time>
      </trkpt>
      <trkpt lat="47.30808" lon="5.01122">
        <ele>256</ele>
        <time>2012-01-15T11:27:47Z</time>
      </trkpt>
      <trkpt lat="47.30825" lon="5.01145">
        <ele>257</ele>
        <time>2012-01-15T11:27:51Z</time>
      </trkpt>
      <trkpt lat="47.30835" lon="5.01168">
        <ele>256</ele>
        <time>2012-01-15T11:27:55Z</time>
      </trkpt>
      <trkpt lat="47.30845" lon="5.01195">
        <ele>257</ele>
        <time>2012-01-15T11:27:59Z</time>
      </trkpt>
      <trkpt lat="47.30863" lon="5.0121">
        <ele>257</ele>
        <time>2012-01-15T11:28:04Z</time>
      </trkpt>
      <trkpt lat="47.3088" lon="5.01233">
        <ele>257</ele>
        <time>2012-01-15T11:28:08Z</time>
      </trkpt>
      <trkpt lat="47.30892" lon="5.0125">
        <ele>258</ele>
        <time>2012-01-15T11:28:10Z</time>
      </trkpt>
      <trkpt lat="47.30905" lon="5.01273">
        <ele>257</ele>
        <time>2012-01-15T11:28:14Z</time>
      </trkpt>
      <trkpt lat="47.30918" lon="5.01298">
        <ele>256</ele>
        <time>2012-01-15T11:28:18Z</time>
      </trkpt>
      <trkpt lat="47.30938" lon="5.01335">
        <ele>255</ele>
        <time>2012-01-15T11:28:25Z</time>
      </trkpt>
      <trkpt lat="47.30932" lon="5.01362">
        <ele>255</ele>
        <time>2012-01-15T11:28:29Z</time>
      </trkpt>
      <trkpt lat="47.3091" lon="5.01385">
        <ele>255</ele>
        <time>2012-01-15T11:28:33Z</time>
      </trkpt>
      <trkpt lat="47.30892" lon="5.01408">
        <ele>253</ele>
        <time>2012-01-15T11:28:37Z</time>
      </trkpt>
      <trkpt lat="47.30865" lon="5.01447">
        <ele>252</ele>
        <time>2012-01-15T11:28:44Z</time>
      </trkpt>
      <trkpt lat="47.30858" lon="5.01478">
        <ele>250</ele>
        <time>2012-01-15T11:28:48Z</time>
      </trkpt>
      <trkpt lat="47.30868" lon="5.01508">
        <ele>250</ele>
        <time>2012-01-15T11:28:52Z</time>
      </trkpt>
      <trkpt lat="47.30878" lon="5.01528">
        <ele>250</ele>
        <time>2012-01-15T11:28:54Z</time>
      </trkpt>
      <trkpt lat="47.30892" lon="5.01553">
        <ele>250</ele>
        <time>2012-01-15T11:28:58Z</time>
      </trkpt>
      <trkpt lat="47.30922" lon="5.01607">
        <ele>250</ele>
        <time>2012-01-15T11:29:07Z</time>
      </trkpt>
      <trkpt lat="47.3093" lon="5.0163">
        <ele>251</ele>
        <time>2012-01-15T11:29:11Z</time>
      </trkpt>
      <trkpt lat="47.3093" lon="5.01652">
        <ele>252</ele>
        <time>2012-01-15T11:29:15Z</time>
      </trkpt>
      <trkpt lat="47.30942" lon="5.01662">
        <ele>252</ele>
        <time>2012-01-15T11:29:21Z</time>
      </trkpt>
      <trkpt lat="47.30957" lon="5.01675">
        <ele>252</ele>
        <time>2012-01-15T11:29:25Z</time>
      </trkpt>
      <trkpt lat="47.30972" lon="5.01698">
        <ele>252</ele>
        <time>2012-01-15T11:29:30Z</time>
      </trkpt>
      <trkpt lat="47.30998" lon="5.01745">
        <ele>253</ele>
        <time>2012-01-15T11:29:36Z</time>
      </trkpt>
      <trkpt lat="47.31028" lon="5.018">
        <ele>251</ele>
        <time>2012-01-15T11:29:44Z</time>
      </trkpt>
      <trkpt lat="47.31053" lon="5.01843">
        <ele>247</ele>
        <time>2012-01-15T11:29:51Z</time>
      </trkpt>
      <trkpt lat="47.31107" lon="5.0193">
        <ele>244</ele>
        <time>2012-01-15T11:30:03Z</time>
      </trkpt>
      <trkpt lat="47.3113" lon="5.01965">
        <ele>243</ele>
        <time>2012-01-15T11:30:10Z</time>
      </trkpt>
      <trkpt lat="47.31153" lon="5.01997">
        <ele>242</ele>
        <time>2012-01-15T11:30:16Z</time>
      </trkpt>
      <trkpt lat="47.31178" lon="5.01995">
        <ele>243</ele>
        <time>2012-01-15T11:30:20Z</time>
      </trkpt>
      <trkpt lat="47.31195" lon="5.01995">
        <ele>243</ele>
        <time>2012-01-15T11:30:24Z</time>
      </trkpt>
      <trkpt lat="47.31207" lon="5.0202">
        <ele>242</ele>
        <time>2012-01-15T11:30:28Z</time>
      </trkpt>
      <trkpt lat="47.31222" lon="5.02043">
        <ele>241</ele>
        <time>2012-01-15T11:30:33Z</time>
      </trkpt>
      <trkpt lat="47.31237" lon="5.02068">
        <ele>241</ele>
        <time>2012-01-15T11:30:37Z</time>
      </trkpt>
      <trkpt lat="47.31253" lon="5.02098">
        <ele>241</ele>
        <time>2012-01-15T11:30:41Z</time>
      </trkpt>
      <trkpt lat="47.31278" lon="5.02143">
        <ele>242</ele>
        <time>2012-01-15T11:30:50Z</time>
      </trkpt>
      <trkpt lat="47.31295" lon="5.02175">
        <ele>243</ele>
        <time>2012-01-15T11:30:56Z</time>
      </trkpt>
      <trkpt lat="47.3135" lon="5.02278">
        <ele>243</ele>
        <time>2012-01-15T11:31:17Z</time>
      </trkpt>
      <trkpt lat="47.3137" lon="5.0232">
        <ele>242</ele>
        <time>2012-01-15T11:31:25Z</time>
      </trkpt>
      <trkpt lat="47.31378" lon="5.0234">
        <ele>243</ele>
        <time>2012-01-15T11:31:31Z</time>
      </trkpt>
      <trkpt lat="47.31383" lon="5.02363">
        <ele>250</ele>
        <time>2012-01-15T11:31:38Z</time>
      </trkpt>
      <trkpt lat="47.31387" lon="5.0239">
        <ele>255</ele>
        <time>2012-01-15T11:31:44Z</time>
      </trkpt>
      <trkpt lat="47.31397" lon="5.02407">
        <ele>255</ele>
        <time>2012-01-15T11:31:48Z</time>
      </trkpt>
      <trkpt lat="47.31407" lon="5.02423">
        <ele>254</ele>
        <time>2012-01-15T11:31:52Z</time>
      </trkpt>
      <trkpt lat="47.31422" lon="5.02452">
        <ele>253</ele>
        <time>2012-01-15T11:31:59Z</time>
      </trkpt>
      <trkpt lat="47.31422" lon="5.02473">
        <ele>254</ele>
        <time>2012-01-15T11:32:03Z</time>
      </trkpt>
      <trkpt lat="47.3142" lon="5.02502">
        <ele>259</ele>
        <time>2012-01-15T11:32:07Z</time>
      </trkpt>
      <trkpt lat="47.3142" lon="5.02527">
        <ele>261</ele>
        <time>2012-01-15T11:32:11Z</time>
      </trkpt>
      <trkpt lat="47.31423" lon="5.0255">
        <ele>267</ele>
        <time>2012-01-15T11:32:18Z</time>
      </trkpt>
      <trkpt lat="47.3143" lon="5.02575">
        <ele>265</ele>
        <time>2012-01-15T11:32:24Z</time>
      </trkpt>
      <trkpt lat="47.3142" lon="5.0259">
        <ele>260</ele>
        <time>2012-01-15T11:32:28Z</time>
      </trkpt>
      <trkpt lat="47.31402" lon="5.02603">
        <ele>254</ele>
        <time>2012-01-15T11:32:32Z</time>
      </trkpt>
      <trkpt lat="47.31385" lon="5.02612">
        <ele>251</ele>
        <time>2012-01-15T11:32:36Z</time>
      </trkpt>
      <trkpt lat="47.31372" lon="5.02622">
        <ele>249</ele>
        <time>2012-01-15T11:32:40Z</time>
      </trkpt>
      <trkpt lat="47.31358" lon="5.02633">
        <ele>250</ele>
        <time>2012-01-15T11:32:45Z</time>
      </trkpt>
      <trkpt lat="47.31343" lon="5.02642">
        <ele>248</ele>
        <time>2012-01-15T11:32:49Z</time>
      </trkpt>
      <trkpt lat="47.3133" lon="5.02648">
        <ele>247</ele>
        <time>2012-01-15T11:32:51Z</time>
      </trkpt>
      <trkpt lat="47.31312" lon="5.02658">
        <ele>246</ele>
        <time>2012-01-15T11:32:55Z</time>
      </trkpt>
      <trkpt lat="47.31295" lon="5.02668">
        <ele>245</ele>
        <time>2012-01-15T11:32:59Z</time>
      </trkpt>
      <trkpt lat="47.31263" lon="5.02688">
        <ele>243</ele>
        <time>2012-01-15T11:33:08Z</time>
      </trkpt>
      <trkpt lat="47.31228" lon="5.02708">
        <ele>243</ele>
        <time>2012-01-15T11:33:16Z</time>
      </trkpt>
      <trkpt lat="47.31212" lon="5.02705">
        <ele>245</ele>
        <time>2012-01-15T11:33:22Z</time>
      </trkpt>
      <trkpt lat="47.31208" lon="5.02727">
        <ele>245</ele>
        <time>2012-01-15T11:33:31Z</time>
      </trkpt>
      <trkpt lat="47.31217" lon="5.02743">
        <ele>243</ele>
        <time>2012-01-15T11:33:37Z</time>
      </trkpt>
      <trkpt lat="47.31203" lon="5.02763">
        <ele>242</ele>
        <time>2012-01-15T11:33:43Z</time>
      </trkpt>
      <trkpt lat="47.31182" lon="5.02775">
        <ele>240</ele>
        <time>2012-01-15T11:33:48Z</time>
      </trkpt>
      <trkpt lat="47.31142" lon="5.02792">
        <ele>241</ele>
        <time>2012-01-15T11:33:56Z</time>
      </trkpt>
      <trkpt lat="47.31122" lon="5.02802">
        <ele>242</ele>
        <time>2012-01-15T11:34:00Z</time>
      </trkpt>
      <trkpt lat="47.31078" lon="5.0283">
        <ele>240</ele>
        <time>2012-01-15T11:34:09Z</time>
      </trkpt>
      <trkpt lat="47.31055" lon="5.02842">
        <ele>240</ele>
        <time>2012-01-15T11:34:13Z</time>
      </trkpt>
      <trkpt lat="47.31028" lon="5.02857">
        <ele>240</ele>
        <time>2012-01-15T11:34:17Z</time>
      </trkpt>
      <trkpt lat="47.3095" lon="5.02903">
        <ele>241</ele>
        <time>2012-01-15T11:34:34Z</time>
      </trkpt>
      <trkpt lat="47.30898" lon="5.02933">
        <ele>241</ele>
        <time>2012-01-15T11:34:44Z</time>
      </trkpt>
      <trkpt lat="47.30863" lon="5.02955">
        <ele>240</ele>
        <time>2012-01-15T11:34:53Z</time>
      </trkpt>
      <trkpt lat="47.30823" lon="5.02978">
        <ele>241</ele>
        <time>2012-01-15T11:35:01Z</time>
      </trkpt>
      <trkpt lat="47.30792" lon="5.02993">
        <ele>244</ele>
        <time>2012-01-15T11:35:07Z</time>
      </trkpt>
      <trkpt lat="47.30742" lon="5.03018">
        <ele>247</ele>
        <time>2012-01-15T11:35:18Z</time>
      </trkpt>
      <trkpt lat="47.30715" lon="5.03013">
        <ele>251</ele>
        <time>2012-01-15T11:35:22Z</time>
      </trkpt>
      <trkpt lat="47.30698" lon="5.03022">
        <ele>247</ele>
        <time>2012-01-15T11:35:26Z</time>
      </trkpt>
      <trkpt lat="47.30658" lon="5.03052">
        <ele>248</ele>
        <time>2012-01-15T11:35:35Z</time>
      </trkpt>
      <trkpt lat="47.3064" lon="5.03038">
        <ele>247</ele>
        <time>2012-01-15T11:35:39Z</time>
      </trkpt>
      <trkpt lat="47.30607" lon="5.03118">
        <ele>249</ele>
        <time>2012-01-15T11:35:43Z</time>
      </trkpt>
      <trkpt lat="47.30595" lon="5.03108">
        <ele>250</ele>
        <time>2012-01-15T11:35:47Z</time>
      </trkpt>
      <trkpt lat="47.30575" lon="5.03117">
        <ele>250</ele>
        <time>2012-01-15T11:35:51Z</time>
      </trkpt>
      <trkpt lat="47.30557" lon="5.03125">
        <ele>250</ele>
        <time>2012-01-15T11:35:56Z</time>
      </trkpt>
      <trkpt lat="47.30505" lon="5.03155">
        <ele>251</ele>
        <time>2012-01-15T11:36:06Z</time>
      </trkpt>
      <trkpt lat="47.30163" lon="5.03365">
        <ele>239</ele>
        <time>2012-01-15T11:37:09Z</time>
      </trkpt>
      <trkpt lat="47.30143" lon="5.03373">
        <ele>244</ele>
        <time>2012-01-15T11:37:13Z</time>
      </trkpt>
      <trkpt lat="47.30122" lon="5.03387">
        <ele>245</ele>
        <time>2012-01-15T11:37:17Z</time>
      </trkpt>
      <trkpt lat="47.30032" lon="5.03445">
        <ele>246</ele>
        <time>2012-01-15T11:37:34Z</time>
      </trkpt>
      <trkpt lat="47.2992" lon="5.03512">
        <ele>239</ele>
        <time>2012-01-15T11:37:55Z</time>
      </trkpt>
      <trkpt lat="47.29877" lon="5.03535">
        <ele>240</ele>
        <time>2012-01-15T11:38:04Z</time>
      </trkpt>
      <trkpt lat="47.29835" lon="5.0356">
        <ele>240</ele>
        <time>2012-01-15T11:38:12Z</time>
      </trkpt>
      <trkpt lat="47.29798" lon="5.03585">
        <ele>239</ele>
        <time>2012-01-15T11:38:18Z</time>
      </trkpt>
      <trkpt lat="47.29778" lon="5.03602">
        <ele>238</ele>
        <time>2012-01-15T11:38:22Z</time>
      </trkpt>
      <trkpt lat="47.2976" lon="5.0362">
        <ele>237</ele>
        <time>2012-01-15T11:38:27Z</time>
      </trkpt>
      <trkpt lat="47.29735" lon="5.0365">
        <ele>237</ele>
        <time>2012-01-15T11:38:33Z</time>
      </trkpt>
      <trkpt lat="47.29655" lon="5.0375">
        <ele>239</ele>
        <time>2012-01-15T11:38:54Z</time>
      </trkpt>
      <trkpt lat="47.29605" lon="5.03812">
        <ele>238</ele>
        <time>2012-01-15T11:39:06Z</time>
      </trkpt>
      <trkpt lat="47.29532" lon="5.03905">
        <ele>237</ele>
        <time>2012-01-15T11:39:25Z</time>
      </trkpt>
      <trkpt lat="47.29515" lon="5.03925">
        <ele>237</ele>
        <time>2012-01-15T11:39:29Z</time>
      </trkpt>
      <trkpt lat="47.29482" lon="5.03963">
        <ele>235</ele>
        <time>2012-01-15T11:39:38Z</time>
      </trkpt>
      <trkpt lat="47.29462" lon="5.0399">
        <ele>235</ele>
        <time>2012-01-15T11:39:42Z</time>
      </trkpt>
      <trkpt lat="47.2942" lon="5.04047">
        <ele>235</ele>
        <time>2012-01-15T11:39:54Z</time>
      </trkpt>
      <trkpt lat="47.29408" lon="5.04057">
        <ele>235</ele>
        <time>2012-01-15T11:40:01Z</time>
      </trkpt>
      <trkpt lat="47.29393" lon="5.04062">
        <ele>232</ele>
        <time>2012-01-15T11:40:05Z</time>
      </trkpt>
      <trkpt lat="47.29378" lon="5.0408">
        <ele>235</ele>
        <time>2012-01-15T11:40:09Z</time>
      </trkpt>
      <trkpt lat="47.29298" lon="5.04193">
        <ele>236</ele>
        <time>2012-01-15T11:40:30Z</time>
      </trkpt>
      <trkpt lat="47.29285" lon="5.04212">
        <ele>237</ele>
        <time>2012-01-15T11:40:34Z</time>
      </trkpt>
      <trkpt lat="47.2927" lon="5.04232">
        <ele>236</ele>
        <time>2012-01-15T11:40:39Z</time>
      </trkpt>
      <trkpt lat="47.29253" lon="5.04253">
        <ele>236</ele>
        <time>2012-01-15T11:40:43Z</time>
      </trkpt>
      <trkpt lat="47.29237" lon="5.0428">
        <ele>236</ele>
        <time>2012-01-15T11:40:47Z</time>
      </trkpt>
      <trkpt lat="47.29235" lon="5.04312">
        <ele>235</ele>
        <time>2012-01-15T11:40:51Z</time>
      </trkpt>
      <trkpt lat="47.29233" lon="5.04348">
        <ele>234</ele>
        <time>2012-01-15T11:40:55Z</time>
      </trkpt>
      <trkpt lat="47.29227" lon="5.04448">
        <ele>234</ele>
        <time>2012-01-15T11:41:08Z</time>
      </trkpt>
      <trkpt lat="47.29225" lon="5.04472">
        <ele>233</ele>
        <time>2012-01-15T11:41:12Z</time>
      </trkpt>
      <trkpt lat="47.2922" lon="5.04492">
        <ele>233</ele>
        <time>2012-01-15T11:41:16Z</time>
      </trkpt>
      <trkpt lat="47.29207" lon="5.04508">
        <ele>234</ele>
        <time>2012-01-15T11:41:21Z</time>
      </trkpt>
      <trkpt lat="47.29197" lon="5.04528">
        <ele>234</ele>
        <time>2012-01-15T11:41:25Z</time>
      </trkpt>
      <trkpt lat="47.2919" lon="5.0456">
        <ele>233</ele>
        <time>2012-01-15T11:41:29Z</time>
      </trkpt>
      <trkpt lat="47.29187" lon="5.04587">
        <ele>233</ele>
        <time>2012-01-15T11:41:33Z</time>
      </trkpt>
      <trkpt lat="47.29183" lon="5.04623">
        <ele>232</ele>
        <time>2012-01-15T11:41:37Z</time>
      </trkpt>
      <trkpt lat="47.29173" lon="5.04727">
        <ele>233</ele>
        <time>2012-01-15T11:41:50Z</time>
      </trkpt>
      <trkpt lat="47.29172" lon="5.04755">
        <ele>236</ele>
        <time>2012-01-15T11:41:54Z</time>
      </trkpt>
      <trkpt lat="47.2917" lon="5.04783">
        <ele>238</ele>
        <time>2012-01-15T11:41:58Z</time>
      </trkpt>
      <trkpt lat="47.29167" lon="5.04827">
        <ele>239</ele>
        <time>2012-01-15T11:42:05Z</time>
      </trkpt>
      <trkpt lat="47.29162" lon="5.04857">
        <ele>240</ele>
        <time>2012-01-15T11:42:09Z</time>
      </trkpt>
      <trkpt lat="47.29148" lon="5.04925">
        <ele>240</ele>
        <time>2012-01-15T11:42:17Z</time>
      </trkpt>
      <trkpt lat="47.2914" lon="5.04955">
        <ele>238</ele>
        <time>2012-01-15T11:42:21Z</time>
      </trkpt>
      <trkpt lat="47.29128" lon="5.04987">
        <ele>235</ele>
        <time>2012-01-15T11:42:26Z</time>
      </trkpt>
      <trkpt lat="47.29117" lon="5.05013">
        <ele>234</ele>
        <time>2012-01-15T11:42:30Z</time>
      </trkpt>
      <trkpt lat="47.2909" lon="5.05073">
        <ele>233</ele>
        <time>2012-01-15T11:42:38Z</time>
      </trkpt>
      <trkpt lat="47.29077" lon="5.05098">
        <ele>233</ele>
        <time>2012-01-15T11:42:43Z</time>
      </trkpt>
      <trkpt lat="47.29065" lon="5.0512">
        <ele>232</ele>
        <time>2012-01-15T11:42:47Z</time>
      </trkpt>
      <trkpt lat="47.29042" lon="5.0516">
        <ele>233</ele>
        <time>2012-01-15T11:42:53Z</time>
      </trkpt>
      <trkpt lat="47.2903" lon="5.05182">
        <ele>233</ele>
        <time>2012-01-15T11:42:57Z</time>
      </trkpt>
      <trkpt lat="47.29018" lon="5.05203">
        <ele>233</ele>
        <time>2012-01-15T11:43:01Z</time>
      </trkpt>
      <trkpt lat="47.29005" lon="5.05222">
        <ele>234</ele>
        <time>2012-01-15T11:43:06Z</time>
      </trkpt>
      <trkpt lat="47.2899" lon="5.0524">
        <ele>234</ele>
        <time>2012-01-15T11:43:10Z</time>
      </trkpt>
      <trkpt lat="47.28968" lon="5.05255">
        <ele>235</ele>
        <time>2012-01-15T11:43:14Z</time>
      </trkpt>
      <trkpt lat="47.28963" lon="5.05275">
        <ele>236</ele>
        <time>2012-01-15T11:43:20Z</time>
      </trkpt>
      <trkpt lat="47.28982" lon="5.05285">
        <ele>236</ele>
        <time>2012-01-15T11:43:27Z</time>
      </trkpt>
      <trkpt lat="47.28992" lon="5.053">
        <ele>232</ele>
        <time>2012-01-15T11:43:33Z</time>
      </trkpt>
      <trkpt lat="47.28978" lon="5.05318">
        <ele>230</ele>
        <time>2012-01-15T11:43:37Z</time>
      </trkpt>
      <trkpt lat="47.28958" lon="5.05352">
        <ele>230</ele>
        <time>2012-01-15T11:43:43Z</time>
      </trkpt>
      <trkpt lat="47.28947" lon="5.05372">
        <ele>231</ele>
        <time>2012-01-15T11:43:48Z</time>
      </trkpt>
      <trkpt lat="47.28922" lon="5.05412">
        <ele>232</ele>
        <time>2012-01-15T11:43:56Z</time>
      </trkpt>
      <trkpt lat="47.28882" lon="5.05475">
        <ele>232</ele>
        <time>2012-01-15T11:44:08Z</time>
      </trkpt>
      <trkpt lat="47.28888" lon="5.055">
        <ele>232</ele>
        <time>2012-01-15T11:44:15Z</time>
      </trkpt>
      <trkpt lat="47.28898" lon="5.05515">
        <ele>231</ele>
        <time>2012-01-15T11:44:19Z</time>
      </trkpt>
      <trkpt lat="47.28887" lon="5.05547">
        <ele>232</ele>
        <time>2012-01-15T11:44:25Z</time>
      </trkpt>
      <trkpt lat="47.28875" lon="5.05568">
        <ele>232</ele>
        <time>2012-01-15T11:44:29Z</time>
      </trkpt>
      <trkpt lat="47.28842" lon="5.05632">
        <ele>237</ele>
        <time>2012-01-15T11:44:42Z</time>
      </trkpt>
      <trkpt lat="47.28827" lon="5.0566">
        <ele>238</ele>
        <time>2012-01-15T11:44:48Z</time>
      </trkpt>
      <trkpt lat="47.28807" lon="5.05703">
        <ele>239</ele>
        <time>2012-01-15T11:44:58Z</time>
      </trkpt>
      <trkpt lat="47.28792" lon="5.05735">
        <ele>237</ele>
        <time>2012-01-15T11:45:03Z</time>
      </trkpt>
      <trkpt lat="47.28782" lon="5.0576">
        <ele>235</ele>
        <time>2012-01-15T11:45:07Z</time>
      </trkpt>
      <trkpt lat="47.2877" lon="5.05785">
        <ele>232</ele>
        <time>2012-01-15T11:45:11Z</time>
      </trkpt>
      <trkpt lat="47.28757" lon="5.05813">
        <ele>230</ele>
        <time>2012-01-15T11:45:15Z</time>
      </trkpt>
      <trkpt lat="47.28742" lon="5.05845">
        <ele>228</ele>
        <time>2012-01-15T11:45:21Z</time>
      </trkpt>
      <trkpt lat="47.28717" lon="5.05897">
        <ele>228</ele>
        <time>2012-01-15T11:45:32Z</time>
      </trkpt>
      <trkpt lat="47.28698" lon="5.05937">
        <ele>227</ele>
        <time>2012-01-15T11:45:38Z</time>
      </trkpt>
      <trkpt lat="47.28678" lon="5.05978">
        <ele>229</ele>
        <time>2012-01-15T11:45:47Z</time>
      </trkpt>
      <trkpt lat="47.2867" lon="5.06002">
        <ele>230</ele>
        <time>2012-01-15T11:45:51Z</time>
      </trkpt>
      <trkpt lat="47.28657" lon="5.06035">
        <ele>232</ele>
        <time>2012-01-15T11:45:57Z</time>
      </trkpt>
      <trkpt lat="47.28645" lon="5.06057">
        <ele>235</ele>
        <time>2012-01-15T11:46:01Z</time>
      </trkpt>
      <trkpt lat="47.28613" lon="5.06117">
        <ele>237</ele>
        <time>2012-01-15T11:46:14Z</time>
      </trkpt>
      <trkpt lat="47.28602" lon="5.06133">
        <ele>239</ele>
        <time>2012-01-15T11:46:18Z</time>
      </trkpt>
      <trkpt lat="47.2859" lon="5.06158">
        <ele>238</ele>
        <time>2012-01-15T11:46:22Z</time>
      </trkpt>
      <trkpt lat="47.2857" lon="5.06197">
        <ele>238</ele>
        <time>2012-01-15T11:46:30Z</time>
      </trkpt>
      <trkpt lat="47.28558" lon="5.06225">
        <ele>238</ele>
        <time>2012-01-15T11:46:37Z</time>
      </trkpt>
      <trkpt lat="47.28557" lon="5.06245">
        <ele>238</ele>
        <time>2012-01-15T11:46:41Z</time>
      </trkpt>
      <trkpt lat="47.28568" lon="5.06262">
        <ele>237</ele>
        <time>2012-01-15T11:46:45Z</time>
      </trkpt>
      <trkpt lat="47.28582" lon="5.06277">
        <ele>240</ele>
        <time>2012-01-15T11:46:51Z</time>
      </trkpt>
      <trkpt lat="47.28573" lon="5.06302">
        <ele>244</ele>
        <time>2012-01-15T11:47:02Z</time>
      </trkpt>
      <trkpt lat="47.28583" lon="5.06318">
        <ele>242</ele>
        <time>2012-01-15T11:47:06Z</time>
      </trkpt>
      <trkpt lat="47.28598" lon="5.06327">
        <ele>240</ele>
        <time>2012-01-15T11:47:10Z</time>
      </trkpt>
      <trkpt lat="47.28617" lon="5.06335">
        <ele>237</ele>
        <time>2012-01-15T11:47:16Z</time>
      </trkpt>
      <trkpt lat="47.2863" lon="5.0634">
        <ele>236</ele>
        <time>2012-01-15T11:47:21Z</time>
      </trkpt>
      <trkpt lat="47.28645" lon="5.06343">
        <ele>236</ele>
        <time>2012-01-15T11:47:25Z</time>
      </trkpt>
      <trkpt lat="47.28663" lon="5.06337">
        <ele>236</ele>
        <time>2012-01-15T11:47:31Z</time>
      </trkpt>
      <trkpt lat="47.2868" lon="5.0634">
        <ele>237</ele>
        <time>2012-01-15T11:47:37Z</time>
      </trkpt>
      <trkpt lat="47.28693" lon="5.06343">
        <ele>236</ele>
        <time>2012-01-15T11:47:42Z</time>
      </trkpt>
      <trkpt lat="47.28705" lon="5.06355">
        <ele>235</ele>
        <time>2012-01-15T11:47:46Z</time>
      </trkpt>
      <trkpt lat="47.28767" lon="5.0642">
        <ele>235</ele>
        <time>2012-01-15T11:48:05Z</time>
      </trkpt>
      <trkpt lat="47.28782" lon="5.06435">
        <ele>234</ele>
        <time>2012-01-15T11:48:09Z</time>
      </trkpt>
      <trkpt lat="47.28812" lon="5.06463">
        <ele>235</ele>
        <time>2012-01-15T11:48:17Z</time>
      </trkpt>
      <trkpt lat="47.28825" lon="5.06477">
        <ele>236</ele>
        <time>2012-01-15T11:48:21Z</time>
      </trkpt>
      <trkpt lat="47.28905" lon="5.06565">
        <ele>239</ele>
        <time>2012-01-15T11:48:46Z</time>
      </trkpt>
      <trkpt lat="47.28895" lon="5.06588">
        <ele>241</ele>
        <time>2012-01-15T11:48:53Z</time>
      </trkpt>
      <trkpt lat="47.289" lon="5.06608">
        <ele>239</ele>
        <time>2012-01-15T11:48:57Z</time>
      </trkpt>
      <trkpt lat="47.28917" lon="5.06628">
        <ele>237</ele>
        <time>2012-01-15T11:49:01Z</time>
      </trkpt>
      <trkpt lat="47.2893" lon="5.06643">
        <ele>235</ele>
        <time>2012-01-15T11:49:05Z</time>
      </trkpt>
      <trkpt lat="47.28943" lon="5.06657">
        <ele>234</ele>
        <time>2012-01-15T11:49:09Z</time>
      </trkpt>
      <trkpt lat="47.28958" lon="5.06672">
        <ele>233</ele>
        <time>2012-01-15T11:49:14Z</time>
      </trkpt>
      <trkpt lat="47.29015" lon="5.06738">
        <ele>232</ele>
        <time>2012-01-15T11:49:32Z</time>
      </trkpt>
      <trkpt lat="47.29028" lon="5.06747">
        <ele>232</ele>
        <time>2012-01-15T11:49:43Z</time>
      </trkpt>
    </trkseg>
  </trk>
</gpx>